[[{"header":{"parameterUnit":"m.s-1","parameterCategory":1,"la1":31.0,"la2":29.5877,"lo1":-88.7671,"lo2":-86.6584,"dy":0.0162,"dx":0.0185,"nx":115,"ny":88,"refTime":"2024-04-15T06:00:00:Z","depth":0,"parameterNumber":2,"parameterNumberName":"U-component_of_WINDS"},"data":[0.0,0.0,0.0,0.0,0.0,0.0,0.0,0.0,0.0,0.0,0.0,0.0,0.0,0.0,0.0,0.0,0.0,0.0,0.0,0.0,0.0,0.0,0.0,0.0,0.0,0.0,0.0,0.0,0.0,0.0,0.0,0.0,0.0,0.0,0.0,0.0,0.0,0.0,0.0,0.0,0.0,0.0,0.0,0.0,0.0,0.0,0.0,0.0,0.0,0.0,0.0,0.0,0.0,0.0,0.0,0.0,0.0,0.0,0.0,0.0,0.0,0.0,0.0,0.0,0.0,0.0,0.0,0.0,0.0,0.0,0.0,0.0,0.0,0.0,0.0,0.0,0.0,0.0,0.0,0.0,0.0,0.0,0.0,0.0,0.0,0.0,0.0,0.0,0.0,0.0,0.0,0.0,0.0,0.0,0.0,0.0,0.0,0.0,0.0,0.0,0.0,0.0,0.0,0.0,0.0,0.0,0.0,0.0,0.0,0.0,0.0,0.0,0.0,0.0,0.0,0.0,0.0,0.0,0.0,0.0,0.0,0.0,0.0,0.0,0.0,0.0,0.0,0.0,0.0,0.0,0.0,0.0,0.0,0.0,0.0,0.0,0.0,0.0,0.0,0.0,0.0,0.0,0.0,0.0,0.0,0.0,0.0,0.0,0.0,0.0,0.0,0.0,0.0,0.0,0.0,0.0,0.0,0.0,0.0,0.0,0.0,0.0,0.0,0.0,0.0,0.0,0.0,0.0,0.0,0.0,0.0,0.0,0.0,0.0,0.0,0.0,0.0,0.0,0.0,0.0,0.0,0.0,0.0,0.0,0.0,0.0,0.0,0.0,0.0,0.0,0.0,0.0,0.0,0.0,0.0,0.0,0.0,0.0,0.0,0.0,0.0,0.0,0.0,0.0,0.0,0.0,0.0,0.0,0.0,0.0,0.0,0.0,0.0,0.0,0.0,0.0,0.0,0.0,0.0,0.0,0.0,0.0,0.0,0.0,0.0,0.0,0.0,0.0,0.0,0.0,0.0,0.0,0.0,0.0,0.0,0.0,0.0,0.0,0.0,0.0,0.0,0.0,0.0,0.0,0.0,0.0,0.0,0.0,0.0,0.0,0.0,0.0,0.0,0.0,0.0,0.0,0.0,0.0,0.0,0.0,0.0,0.0,0.0,0.0,0.0,0.0,0.0,0.0,0.0,0.0,0.0,0.0,0.0,0.0,0.0,0.0,0.0,0.0,0.0,0.0,0.0,0.0,0.0,0.0,0.0,0.0,0.0,0.0,0.0,0.0,0.0,0.0,0.0,0.0,0.0,0.0,0.0,0.0,0.0,0.0,0.0,0.0,0.0,0.0,0.0,0.0,0.0,0.0,0.0,0.0,0.0,0.0,0.0,0.0,0.0,0.0,0.0,0.0,0.0,0.0,0.0,0.0,0.0,0.0,0.0,0.0,0.0,0.0,0.0,0.0,0.0,0.0,0.0,0.0,0.0,0.0,0.0,0.0,0.0,0.0,0.0,0.0,0.0,0.0,0.0,0.0,0.0,0.0,0.0,0.0,0.0,0.0,0.0,0.0,0.0,0.0,0.0,0.0,0.0,0.0,0.0,0.0,0.0,0.0,0.0,0.0,0.0,0.0,0.0,0.0,0.0,0.0,0.0,0.0,0.0,0.0,0.0,0.0,0.0,0.0,0.0,0.0,0.0,0.0,0.0,0.0,0.0,0.0,0.0,0.0,0.0,0.0,0.0,0.0,0.0,0.0,0.0,0.0,0.0,0.0,0.0,0.0,0.0,0.0,0.0,0.0,0.0,0.0,0.0,0.0,0.0,0.0,0.0,0.0,0.0,0.0,0.0,0.0,0.0,0.0,0.0,0.0,0.0,0.0,0.0,0.0,0.0,0.0,0.0,0.0,0.0,0.0,0.0,0.0,0.0,0.0,0.0,0.0,0.0,0.0,0.0,0.0,0.0,0.0,0.0,0.0,0.0,0.0,0.0,0.0,0.0,0.0,0.0,0.0,0.0,0.0,0.0,0.0,0.0,0.0,0.0,0.0,0.0,0.0,0.0,0.0,0.0,0.0,0.0,0.0,0.0,0.0,0.0,0.0,0.0,0.0,0.0,0.0,0.0,0.0,0.0,0.0,0.0,0.0,0.0,0.0,0.0,0.0,0.0,0.0,0.0,0.0,0.0,0.0,0.0,0.0,0.0,0.0,0.0,0.0,0.0,0.0,0.0,0.0,0.0,0.0,0.0,0.0,0.0,0.0,0.0,0.0,0.0,0.0,0.0,0.0,0.0,0.0,0.0,0.0,0.0,0.0,0.0,0.0,0.0,0.0,0.0,0.0,0.0,0.0,0.0,0.0,0.0,0.0,0.0,0.0,0.0,0.0,0.0,0.0,0.0,0.0,0.0,0.0,0.0,0.0,0.0,0.0,0.0,0.0,0.0,0.0,0.0,0.0,0.0,0.0,0.0,0.0,0.0,0.0,0.0,0.0,0.0,0.0,0.0,0.0,0.0,0.0,0.0,0.0,0.0,0.0,0.0,0.0,0.0,0.0,0.0,0.0,0.0,0.0,0.0,0.0,0.0,0.0,0.0,0.0,0.0,0.0,0.0,0.0,0.0,0.0,0.0,0.0,0.0,0.0,0.0,0.0,0.0,0.0,0.0,0.0,0.0,0.0,0.0,0.0,0.0,0.0,0.0,0.0,0.0,0.0,0.0,0.0,0.0,0.0,0.0,0.0,0.0,0.0,0.0,0.0,0.0,0.0,0.0,0.0,0.0,0.0,0.0,0.0,0.0,0.0,0.0,0.0,0.0,0.0,0.0,0.0,0.0,0.0,0.0,0.0,0.0,0.0,0.0,0.0,0.0,0.0,0.0,0.0,0.0,0.0,0.0,0.0,0.0,0.0,0.0,0.0,0.0,0.0,0.0,0.0,0.0,0.0,0.0,0.0,0.0,0.0,0.0,0.0,0.0,0.0,0.0,0.0,0.0,0.0,0.0,0.0,0.0,0.0,0.0,0.0,0.0,0.0,0.0,0.0,0.0,0.0,0.0,0.0,0.0,0.0,0.0,0.0,0.0,0.0,0.0,0.0,0.0,0.0,0.0,0.0,0.0,0.0,0.0,0.0,0.0,0.0,0.0,0.0,0.0,0.0,0.0,0.0,0.0,0.0,0.0,0.0,0.0,0.0,0.0,0.0,0.0,0.0,0.0,0.0,0.0,0.0,0.0,0.0,0.0,0.0,0.0,0.0,0.0,0.0,0.0,0.0,0.0,0.0,0.0,0.0,0.0,0.0,0.0,0.0,0.0,0.0,0.0,0.0,0.0,0.0,0.0,0.0,0.0,0.0,0.0,0.0,0.0,0.0,0.0,0.0,0.0,0.0,0.0,0.0,0.0,0.0,0.0,0.0,0.0,0.0,0.0,0.0,0.0,0.0,0.0,0.0,0.0,0.0,0.0,0.0,0.0,0.0,0.0,0.0,0.0,0.0,0.0,0.0,0.0,0.0,0.0,0.0,0.0,0.0,0.0,0.0,0.0,0.0,0.0,0.0,0.0,0.0,0.0,0.0,0.0,0.0,0.0,0.0,0.0,0.0,0.0,0.0,0.0,0.0,0.0,0.0,0.0,0.0,0.0,0.0,0.0,0.0,0.0,0.0,0.0,0.0,0.0,0.0,0.0,0.0,0.0,0.0,0.0,0.0,0.0,0.0,0.0,0.0,0.0,0.0,0.0,0.0,0.0,0.0,0.0,0.0,0.0,0.0,0.0,0.0,0.0,0.0,0.0,0.0,0.0,0.0,0.0,0.0,0.0,0.0,0.0,0.0,0.0,0.0,0.0,0.0,0.0,0.0,0.0,0.0,0.0,0.0,0.0,0.0,0.0,0.0,0.0,0.0,0.0,0.0,0.0,0.0,0.0,0.0,0.0,0.0,0.0,0.0,0.0,0.0,0.0,0.0,0.0,0.0,0.0,0.0,0.0,0.0,0.0,0.0,0.0,0.0,0.0,0.0,0.0,0.0,0.0,0.0,0.0,0.0,0.0,0.0,0.0,0.0,0.0,0.0,0.0,0.0,0.0,0.0,0.0,0.0,0.0,0.0,0.0,0.0,0.0,0.0,0.0,0.0,0.0,0.0,0.0,0.0,0.0,0.0,0.0,0.0,0.0,0.0,0.0,0.0,0.0,0.0,0.0,0.0,0.0,0.0,0.0,0.0,0.0,0.0,0.0,0.0,0.0,0.0,0.0,0.0,0.0,0.0,0.0,0.0,0.0,0.0,-4.8383,0.0,0.0,0.0,0.0,0.0,0.0,0.0,0.0,0.0,0.0,0.0,0.0,0.0,0.0,0.0,0.0,0.0,0.0,0.0,0.0,0.0,0.0,0.0,0.0,0.0,0.0,0.0,0.0,0.0,0.0,0.0,0.0,0.0,0.0,0.0,0.0,0.0,0.0,0.0,0.0,0.0,0.0,0.0,0.0,0.0,0.0,0.0,0.0,0.0,0.0,0.0,0.0,0.0,0.0,0.0,0.0,0.0,0.0,0.0,0.0,0.0,0.0,0.0,0.0,0.0,0.0,0.0,0.0,0.0,0.0,0.0,0.0,0.0,0.0,0.0,0.0,0.0,0.0,0.0,0.0,0.0,0.0,0.0,0.0,0.0,0.0,0.0,0.0,0.0,0.0,0.0,0.0,0.0,0.0,0.0,0.0,0.0,0.0,0.0,0.0,0.0,0.0,0.0,0.0,0.0,0.0,0.0,0.0,0.0,0.0,-4.878,-4.8586,-4.8586,-4.8477,-4.8306,0.0,0.0,0.0,0.0,0.0,0.0,0.0,0.0,0.0,0.0,0.0,0.0,0.0,0.0,0.0,0.0,0.0,0.0,0.0,0.0,0.0,0.0,0.0,0.0,0.0,0.0,0.0,0.0,0.0,0.0,0.0,0.0,0.0,0.0,0.0,0.0,0.0,0.0,0.0,0.0,0.0,0.0,0.0,0.0,0.0,0.0,0.0,0.0,0.0,0.0,0.0,0.0,0.0,0.0,0.0,0.0,0.0,0.0,0.0,0.0,0.0,0.0,0.0,0.0,0.0,0.0,0.0,0.0,0.0,0.0,0.0,0.0,0.0,0.0,0.0,0.0,0.0,0.0,0.0,0.0,0.0,0.0,0.0,0.0,0.0,0.0,0.0,0.0,0.0,0.0,0.0,0.0,0.0,0.0,0.0,0.0,0.0,0.0,0.0,0.0,0.0,0.0,0.0,0.0,0.0,0.0,0.0,0.0,0.0,0.0,0.0,0.0,-4.8402,-4.8402,-4.8306,0.0,0.0,0.0,0.0,0.0,0.0,0.0,0.0,0.0,0.0,0.0,0.0,0.0,0.0,0.0,0.0,0.0,0.0,0.0,0.0,0.0,0.0,0.0,0.0,0.0,0.0,0.0,0.0,0.0,0.0,0.0,0.0,0.0,0.0,0.0,0.0,0.0,0.0,0.0,0.0,0.0,0.0,0.0,0.0,0.0,0.0,0.0,0.0,0.0,0.0,0.0,0.0,0.0,0.0,0.0,0.0,0.0,0.0,0.0,0.0,0.0,0.0,0.0,0.0,0.0,0.0,0.0,0.0,0.0,0.0,0.0,0.0,0.0,0.0,0.0,0.0,0.0,0.0,0.0,0.0,0.0,0.0,0.0,0.0,0.0,0.0,0.0,0.0,0.0,0.0,0.0,0.0,0.0,0.0,0.0,0.0,0.0,0.0,0.0,0.0,0.0,0.0,0.0,0.0,0.0,0.0,0.0,0.0,0.0,0.0,-4.8675,-4.8325,-4.8658,0.0,-4.8326,0.0,0.0,0.0,0.0,0.0,0.0,0.0,0.0,0.0,0.0,0.0,0.0,0.0,0.0,0.0,0.0,0.0,0.0,0.0,0.0,0.0,0.0,0.0,0.0,0.0,0.0,0.0,0.0,0.0,0.0,0.0,0.0,0.0,0.0,0.0,0.0,0.0,0.0,0.0,0.0,0.0,0.0,0.0,0.0,0.0,0.0,0.0,0.0,0.0,0.0,0.0,0.0,0.0,0.0,0.0,0.0,0.0,0.0,0.0,0.0,0.0,0.0,0.0,0.0,0.0,0.0,0.0,0.0,0.0,0.0,0.0,0.0,0.0,0.0,0.0,0.0,0.0,0.0,0.0,0.0,0.0,0.0,0.0,0.0,0.0,0.0,0.0,0.0,0.0,0.0,0.0,0.0,0.0,0.0,0.0,0.0,0.0,0.0,0.0,0.0,0.0,0.0,0.0,0.0,0.0,0.0,0.0,0.0,0.0,0.0,-4.8477,-4.8324,-4.8458,-4.8458,0.0,0.0,0.0,0.0,0.0,0.0,0.0,0.0,0.0,0.0,0.0,0.0,0.0,0.0,0.0,0.0,0.0,0.0,0.0,0.0,0.0,0.0,0.0,0.0,0.0,0.0,0.0,0.0,0.0,0.0,0.0,0.0,0.0,0.0,0.0,0.0,0.0,0.0,0.0,0.0,0.0,0.0,0.0,0.0,0.0,0.0,0.0,0.0,0.0,0.0,0.0,0.0,0.0,0.0,0.0,0.0,0.0,0.0,0.0,0.0,0.0,0.0,0.0,0.0,0.0,0.0,0.0,0.0,0.0,0.0,0.0,0.0,0.0,0.0,0.0,0.0,0.0,0.0,0.0,0.0,0.0,0.0,0.0,0.0,0.0,0.0,0.0,0.0,0.0,0.0,0.0,0.0,0.0,0.0,0.0,0.0,0.0,0.0,0.0,0.0,0.0,0.0,0.0,0.0,0.0,0.0,0.0,0.0,0.0,0.0,-4.842,-4.8458,-4.8477,-4.8382,-4.8324,-4.8324,0.0,0.0,0.0,0.0,0.0,0.0,0.0,0.0,0.0,0.0,0.0,0.0,0.0,0.0,0.0,0.0,0.0,0.0,0.0,0.0,0.0,0.0,0.0,0.0,0.0,0.0,0.0,0.0,0.0,0.0,0.0,0.0,0.0,0.0,0.0,0.0,0.0,0.0,0.0,0.0,0.0,0.0,0.0,0.0,0.0,0.0,0.0,0.0,0.0,0.0,0.0,0.0,0.0,0.0,0.0,0.0,0.0,0.0,0.0,0.0,0.0,0.0,0.0,0.0,0.0,0.0,0.0,0.0,0.0,0.0,0.0,0.0,0.0,0.0,0.0,0.0,0.0,0.0,0.0,0.0,0.0,0.0,0.0,0.0,0.0,0.0,0.0,0.0,0.0,0.0,0.0,0.0,0.0,0.0,0.0,0.0,0.0,0.0,0.0,0.0,0.0,0.0,0.0,0.0,0.0,0.0,0.0,0.0,-4.8325,-4.8693,-4.8863,-4.8864,-4.8495,-4.8324,0.0,0.0,0.0,0.0,0.0,0.0,0.0,0.0,0.0,0.0,0.0,0.0,0.0,0.0,0.0,0.0,0.0,0.0,0.0,0.0,0.0,0.0,0.0,0.0,0.0,0.0,0.0,0.0,0.0,0.0,0.0,0.0,0.0,0.0,0.0,0.0,0.0,0.0,0.0,0.0,0.0,0.0,0.0,0.0,0.0,0.0,0.0,0.0,0.0,0.0,0.0,0.0,0.0,0.0,0.0,0.0,0.0,0.0,0.0,0.0,0.0,0.0,0.0,0.0,0.0,0.0,0.0,0.0,0.0,0.0,0.0,0.0,0.0,0.0,0.0,0.0,0.0,0.0,0.0,0.0,0.0,0.0,0.0,0.0,0.0,0.0,0.0,0.0,0.0,0.0,0.0,0.0,0.0,0.0,0.0,0.0,0.0,0.0,0.0,0.0,0.0,0.0,0.0,0.0,0.0,0.0,0.0,0.0,0.0,-4.8306,-4.8439,-4.8513,-4.8513,-4.8383,-4.8324,0.0,0.0,0.0,0.0,0.0,0.0,0.0,0.0,0.0,0.0,0.0,0.0,0.0,0.0,0.0,0.0,0.0,0.0,0.0,0.0,0.0,0.0,0.0,0.0,0.0,0.0,0.0,0.0,0.0,0.0,0.0,0.0,0.0,0.0,0.0,0.0,0.0,0.0,0.0,0.0,0.0,0.0,0.0,0.0,0.0,0.0,0.0,0.0,0.0,0.0,0.0,0.0,0.0,0.0,0.0,0.0,0.0,0.0,0.0,0.0,0.0,0.0,0.0,0.0,0.0,0.0,0.0,0.0,0.0,0.0,0.0,0.0,0.0,0.0,0.0,0.0,0.0,0.0,0.0,0.0,0.0,0.0,0.0,0.0,0.0,0.0,0.0,0.0,0.0,0.0,0.0,0.0,0.0,0.0,0.0,0.0,0.0,0.0,0.0,0.0,0.0,0.0,0.0,0.0,0.0,0.0,0.0,0.0,0.0,-4.8324,0.0,-4.8324,-4.8324,-4.8324,-4.8324,0.0,0.0,0.0,0.0,0.0,0.0,0.0,0.0,0.0,0.0,0.0,0.0,0.0,0.0,0.0,0.0,0.0,0.0,0.0,0.0,0.0,0.0,0.0,0.0,0.0,0.0,0.0,0.0,0.0,0.0,0.0,0.0,0.0,0.0,0.0,0.0,0.0,0.0,0.0,0.0,0.0,0.0,0.0,0.0,0.0,0.0,0.0,0.0,0.0,0.0,0.0,0.0,0.0,0.0,0.0,0.0,0.0,0.0,0.0,0.0,0.0,0.0,0.0,0.0,0.0,0.0,0.0,0.0,0.0,0.0,0.0,0.0,0.0,0.0,0.0,0.0,0.0,0.0,0.0,0.0,0.0,0.0,0.0,0.0,0.0,0.0,0.0,0.0,0.0,0.0,0.0,0.0,0.0,0.0,0.0,0.0,0.0,0.0,0.0,0.0,0.0,0.0,0.0,0.0,0.0,0.0,0.0,0.0,-4.8324,-4.8324,-4.8324,-4.8324,-4.8324,-4.8324,-4.8324,0.0,0.0,0.0,0.0,0.0,0.0,0.0,0.0,0.0,0.0,0.0,0.0,0.0,0.0,0.0,0.0,0.0,0.0,0.0,0.0,0.0,0.0,0.0,0.0,0.0,0.0,0.0,0.0,0.0,0.0,0.0,0.0,0.0,0.0,0.0,0.0,0.0,0.0,0.0,0.0,0.0,0.0,0.0,0.0,0.0,0.0,0.0,0.0,0.0,0.0,0.0,0.0,0.0,0.0,0.0,0.0,0.0,0.0,0.0,0.0,0.0,0.0,0.0,0.0,0.0,0.0,0.0,0.0,0.0,0.0,0.0,0.0,0.0,0.0,0.0,0.0,0.0,0.0,0.0,0.0,0.0,0.0,0.0,0.0,0.0,0.0,0.0,0.0,0.0,0.0,0.0,0.0,0.0,0.0,0.0,0.0,0.0,0.0,0.0,0.0,0.0,0.0,0.0,0.0,0.0,0.0,0.0,0.0,0.0,-4.8324,-4.8324,-4.8324,-4.8324,-4.8324,-4.8324,0.0,0.0,0.0,0.0,0.0,0.0,0.0,0.0,0.0,0.0,0.0,0.0,0.0,0.0,0.0,0.0,0.0,0.0,0.0,0.0,0.0,0.0,0.0,0.0,0.0,0.0,0.0,0.0,0.0,0.0,0.0,0.0,0.0,0.0,0.0,0.0,0.0,0.0,0.0,0.0,0.0,0.0,0.0,0.0,0.0,0.0,0.0,0.0,0.0,0.0,0.0,0.0,0.0,0.0,0.0,0.0,0.0,0.0,0.0,0.0,0.0,0.0,0.0,0.0,0.0,0.0,0.0,0.0,0.0,0.0,0.0,0.0,0.0,0.0,0.0,0.0,0.0,0.0,0.0,0.0,0.0,0.0,0.0,0.0,0.0,0.0,0.0,0.0,0.0,0.0,0.0,0.0,0.0,0.0,0.0,0.0,0.0,0.0,0.0,0.0,0.0,0.0,0.0,0.0,0.0,0.0,0.0,0.0,0.0,-4.8324,-4.8324,-4.8324,-4.8324,-4.8324,-4.8324,-4.8324,0.0,0.0,0.0,0.0,0.0,0.0,0.0,0.0,0.0,0.0,0.0,0.0,0.0,0.0,0.0,0.0,0.0,0.0,0.0,0.0,0.0,0.0,0.0,0.0,0.0,0.0,0.0,0.0,0.0,0.0,0.0,0.0,0.0,0.0,0.0,0.0,0.0,0.0,0.0,0.0,0.0,0.0,0.0,0.0,0.0,0.0,0.0,0.0,0.0,0.0,0.0,0.0,0.0,0.0,0.0,0.0,0.0,0.0,0.0,0.0,0.0,0.0,0.0,0.0,0.0,0.0,0.0,0.0,0.0,0.0,0.0,0.0,0.0,0.0,0.0,0.0,0.0,0.0,0.0,0.0,0.0,0.0,0.0,0.0,0.0,0.0,0.0,0.0,0.0,0.0,0.0,0.0,0.0,0.0,0.0,0.0,0.0,0.0,0.0,0.0,0.0,0.0,0.0,0.0,0.0,0.0,0.0,0.0,-4.8324,-4.8324,-4.8324,-4.8324,-4.8324,-4.8324,0.0,0.0,0.0,0.0,0.0,0.0,0.0,0.0,0.0,0.0,0.0,0.0,0.0,0.0,0.0,0.0,0.0,0.0,0.0,0.0,0.0,0.0,0.0,0.0,0.0,0.0,0.0,0.0,0.0,0.0,0.0,0.0,0.0,0.0,0.0,0.0,0.0,0.0,0.0,0.0,0.0,0.0,0.0,0.0,0.0,0.0,0.0,0.0,0.0,0.0,0.0,0.0,0.0,0.0,0.0,0.0,0.0,0.0,0.0,0.0,0.0,0.0,0.0,0.0,0.0,0.0,0.0,0.0,0.0,0.0,0.0,0.0,0.0,0.0,0.0,0.0,0.0,0.0,0.0,0.0,0.0,0.0,0.0,0.0,0.0,0.0,0.0,0.0,0.0,0.0,0.0,0.0,0.0,0.0,0.0,0.0,0.0,0.0,0.0,0.0,0.0,0.0,0.0,0.0,0.0,0.0,0.0,0.0,0.0,-4.8324,-4.8324,-4.8324,-4.8324,-4.8324,-4.8324,0.0,0.0,0.0,0.0,0.0,0.0,0.0,0.0,0.0,0.0,0.0,0.0,0.0,0.0,0.0,0.0,0.0,0.0,0.0,0.0,0.0,0.0,0.0,0.0,0.0,0.0,0.0,0.0,0.0,0.0,0.0,0.0,0.0,0.0,0.0,0.0,0.0,0.0,0.0,0.0,0.0,0.0,0.0,0.0,0.0,0.0,0.0,0.0,0.0,0.0,0.0,0.0,0.0,0.0,0.0,0.0,0.0,0.0,0.0,0.0,0.0,0.0,0.0,0.0,0.0,0.0,0.0,0.0,0.0,0.0,0.0,0.0,0.0,0.0,0.0,0.0,0.0,0.0,0.0,0.0,0.0,0.0,0.0,0.0,0.0,0.0,0.0,0.0,0.0,0.0,0.0,0.0,0.0,0.0,0.0,0.0,0.0,0.0,0.0,0.0,0.0,0.0,0.0,0.0,0.0,0.0,0.0,0.0,-4.8324,-4.8324,-4.8324,-4.8324,-4.8324,-4.8324,-4.8324,0.0,0.0,0.0,0.0,0.0,0.0,0.0,0.0,0.0,0.0,0.0,0.0,0.0,0.0,0.0,0.0,0.0,0.0,0.0,0.0,0.0,0.0,0.0,0.0,0.0,0.0,0.0,0.0,0.0,0.0,0.0,0.0,0.0,0.0,0.0,0.0,0.0,0.0,0.0,0.0,0.0,0.0,0.0,0.0,0.0,0.0,0.0,0.0,0.0,0.0,0.0,0.0,0.0,0.0,0.0,0.0,0.0,0.0,0.0,0.0,0.0,0.0,0.0,0.0,0.0,0.0,0.0,0.0,0.0,0.0,0.0,0.0,0.0,0.0,0.0,0.0,0.0,0.0,0.0,0.0,0.0,0.0,0.0,0.0,0.0,0.0,0.0,0.0,0.0,0.0,0.0,0.0,0.0,0.0,0.0,0.0,0.0,0.0,0.0,0.0,0.0,0.0,0.0,0.0,0.0,0.0,0.0,0.0,-4.8324,-4.8324,-4.8324,-4.8324,-4.8324,-4.8324,-4.8324,0.0,0.0,0.0,0.0,0.0,0.0,0.0,0.0,0.0,0.0,0.0,0.0,0.0,0.0,0.0,0.0,0.0,0.0,0.0,0.0,0.0,0.0,0.0,0.0,0.0,0.0,0.0,0.0,0.0,0.0,0.0,0.0,0.0,0.0,0.0,0.0,0.0,0.0,0.0,0.0,0.0,0.0,0.0,0.0,0.0,0.0,0.0,0.0,0.0,0.0,0.0,0.0,0.0,0.0,0.0,0.0,0.0,0.0,0.0,0.0,0.0,0.0,0.0,0.0,0.0,0.0,0.0,0.0,0.0,0.0,0.0,0.0,0.0,0.0,0.0,0.0,0.0,0.0,0.0,0.0,0.0,0.0,0.0,0.0,0.0,0.0,0.0,0.0,0.0,0.0,0.0,0.0,0.0,0.0,0.0,0.0,0.0,0.0,0.0,0.0,0.0,0.0,0.0,0.0,0.0,0.0,0.0,0.0,-4.8324,-4.8324,-4.8324,-4.8324,-4.8324,-4.8324,-4.8324,0.0,0.0,0.0,0.0,0.0,0.0,0.0,0.0,0.0,0.0,0.0,0.0,0.0,0.0,0.0,0.0,0.0,0.0,0.0,0.0,0.0,0.0,0.0,0.0,0.0,0.0,0.0,0.0,0.0,0.0,0.0,0.0,0.0,0.0,0.0,0.0,0.0,0.0,0.0,0.0,0.0,0.0,0.0,0.0,0.0,0.0,0.0,0.0,-4.0967,0.0,0.0,0.0,0.0,0.0,0.0,0.0,0.0,0.0,0.0,0.0,0.0,0.0,0.0,0.0,0.0,0.0,0.0,0.0,0.0,0.0,0.0,0.0,0.0,0.0,0.0,0.0,0.0,0.0,0.0,0.0,0.0,0.0,0.0,0.0,0.0,0.0,0.0,0.0,0.0,0.0,0.0,0.0,0.0,0.0,0.0,0.0,0.0,0.0,0.0,0.0,0.0,0.0,0.0,0.0,0.0,0.0,0.0,0.0,-4.8324,-4.8324,-4.8324,-4.8324,-4.8306,-4.792,-4.7921,0.0,0.0,0.0,0.0,0.0,0.0,0.0,0.0,0.0,0.0,0.0,0.0,0.0,0.0,0.0,0.0,0.0,0.0,0.0,0.0,0.0,0.0,0.0,0.0,0.0,0.0,0.0,0.0,0.0,0.0,0.0,0.0,0.0,0.0,0.0,0.0,0.0,0.0,0.0,0.0,0.0,0.0,0.0,0.0,0.0,0.0,0.0,0.0,0.0,0.0,0.0,0.0,0.0,0.0,0.0,0.0,0.0,0.0,0.0,0.0,0.0,0.0,0.0,0.0,0.0,0.0,0.0,0.0,0.0,0.0,0.0,0.0,0.0,0.0,0.0,0.0,0.0,0.0,0.0,0.0,0.0,0.0,0.0,0.0,0.0,0.0,0.0,0.0,0.0,0.0,0.0,0.0,0.0,0.0,0.0,0.0,0.0,0.0,0.0,0.0,0.0,0.0,0.0,0.0,0.0,0.0,0.0,-4.8324,-4.8324,-4.8324,-4.8324,-4.8251,-4.8122,-4.7461,-4.7351,-4.7902,0.0,0.0,0.0,0.0,0.0,0.0,0.0,0.0,0.0,0.0,0.0,0.0,0.0,0.0,0.0,0.0,0.0,0.0,0.0,0.0,0.0,0.0,0.0,0.0,0.0,0.0,0.0,0.0,0.0,0.0,0.0,0.0,0.0,0.0,0.0,0.0,0.0,0.0,-4.0265,-4.0899,0.0,0.0,0.0,0.0,0.0,0.0,0.0,0.0,-4.2371,0.0,0.0,0.0,0.0,0.0,0.0,0.0,0.0,0.0,0.0,0.0,0.0,0.0,0.0,0.0,0.0,0.0,0.0,0.0,0.0,0.0,0.0,0.0,0.0,0.0,0.0,0.0,0.0,0.0,0.0,0.0,0.0,0.0,0.0,0.0,0.0,0.0,0.0,0.0,0.0,0.0,0.0,0.0,0.0,0.0,0.0,0.0,0.0,0.0,0.0,0.0,0.0,0.0,0.0,0.0,0.0,-4.8324,-4.8324,-4.8324,-4.8324,-4.8324,-4.7994,-4.7333,-4.7168,-4.6837,-4.6324,0.0,0.0,0.0,0.0,0.0,0.0,0.0,0.0,0.0,0.0,0.0,0.0,0.0,0.0,0.0,0.0,0.0,0.0,0.0,0.0,0.0,0.0,0.0,0.0,0.0,0.0,0.0,0.0,0.0,0.0,0.0,0.0,0.0,0.0,0.0,0.0,0.0,0.0,0.0,-4.1644,-4.2371,0.0,0.0,0.0,0.0,0.0,0.0,0.0,0.0,-4.2252,0.0,0.0,0.0,0.0,0.0,0.0,0.0,0.0,0.0,0.0,0.0,0.0,0.0,0.0,0.0,0.0,0.0,0.0,0.0,0.0,0.0,0.0,0.0,0.0,0.0,0.0,0.0,0.0,0.0,0.0,0.0,0.0,0.0,0.0,0.0,0.0,0.0,0.0,0.0,0.0,0.0,0.0,0.0,0.0,0.0,0.0,0.0,0.0,0.0,0.0,0.0,0.0,0.0,0.0,0.0,-4.6434,-4.6452,-4.6434,-4.6452,-4.6838,-4.6673,-4.5883,-4.5443,-4.4913,0.0,0.0,0.0,0.0,0.0,0.0,0.0,0.0,0.0,0.0,0.0,0.0,0.0,0.0,0.0,0.0,0.0,0.0,0.0,0.0,0.0,0.0,0.0,0.0,0.0,0.0,0.0,0.0,0.0,0.0,0.0,0.0,0.0,0.0,0.0,0.0,0.0,0.0,0.0,0.0,-4.2405,-4.3149,-4.391,0.0,0.0,0.0,0.0,0.0,0.0,-4.3707,-4.3344,0.0,0.0,0.0,0.0,0.0,0.0,0.0,0.0,0.0,0.0,0.0,0.0,0.0,0.0,0.0,0.0,0.0,0.0,0.0,0.0,0.0,0.0,0.0,0.0,0.0,0.0,0.0,0.0,0.0,0.0,0.0,0.0,0.0,0.0,0.0,0.0,0.0,0.0,0.0,0.0,0.0,0.0,0.0,0.0,0.0,0.0,0.0,0.0,0.0,0.0,0.0,0.0,0.0,0.0,0.0,-4.447,-4.4599,-4.4709,-4.4728,-4.548,-4.5443,-4.4488,-4.3828,-4.3103,0.0,0.0,0.0,0.0,0.0,0.0,0.0,0.0,0.0,0.0,0.0,0.0,0.0,0.0,0.0,0.0,0.0,0.0,0.0,0.0,0.0,0.0,0.0,0.0,0.0,0.0,0.0,0.0,0.0,0.0,0.0,0.0,0.0,0.0,0.0,0.0,0.0,0.0,0.0,0.0,0.0,-4.3893,-4.4513,-4.4598,0.0,0.0,0.0,0.0,-4.4598,-4.4457,0.0,0.0,0.0,0.0,0.0,0.0,0.0,0.0,0.0,0.0,0.0,0.0,0.0,0.0,0.0,0.0,0.0,0.0,0.0,0.0,0.0,0.0,0.0,0.0,0.0,0.0,0.0,0.0,0.0,0.0,0.0,0.0,0.0,0.0,0.0,0.0,0.0,0.0,0.0,0.0,0.0,0.0,0.0,0.0,0.0,0.0,0.0,0.0,0.0,0.0,0.0,0.0,0.0,0.0,0.0,0.0,-4.3644,-4.436,-4.4709,-4.4746,-4.548,-4.5186,-4.3681,-4.3551,-4.2592,0.0,0.0,0.0,0.0,0.0,0.0,0.0,0.0,0.0,0.0,0.0,0.0,0.0,0.0,0.0,0.0,0.0,0.0,0.0,0.0,0.0,0.0,0.0,0.0,0.0,0.0,0.0,0.0,0.0,0.0,0.0,0.0,0.0,0.0,0.0,0.0,0.0,0.0,0.0,0.0,0.0,-4.4496,-4.4598,-4.4598,-4.4598,0.0,0.0,-4.4598,-4.4598,-4.3977,0.0,0.0,0.0,0.0,0.0,0.0,0.0,0.0,0.0,0.0,0.0,0.0,0.0,0.0,0.0,0.0,0.0,0.0,0.0,0.0,0.0,0.0,0.0,0.0,0.0,0.0,0.0,0.0,0.0,0.0,0.0,0.0,0.0,0.0,0.0,0.0,0.0,0.0,0.0,0.0,0.0,0.0,0.0,0.0,0.0,0.0,0.0,0.0,0.0,0.0,0.0,0.0,0.0,0.0,0.0,-4.1458,-4.1477,-4.1809,-4.2194,-4.2636,-4.2985,-4.2855,-4.2158,-4.1699,-4.0536,0.0,0.0,0.0,0.0,0.0,0.0,0.0,0.0,0.0,0.0,0.0,0.0,0.0,0.0,0.0,0.0,0.0,0.0,0.0,0.0,0.0,0.0,0.0,0.0,0.0,0.0,0.0,0.0,0.0,0.0,0.0,0.0,0.0,0.0,0.0,0.0,0.0,0.0,0.0,0.0,0.0,0.0,-4.4547,-4.4598,0.0,0.0,0.0,-4.444,-4.3948,0.0,0.0,0.0,0.0,0.0,0.0,0.0,0.0,0.0,0.0,0.0,0.0,0.0,0.0,0.0,0.0,0.0,0.0,0.0,0.0,0.0,0.0,0.0,0.0,0.0,0.0,0.0,0.0,0.0,0.0,0.0,0.0,0.0,0.0,0.0,0.0,0.0,0.0,0.0,0.0,0.0,0.0,0.0,0.0,0.0,0.0,0.0,0.0,0.0,0.0,0.0,0.0,0.0,0.0,0.0,0.0,0.0,-3.9588,-3.979,-4.0175,-4.0799,-4.0985,-4.0985,-4.0783,-4.0212,0.0,0.0,0.0,0.0,0.0,0.0,0.0,0.0,0.0,0.0,0.0,0.0,0.0,0.0,0.0,0.0,0.0,0.0,0.0,0.0,0.0,0.0,0.0,0.0,0.0,0.0,0.0,-3.5616,0.0,0.0,0.0,0.0,0.0,0.0,0.0,0.0,0.0,0.0,0.0,0.0,0.0,0.0,-4.391,-4.453,-4.4598,-4.4598,0.0,0.0,-4.4035,-4.3413,-4.2925,-4.2189,0.0,0.0,0.0,0.0,0.0,0.0,0.0,0.0,0.0,0.0,0.0,0.0,0.0,0.0,0.0,0.0,0.0,0.0,0.0,0.0,0.0,0.0,0.0,0.0,0.0,0.0,0.0,0.0,0.0,0.0,0.0,0.0,0.0,0.0,0.0,0.0,0.0,0.0,0.0,0.0,0.0,0.0,0.0,0.0,0.0,0.0,0.0,0.0,0.0,0.0,0.0,0.0,0.0,0.0,0.0,-3.8799,-3.9515,-3.9918,-3.9992,-4.0726,-4.0744,-4.001,-3.9916,-3.9034,0.0,0.0,0.0,0.0,0.0,0.0,0.0,0.0,0.0,0.0,0.0,0.0,0.0,0.0,0.0,0.0,0.0,0.0,0.0,0.0,0.0,0.0,0.0,0.0,0.0,0.0,0.0,0.0,0.0,0.0,0.0,0.0,0.0,0.0,0.0,0.0,0.0,0.0,0.0,0.0,0.0,-4.4547,-4.4598,-4.4598,-4.4598,0.0,0.0,-4.3366,-4.3306,-4.1933,-4.0826,-4.0709,0.0,0.0,0.0,0.0,0.0,0.0,0.0,0.0,0.0,0.0,0.0,0.0,0.0,0.0,0.0,0.0,0.0,0.0,0.0,0.0,0.0,0.0,0.0,0.0,0.0,0.0,0.0,0.0,0.0,0.0,0.0,0.0,0.0,0.0,0.0,0.0,0.0,0.0,0.0,0.0,0.0,0.0,0.0,0.0,0.0,0.0,0.0,0.0,0.0,0.0,0.0,0.0,0.0,-3.8707,-3.8707,-3.9001,-3.9405,-3.9863,-3.9735,-3.9698,-3.9882,-3.9423,-3.8676,0.0,0.0,0.0,0.0,0.0,0.0,0.0,0.0,0.0,0.0,0.0,0.0,0.0,0.0,0.0,0.0,0.0,0.0,0.0,0.0,0.0,0.0,0.0,0.0,0.0,0.0,0.0,0.0,-3.5616,-3.5616,-3.5616,0.0,0.0,0.0,0.0,0.0,0.0,0.0,0.0,0.0,0.0,-4.3532,-4.4479,-4.4976,0.0,0.0,-4.4556,-4.3795,-4.3263,-4.178,-4.0535,-3.999,-3.9646,0.0,0.0,0.0,0.0,0.0,0.0,0.0,0.0,0.0,0.0,0.0,0.0,0.0,0.0,0.0,0.0,0.0,0.0,0.0,0.0,0.0,0.0,0.0,0.0,0.0,0.0,0.0,0.0,0.0,0.0,0.0,0.0,0.0,0.0,0.0,0.0,0.0,0.0,0.0,0.0,0.0,0.0,0.0,0.0,0.0,0.0,0.0,0.0,0.0,0.0,0.0,0.0,-3.8707,-3.8707,-3.8707,-3.8964,-3.9533,-3.9001,-3.8964,-3.9496,-3.9001,-3.8449,0.0,0.0,0.0,0.0,0.0,0.0,0.0,0.0,0.0,0.0,0.0,0.0,0.0,0.0,0.0,0.0,0.0,0.0,0.0,0.0,0.0,0.0,0.0,0.0,0.0,0.0,0.0,0.0,-3.5616,-3.5616,-3.5616,0.0,0.0,0.0,0.0,0.0,0.0,0.0,0.0,0.0,0.0,-4.32,-4.4716,-4.5365,-4.5684,-4.5618,-4.4861,-4.3977,-4.3108,-4.1641,-4.0385,-3.9802,0.0,0.0,0.0,0.0,0.0,0.0,0.0,0.0,0.0,0.0,0.0,0.0,0.0,0.0,0.0,0.0,0.0,0.0,0.0,0.0,0.0,0.0,0.0,0.0,0.0,0.0,0.0,0.0,0.0,0.0,-4.6656,0.0,0.0,0.0,0.0,0.0,0.0,0.0,0.0,0.0,0.0,0.0,0.0,0.0,0.0,0.0,0.0,0.0,0.0,0.0,0.0,0.0,0.0,-3.8707,-3.8707,-3.8707,-3.8726,-3.8744,-3.8707,-3.8726,-3.8744,-3.8707,-3.843,-3.7893,0.0,0.0,0.0,0.0,0.0,0.0,0.0,0.0,0.0,0.0,0.0,0.0,0.0,0.0,0.0,0.0,0.0,0.0,0.0,0.0,0.0,0.0,0.0,0.0,0.0,0.0,-3.5616,-3.5616,-3.5616,0.0,0.0,0.0,0.0,0.0,0.0,0.0,0.0,0.0,0.0,-4.2929,-4.3944,-4.5449,-4.5703,-4.5677,-4.5458,-4.4675,-4.3788,-4.2914,-4.1419,-4.0419,0.0,0.0,0.0,0.0,0.0,0.0,0.0,0.0,0.0,0.0,0.0,0.0,0.0,0.0,0.0,0.0,0.0,0.0,0.0,0.0,0.0,0.0,0.0,0.0,0.0,0.0,0.0,-4.4778,-4.4759,0.0,0.0,0.0,0.0,0.0,0.0,0.0,0.0,0.0,0.0,0.0,-3.9937,-3.9657,0.0,0.0,0.0,0.0,0.0,0.0,0.0,0.0,0.0,0.0,0.0,0.0,-3.8707,-3.8707,-3.8707,-3.8707,-3.8707,-3.8707,-3.8707,-3.8707,-3.8707,-3.8302,-3.7469,0.0,0.0,0.0,0.0,0.0,0.0,0.0,0.0,0.0,0.0,0.0,0.0,0.0,0.0,0.0,0.0,0.0,0.0,0.0,0.0,0.0,0.0,0.0,0.0,0.0,-3.5616,0.0,0.0,0.0,0.0,0.0,0.0,0.0,0.0,0.0,0.0,0.0,-4.0637,-4.21,-4.2946,-4.3933,-4.55,-4.6126,-4.6354,0.0,0.0,0.0,0.0,0.0,0.0,0.0,0.0,0.0,0.0,0.0,0.0,0.0,0.0,-3.8601,-3.8153,-3.7539,-3.709,-3.709,0.0,0.0,0.0,0.0,0.0,0.0,0.0,0.0,0.0,0.0,0.0,0.0,0.0,0.0,-4.3085,0.0,-4.3085,0.0,0.0,0.0,0.0,0.0,0.0,0.0,0.0,-4.024,-3.9871,-3.9282,-3.9165,-3.8943,0.0,-3.8707,-3.8707,0.0,0.0,0.0,0.0,0.0,0.0,0.0,0.0,-3.8707,-3.8707,-3.8707,-3.8707,-3.8707,-3.8707,-3.8707,-3.8707,-3.8512,-3.8032,-3.7247,-3.6684,-3.6191,0.0,0.0,0.0,0.0,0.0,0.0,0.0,0.0,0.0,0.0,0.0,0.0,0.0,0.0,0.0,0.0,0.0,0.0,0.0,0.0,0.0,0.0,0.0,-3.5616,0.0,0.0,0.0,0.0,0.0,0.0,0.0,0.0,0.0,-3.821,-3.9343,-4.0849,-4.2811,-4.3504,-4.4468,-4.6227,0.0,0.0,0.0,0.0,0.0,0.0,0.0,-4.1752,-4.1752,-4.1175,-4.0666,-4.0442,-4.0038,-3.9679,-3.9454,0.0,0.0,-3.8826,-3.8212,-3.7749,-3.7749,-3.7569,-3.7404,-3.7404,-3.7404,-3.701,0.0,0.0,0.0,0.0,0.0,0.0,0.0,0.0,-4.2989,-4.2951,0.0,-4.2951,0.0,0.0,0.0,0.0,0.0,-3.995,0.0,0.0,-4.009,-3.9912,-3.9587,-3.9269,-3.8961,-3.8723,-3.8707,-3.8707,-3.8707,-3.8707,0.0,0.0,0.0,0.0,0.0,0.0,-3.8707,-3.8707,-3.8707,-3.8707,-3.8707,-3.8707,-3.8692,-3.8643,-3.813,-3.7596,-3.7156,-3.6556,-3.5727,-3.4532,-3.4477,0.0,0.0,0.0,0.0,0.0,0.0,0.0,0.0,0.0,0.0,0.0,0.0,0.0,0.0,0.0,0.0,0.0,0.0,0.0,0.0,-3.5126,0.0,0.0,0.0,0.0,0.0,0.0,0.0,0.0,0.0,0.0,-3.9157,-3.9808,-4.1297,-4.4209,0.0,0.0,0.0,0.0,-4.6421,-4.6166,-4.5395,-4.4472,-4.3472,-4.2791,-4.2425,-4.2425,0.0,0.0,-4.0502,-4.0397,-4.0172,-3.9508,-3.9388,-3.9388,-3.9373,-3.8856,-3.8437,-3.8407,-3.7958,-3.7509,-3.746,-3.7495,-3.6899,-4.5282,0.0,0.0,0.0,0.0,-4.2181,-4.1816,-4.1247,-4.1247,-4.1227,-4.1266,-4.1239,0.0,0.0,0.0,0.0,0.0,0.0,-3.9861,-4.0081,-3.984,-3.9709,-3.9587,-3.9251,-3.8943,-3.8689,-3.8707,-3.8707,-3.8707,-3.8707,-3.8707,-3.8707,0.0,0.0,0.0,0.0,-3.8707,-3.8707,-3.8707,-3.8707,-3.8707,-3.8707,-3.853,-3.8132,-3.7111,-3.6323,-3.5863,-3.4816,-3.41,-3.3728,-3.3728,0.0,0.0,0.0,0.0,0.0,0.0,0.0,0.0,0.0,0.0,0.0,0.0,0.0,0.0,0.0,0.0,0.0,0.0,0.0,-3.3711,-3.4387,-3.481,0.0,0.0,0.0,0.0,0.0,0.0,0.0,0.0,0.0,-4.1221,-4.1999,-4.298,0.0,0.0,-4.574,-4.6768,-4.668,-4.6205,-4.5337,-4.4983,0.0,-4.3433,-4.318,-4.306,-4.306,-4.2506,-4.1752,-4.0591,-4.0412,-4.0187,-3.9544,-3.9388,-3.9388,-3.9373,-3.926,-3.9125,-3.911,-3.896,-3.882,-3.8805,-3.8258,-3.7504,-4.6565,-4.4307,-4.3893,-4.3395,-4.2833,-4.2471,-4.1816,-4.1008,-4.1008,-4.0816,-4.0496,-4.0496,-4.0496,-4.0496,-4.0496,0.0,0.0,0.0,-4.0053,-4.0241,-3.9789,-3.9611,-3.9576,-3.9144,-3.8855,-3.8707,-3.8707,-3.8707,-3.8707,-3.8707,-3.8707,-3.8707,0.0,0.0,-3.8707,-3.8707,-3.8707,-3.8707,-3.8707,-3.8707,-3.8707,-3.8377,-3.7924,-3.7289,-3.6319,-3.5581,-3.51,-3.4335,-3.3613,-3.3008,-3.3155,-3.2818,0.0,0.0,0.0,0.0,0.0,0.0,0.0,0.0,0.0,0.0,0.0,-3.187,-3.1853,0.0,0.0,0.0,-3.2527,-3.3203,-3.3778,-3.4235,0.0,0.0,0.0,0.0,0.0,0.0,0.0,-3.8244,-3.9884,-4.1424,-4.2591,-4.3386,-4.4265,-4.5343,-4.5855,-4.6337,-4.6863,0.0,-4.6003,-4.4974,-4.4472,-4.3989,-4.3409,-4.3305,-4.3305,-4.3305,-4.2806,-4.2051,-4.0995,-4.0591,-4.0187,-3.9619,-3.9388,-3.9388,-3.9388,-3.9388,-3.9388,-3.9388,-3.9388,-3.9388,-3.9388,-3.887,-3.8234,-4.8061,-4.6323,-4.5279,-4.4748,-4.4531,-4.3728,-4.2912,-4.2104,-4.2027,-4.1508,-4.0727,-4.0612,-4.0573,-4.0496,-4.0496,0.0,-4.0496,-4.0496,-4.0489,-4.0481,-3.9874,-3.9611,-3.9576,-3.8984,-3.8707,-3.8707,-3.8707,-3.8707,-3.8707,-3.8707,-3.8707,-3.8707,-3.8707,-3.867,-3.8615,-3.8597,-3.8597,-3.8597,-3.8597,-3.8615,-3.8597,-3.7823,-3.7037,-3.6263,-3.5701,-3.5175,-3.473,-3.4571,-3.3856,-3.2443,-3.2706,-3.2399,-3.1322,0.0,0.0,0.0,0.0,0.0,0.0,0.0,0.0,0.0,0.0,0.0,0.0,0.0,0.0,0.0,-3.187,0.0,-3.4184,-3.4404,0.0,0.0,0.0,-3.565,-3.5769,-3.707,-3.8311,-3.9157,0.0,0.0,-4.3409,-4.413,-4.5139,-4.6515,-4.6752,-4.6928,-4.7342,-4.6666,-4.5834,-4.4812,-4.3888,-4.3344,-4.329,-4.3305,-4.326,-4.3155,-4.2761,-4.2156,-4.1384,-4.0801,-4.0172,-3.9493,-3.9388,-3.9388,-3.9388,-3.9388,-3.9388,-3.9388,-3.9388,-3.9388,-3.9388,-3.9228,-3.862,-5.0175,-4.9136,-4.8133,-4.6857,-4.5544,-4.5852,-4.5509,-4.4662,-4.3989,-4.3239,-4.2431,-4.1777,-4.1123,-4.0496,-4.0496,-4.0496,-4.0496,-4.0496,-4.0496,-4.0446,-3.9874,-3.9611,-3.9576,-3.8984,-3.8707,-3.8707,-3.8707,-3.8707,-3.8707,-3.8707,-3.8707,-3.8707,-3.8707,-3.8395,-3.7823,-3.7786,-3.7786,-3.7786,-3.7804,-3.7786,-3.7768,-3.7015,-3.6303,-3.5727,-3.5035,-3.442,-3.3898,-3.3333,-3.2842,-3.2459,-3.2211,-3.1977,-3.1747,-3.1387,0.0,0.0,0.0,0.0,0.0,0.0,0.0,0.0,0.0,-3.119,-3.119,0.0,-3.119,0.0,-3.187,-3.2446,-3.2818,-3.385,0.0,0.0,-3.5245,-3.6056,-3.7205,-3.8176,-3.9445,-4.1288,-4.2472,-4.3436,-4.4225,-4.4496,-4.4953,-4.5838,-4.6447,-4.6561,-4.584,-4.6044,-4.5582,-4.3997,-4.3427,-4.329,-4.326,-4.3305,-4.3095,-4.2671,-4.247,-4.2006,-4.0831,-4.0516,-4.0187,-3.9574,-3.9388,-3.9388,-3.9388,-3.9388,-3.9388,-3.9388,-3.9388,-3.9388,-3.9388,-3.8782,-3.8271,-5.0391,-4.957,-4.8942,-4.8074,-4.7053,-4.6607,-4.5891,-4.4998,-4.4489,-4.3835,-4.3066,-4.2604,-4.2104,-4.1651,-4.167,-4.1431,-4.1085,-4.1066,-4.0873,-4.0492,-3.9874,-3.9611,-3.9576,-3.8984,-3.8707,-3.8707,-3.8707,-3.8707,-3.8707,-3.8707,-3.8707,-3.8707,-3.8707,-3.8303,-3.7547,-3.786,-3.8043,-3.8043,-3.7676,-3.7327,-3.696,-3.6138,-3.5327,-3.4499,-3.4268,-3.3818,-3.312,-3.3071,-3.2791,-3.223,-3.2127,-3.195,-3.1598,-3.1329,-3.119,0.0,0.0,0.0,0.0,0.0,0.0,0.0,0.0,0.0,0.0,0.0,-3.1362,-3.1667,-3.2056,-3.2564,-3.3224,-3.4015,-3.4624,-3.4962,-3.5673,-3.6603,-3.7787,-3.9123,-4.0578,-4.21,-4.325,-4.4096,-4.4547,-4.4598,-4.4592,-4.4633,-4.5273,-4.5469,-4.4861,-4.5037,-4.4595,-4.2779,-4.2462,-4.2476,-4.2462,-4.2462,-4.2357,-4.2036,-4.1707,-4.122,-4.0531,-4.0142,-3.9828,-3.9514,-3.9388,-3.9388,-3.9388,-3.9388,-3.9388,-3.9388,-3.9388,-3.9388,-3.9388,-3.8943,-3.8634,-4.9844,-4.9062,-4.8808,-4.8649,-4.8399,-4.6576,-4.5438,-4.4801,-4.4699,-4.4105,-4.3239,-4.3143,-4.3085,-4.3085,-4.3085,-4.2681,-4.1981,-4.1989,-4.1508,-4.0665,-4.0086,-3.9739,-3.9576,-3.9008,-3.8735,-3.8707,-3.8707,-3.8707,-3.8707,-3.8707,-3.8707,-3.8707,-3.8707,-3.8358,-3.7713,-3.8358,-3.8637,-3.8542,-3.7768,-3.6997,-3.6285,-3.5353,-3.4351,-3.3371,-3.3625,-3.3447,-3.2729,-3.3404,-3.3266,-3.2144,-3.235,-3.2144,-3.1426,-3.1269,-3.119,0.0,-3.119,0.0,0.0,0.0,0.0,0.0,0.0,0.0,0.0,-3.1275,-3.1596,-3.2259,-3.2479,-3.3106,-3.4392,-3.4573,-3.4945,-3.5667,-3.6366,-3.7178,-3.8244,-4.0037,-4.1559,-4.2489,-4.3785,-4.4598,-4.4598,-4.4598,-4.4281,-4.3598,-4.3924,-4.4098,-4.3727,-4.3793,-4.3361,-4.1618,-4.1422,-4.1587,-4.1504,-4.1497,-4.1414,-4.125,-4.0861,-4.0382,-4.0277,-3.9813,-3.9403,-3.9388,-3.9388,-3.9388,-3.9388,-3.9388,-3.9388,-3.9388,-3.9388,-3.9388,-3.9388,-3.9337,-3.9068,-5.0703,-4.9883,-4.9159,-4.8406,-4.755,-4.6376,-4.6515,-4.748,-4.6741,-4.5528,-4.4047,-4.3374,-4.3085,-4.3085,-4.3085,-4.3008,-4.2854,-4.2854,-4.2393,-4.1558,-4.1151,-4.0488,-3.9606,-3.9205,-3.8909,-3.8704,-3.8707,-3.8707,-3.8707,-3.8707,-3.8707,-3.8707,-3.8707,-3.8615,-3.8487,0.0,0.0,0.0,-3.6942,-3.645,-3.6266,-3.4816,-3.3927,-3.3694,-3.3766,0.0,-3.3578,-3.3721,-3.3675,-3.3415,-3.2822,0.0,0.0,0.0,0.0,0.0,0.0,0.0,0.0,0.0,0.0,0.0,-3.119,-3.119,-3.1207,-3.1752,-3.2158,-3.231,-3.3376,-3.4184,-3.4472,-3.5064,-3.5684,-3.6451,-3.6711,-3.7777,-4.0223,-4.0967,-4.1931,-4.3921,-4.4445,-4.4598,-4.4598,-4.4598,-4.4253,-4.3472,-4.3421,-4.2905,-4.1588,-4.2356,-4.2582,-4.1633,-4.1332,-4.1392,-4.1422,-4.1377,-4.1085,-4.0726,-4.0516,-4.0202,-3.9738,-3.9544,-3.9388,-3.9388,-3.9388,-3.9388,-3.9388,-3.9388,-3.9388,-3.9388,-3.9388,-3.9388,-3.9388,-3.9388,-3.9337,-5.1172,0.0,-4.9883,-4.9002,0.0,-4.7064,-4.6815,-4.7072,-4.6499,-4.5759,-4.4921,-4.4528,-4.4335,-4.4344,-4.4335,-4.4105,-4.3682,-4.3701,-4.3239,-4.2415,-4.1657,-4.0993,-4.0398,-3.9514,-3.9036,-3.888,-3.8762,-3.8707,-3.8707,-3.8707,-3.8707,-3.8707,-3.8707,-3.8707,-3.8707,-3.8707,-3.8505,-3.8083,-3.6909,-3.6285,-3.6229,-3.4651,-3.3707,-3.3522,-3.3707,0.0,0.0,0.0,0.0,0.0,0.0,0.0,0.0,-3.1447,0.0,-3.119,-3.119,-3.119,-3.119,-3.119,-3.119,-3.119,-3.1549,-3.1752,-3.1732,-3.209,-3.2598,-3.3326,-3.4104,-3.4641,-3.503,-3.574,-3.6349,-3.6778,-3.7432,-3.8674,-4.0333,-4.0984,-4.1948,-4.3589,-4.3995,-4.413,-4.4547,-4.4598,-4.4224,-4.3472,-4.3306,-4.2693,-4.116,-4.1298,-4.1427,-4.0581,-4.0427,-4.0397,-4.0412,-4.0412,-4.0352,-3.9993,-3.9918,-3.9798,-3.9448,-3.9388,-3.9388,-3.9388,-3.9388,-3.9388,-3.9388,-3.9388,-3.9388,-3.9388,-3.9388,-3.9388,-3.9388,-3.9388,-3.9388,-5.1387,-5.1328,-5.0547,-4.9687,-4.8808,-4.7831,-4.6823,-4.5872,0.0,0.0,0.0,-4.5594,-4.5594,-4.5594,-4.5594,-4.521,-4.4528,-4.4536,-4.4105,-4.3269,-4.2297,-4.1647,-4.1254,-4.0054,-3.9369,-3.9178,-3.8913,-3.8777,-3.8762,-3.8719,-3.8707,-3.8707,-3.8707,-3.8707,-3.8707,-3.8707,-3.8707,-3.8634,-3.7257,-3.6431,-3.6266,-3.4798,-3.3799,-3.3302,-3.3638,-3.3652,-3.3335,-3.3638,-3.3433,-3.2681,-3.255,-3.2144,-3.137,-3.1232,-3.119,-3.119,-3.119,-3.119,-3.119,-3.119,-3.1258,-3.1396,-3.2073,-3.2446,-3.231,-3.2547,-3.319,-3.4409,-3.4607,-3.5013,-3.5735,-3.6383,-3.6931,-3.7168,-3.8261,-3.9309,-4.0214,-4.0815,-4.1796,-4.3071,-4.3426,-4.3707,-4.4479,-4.4598,-4.4253,-4.3532,-4.3306,-4.2769,-4.128,-4.0684,-4.0307,-3.9673,-3.9568,-3.9448,-3.9418,-3.9463,-3.9388,-3.9463,-3.9418,-3.9388,-3.9388,-3.9388,-3.9388,-3.9388,-3.9388,-3.9388,-3.9388,-3.9388,-3.9388,-3.9388,-3.9388,-3.9388,-3.9388,-3.9388,-3.9388,-5.1387,-5.1328,-5.0527,-4.9707,-4.8828,-4.781,-4.6808,-4.5822,-4.5665,-4.5594,-4.5594,-4.5594,-4.5594,-4.5594,-4.5594,-4.5537,-4.5421,-4.5421,-4.496,-4.4143,-4.3964,-4.2965,-4.1331,-4.1089,-4.0482,-3.9566,-3.9223,-3.9049,-3.9008,-3.88,-3.8707,-3.8707,-3.8707,-3.8707,-3.8707,-3.8707,-3.8707,-3.8689,-3.7823,-3.6997,-3.6303,-3.5316,-3.4477,-3.3776,-3.3762,-3.3775,-3.3721,-3.3762,-3.3578,-3.3121,-3.2731,-3.2265,-3.1734,-3.1389,-3.119,-3.119,-3.119,-3.119,-3.119,-3.119,-3.1461,-3.2107,-3.2814,-3.2983,-3.2412,-3.3478,-3.4269,-3.4506,-3.5081,-3.5774,-3.6518,-3.6761,-3.7388,-3.8447,-3.8853,-3.9529,-4.0781,-4.1068,-4.1711,-4.3098,-4.342,-4.369,-4.435,-4.4581,-4.4281,-4.3562,-4.3336,-4.2909,-4.1901,-4.0516,-3.9646,-3.9424,-3.9388,-3.9388,-3.9388,-3.9388,-3.9388,-3.9388,-3.9388,-3.9388,-3.9388,-3.9388,-3.9388,-3.9388,-3.9388,-3.9388,-3.9388,-3.9388,-3.9388,-3.9388,-3.9388,-3.9388,-3.9388,-3.9388,-3.9388,-5.1387,-5.1367,-5.1016,-5.0371,-4.9492,-4.8026,-4.681,-4.5864,-4.5756,-4.5665,-4.5594,-4.5594,-4.5594,-4.5594,-4.5594,-4.5594,-4.5594,-4.5594,-4.5383,-4.4979,-4.4509,-4.3822,-4.287,-4.1829,-4.1023,-4.0477,-3.9729,-3.9383,-3.9339,-3.9068,-3.8923,-3.8909,-3.8777,-3.8707,-3.8707,-3.8707,-3.8707,-3.8689,-3.79,-3.7327,-3.6942,-3.5683,-3.4821,-3.4468,-3.4064,-3.3807,-3.3807,-3.3807,-3.3606,-3.3214,-3.2745,-3.2299,-3.1825,-3.1411,-3.119,-3.119,-3.119,-3.119,-3.119,-3.1582,-3.2104,-3.2848,-3.3575,-3.3863,-3.3525,-3.41,-3.4658,-3.5081,-3.5791,-3.6383,-3.6795,-3.7523,-3.8261,-3.892,-3.9343,-3.9876,-4.0451,-4.0595,-4.1035,-4.2049,-4.2574,-4.3081,-4.3859,-4.4316,-4.4497,-4.4035,-4.3651,-4.3139,-4.2754,-4.1642,-4.0638,-4.0205,-4.008,-3.99,-3.9517,-3.9388,-3.9388,-3.9388,-3.9388,-3.9388,-3.9388,-3.9388,-3.9388,-3.9388,-3.9388,-3.9388,-3.9388,-3.9388,-3.9388,-3.9388,-3.9388,-3.9388,-3.9388,-3.9388,-3.9388,-5.1387,-5.1387,-5.1387,-5.0937,-5.0039,-4.8182,-4.6958,-4.624,-4.5927,-4.574,-4.564,-4.562,-4.5594,-4.5594,-4.5594,-4.5594,-4.5594,-4.5594,-4.5594,-4.5518,-4.4921,-4.4489,-4.4165,-4.2651,-4.1781,-4.1371,-4.0422,-3.9902,-3.9687,-3.9383,-3.916,-3.9085,-3.888,-3.8762,-3.8707,-3.8707,-3.8707,-3.867,-3.8083,-3.7676,-3.7456,-3.6211,-3.5389,-3.4986,-3.4399,-3.399,-3.3825,-3.3807,-3.3606,-3.3229,-3.284,-3.2417,-3.1843,-3.1507,-3.1274,-3.1247,-3.136,-3.1529,-3.1715,-3.2378,-3.3055,-3.3609,-3.432,-3.4742,-3.4759,-3.4759,-3.4979,-3.5566,-3.6299,-3.6846,-3.7202,-3.8176,-3.9056,-3.9225,-3.9757,-4.0079,-4.0113,-4.0113,-4.04,-4.1119,-4.1847,-4.2591,-4.3318,-4.4096,-4.4536,-4.4468,-4.4006,-4.3621,-4.3486,-4.297,-4.2268,-4.1528,-4.1147,-4.0792,-4.0095,-3.9844,-3.9773,-3.9717,-3.9517,-3.9424,-3.9388,-3.9388,-3.9388,-3.9388,-3.9388,-3.9388,-3.9388,-3.9388,-3.9388,-3.9388,-3.9388,-3.9388,-3.9388,-3.9388,-3.9388,-5.1387,-5.1387,-5.1387,-5.0937,-5.0019,-4.8221,-4.7357,-4.712,-4.623,-4.5796,-4.5763,-4.564,-4.5594,-4.5594,-4.5594,-4.5594,-4.5594,-4.5594,-4.5594,-4.5594,-4.5518,-4.5075,-4.4374,-4.406,-4.3225,-4.1903,-4.1323,-4.0719,-4.0147,-3.972,-3.9401,-3.912,-3.9072,-3.8933,-3.8735,-3.8707,-3.8707,-3.8707,-3.8634,-3.823,-3.7547,-3.7364,-3.6541,-3.5041,-3.4917,-3.4546,-3.3899,-3.3807,-3.3625,-3.3243,-3.3151,-3.2727,-3.1933,-3.1771,-3.1601,-3.13,-3.1836,-3.2496,-3.3152,-3.3863,-3.429,-3.4421,-3.5064,-3.5464,-3.5464,-3.5481,-3.5498,-3.5752,-3.6349,-3.7117,-3.7753,-3.8565,-3.9292,-3.9842,-4.0028,-4.0113,-4.0113,-4.0113,-4.04,-4.1119,-4.1745,-4.2574,-4.3234,-4.4045,-4.4564,-4.4598,-4.444,-4.431,-4.431,-4.4224,-4.3827,-4.3108,-4.2458,-4.1933,-4.1576,-4.1046,-4.0656,-4.0519,-3.992,-3.961,-3.9553,-3.9481,-3.9388,-3.9388,-3.9388,-3.9388,-3.9388,-3.9388,-3.9388,-3.9388,-3.9388,-3.9388,-3.9388,-3.9388,-3.9388,-5.1387,-5.1387,-5.1387,-5.0937,-5.0058,-4.8824,-4.7933,-4.7335,-4.6397,-4.5933,-4.5845,-4.575,-4.568,-4.5594,-4.5594,-4.5594,-4.5594,-4.5594,-4.5594,-4.5594,-4.5594,-4.5421,-4.5066,-4.4509,-4.3893,-4.3201,-4.2147,-4.1431,-4.1004,-4.03,-3.9712,-3.9408,-3.9199,-3.9049,-3.8919,-3.8773,-3.8707,-3.8707,-3.8707,-3.8524,-3.8193,-3.7749,-3.7199,-3.6468,-3.5536,-3.4876,-3.4491,-3.4064,-3.3721,-3.355,-3.3317,-3.3029,-3.2647,-3.2564,-3.2442,-3.2303,-3.2709,-3.3271,-3.3998,-3.4336,-3.4692,-3.5131,-3.5414,-3.56,-3.5616,-3.5616,-3.5769,-3.6315,-3.7009,-3.7753,-3.8481,-3.9208,-3.9791,-4.0045,-4.0113,-4.0113,-4.0113,-4.0113,-4.0248,-4.0544,-4.1204,-4.1931,-4.2726,-4.3809,-4.4513,-4.4598,-4.4598,-4.4598,-4.4598,-4.4598,-4.4457,-4.4121,-4.3739,-4.3092,-4.2316,-4.1772,-4.1511,-4.1346,-4.074,-4.0185,-4.0115,-3.9631,-3.9388,-3.9424,-3.9445,-3.9445,-3.9388,-3.9388,-3.9388,-3.9388,-3.9388,-3.9388,-3.9388,-3.9388,-3.9388,-5.1387,-5.1387,-5.1387,-5.1074,-5.0469,-4.9629,-4.8708,-4.7751,-4.6839,-4.6276,-4.5955,-4.5836,-4.5747,-4.5648,-4.562,-4.5594,-4.5594,-4.5594,-4.5594,-4.5594,-4.5594,-4.5594,-4.5537,-4.497,-4.4509,-4.4143,-4.3085,-4.2269,-4.1761,-4.0724,-4.0062,-3.9754,-3.9486,-3.9295,-3.9099,-3.8894,-3.8777,-3.8707,-3.8707,-3.8707,-3.8615,-3.812,-3.7731,-3.7419,-3.634,-3.5573,-3.5353,-3.4578,-3.4266,-3.4486,-3.3978,-3.3737,-3.3833,-3.3771,-3.3682,-3.3625,-3.3666,-3.4032,-3.4742,-3.481,-3.503,-3.5532,-3.5616,-3.5616,-3.565,-3.5785,-3.6282,-3.7026,-3.7787,-3.8447,-3.8937,-3.9673,-4.0079,-4.0113,-4.0113,-4.0113,-4.0113,-4.0113,-4.0113,-4.0163,-4.0815,-4.1576,-4.2557,-4.3741,-4.4598,-4.4598,-4.4598,-4.4598,-4.4598,-4.4598,-4.457,-4.4598,-4.457,-4.4093,-4.2953,-4.2489,-4.2426,-4.2189,-4.1642,-4.1095,-4.1046,-4.0447,-3.99,-4.0185,-3.99,-3.9574,-3.9424,-3.9388,-3.9388,-3.9388,-3.9388,-3.9388,-3.9388,-3.9388,-3.9388,-5.1387,-5.1387,-5.1387,-5.1367,-5.1269,-5.0449,-4.9648,-4.8749,-4.7733,-4.6869,-4.6167,-4.589,-4.5803,-4.5776,-4.5665,-4.5594,-4.5594,-4.5594,-4.5594,-4.5594,-4.5594,-4.5594,-4.5594,-4.5556,-4.5114,-4.4432,-4.4124,-4.3239,-4.1808,-4.0934,-4.0347,-4.0091,-4.0012,-3.9712,-3.9225,-3.9125,-3.8961,-3.8747,-3.8735,-3.8707,-3.8707,-3.8652,-3.8248,-3.7621,-3.7401,-3.6942,-3.6248,-3.5408,-3.5298,-3.6119,-3.5343,-3.5057,-3.5408,-3.5457,-3.533,-3.5131,-3.4711,-3.4781,-3.538,-3.5498,-3.5532,-3.56,-3.5616,-3.5616,-3.5633,-3.6248,-3.6941,-3.777,-3.843,-3.892,-3.9123,-3.9706,-4.0096,-4.0113,-4.0113,-4.0113,-4.0113,-4.0113,-4.0113,-4.0197,-4.0747,-4.1694,-4.3071,-4.4079,-4.4496,-4.4581,-4.4598,-4.4598,-4.4598,-4.4598,-4.4598,-4.4598,-4.4598,-4.4542,-4.4384,-4.3739,-4.3306,-4.3078,-4.2583,-4.1933,-4.1933,-4.1836,-4.1346,-4.0894,-4.0603,-4.0185,-3.9646,-3.9388,-3.9388,-3.9388,-3.9388,-3.9388,-3.9388,-3.9373,-3.9269,-5.1387,-5.1387,-5.1387,-5.1387,-5.1308,-5.0547,-5.0019,-4.9609,-4.8142,-4.7358,-4.6961,-4.6312,-4.5946,-4.5861,-4.5764,-4.5688,-4.5603,-4.5594,-4.5594,-4.5594,-4.5594,-4.5594,-4.5594,-4.5594,-4.546,-4.5105,-4.4566,-4.3431,-4.195,-4.147,-4.0995,-4.0405,-4.0177,-3.9953,-3.9754,-3.951,-3.9269,-3.8985,-3.8961,-3.8884,-3.8719,-3.8707,-3.856,-3.8248,-3.7749,-3.7382,-3.707,-3.6266,-3.5991,-3.6285,-3.5991,-3.5897,-3.6042,-3.6216,-3.6203,-3.602,-3.5832,-3.5677,-3.5616,-3.5616,-3.5616,-3.5616,-3.5616,-3.5616,-3.5735,-3.6332,-3.7117,-3.7838,-3.8565,-3.914,-3.9631,-3.996,-4.0113,-4.0113,-4.0113,-4.0113,-4.0113,-4.0113,-4.0113,-4.0214,-4.0747,-4.161,-4.2557,-4.3369,-4.4012,-4.4496,-4.4598,-4.4598,-4.4598,-4.4598,-4.4598,-4.4598,-4.4598,-4.4598,-4.4598,-4.4384,-4.4093,-4.3873,-4.3486,-4.3,-4.2816,-4.2395,-4.1869,-4.1642,-4.1313,-4.0792,-4.022,-3.9538,-3.9502,-3.9388,-3.9388,-3.9239,-3.9388,-3.905,-3.8841,-5.1387,-5.1387,-5.1387,-5.1387,-5.1348,-5.082,-5.043,-5.0078,-4.8965,-4.8281,-4.7871,-4.697,-4.6454,-4.6325,-4.5972,-4.5761,-4.5676,-4.561,-4.5594,-4.5594,-4.5594,-4.5594,-4.5594,-4.5594,-4.5594,-4.546,-4.4729,-4.3662,-4.2643,-4.2066,-4.1508,-4.0954,-4.0466,-4.0157,-4.0081,-3.987,-3.9618,-3.9314,-3.9147,-3.8994,-3.8844,-3.8732,-3.8707,-3.8634,-3.8157,-3.7896,-3.7863,-3.7125,-3.6835,-3.7,-3.6817,-3.6813,-3.7063,-3.7094,-3.7041,-3.6893,-3.6726,-3.6419,-3.5946,-3.5854,-3.5766,-3.5622,-3.5616,-3.5616,-3.5667,-3.6552,-3.7347,-3.7956,-3.8819,-3.9605,-3.9943,-4.0096,-4.0113,-4.0113,-4.0113,-4.0113,-4.0113,-4.0113,-4.0113,-4.0197,-4.0747,-4.1474,-4.2202,-4.2963,-4.3741,-4.4468,-4.4598,-4.4598,-4.4598,-4.4598,-4.4598,-4.4598,-4.4598,-4.4598,-4.4598,-4.4468,-4.4412,-4.4253,-4.4167,-4.3814,-4.3515,-4.3,-4.2645,-4.2395,-4.1933,-4.1379,-4.069,-3.994,-3.9615,-3.9436,-3.911,-3.8886,-3.8751,-3.8467,-3.8287,-5.1387,-5.1387,-5.1387,-5.1387,-5.1387,-5.1308,-5.0898,-5.0332,-5.0117,-4.9531,-4.8808,-4.7852,-4.7422,-4.7195,-4.6421,-4.588,-4.5892,-4.5727,-4.5612,-4.5594,-4.5594,-4.5594,-4.5594,-4.5594,-4.5594,-4.5575,-4.4759,-4.4316,-4.4028,-4.2758,-4.1962,-4.1635,-4.0942,-4.0462,-4.011,-4.0081,-3.9932,-3.9622,-3.9339,-3.9152,-3.9058,-3.8859,-3.8719,-3.8707,-3.8634,-3.8597,-3.8615,-3.79,-3.7808,-3.8358,-3.7896,-3.7896,-3.8331,-3.8123,-3.7875,-3.7719,-3.7433,-3.6943,-3.6498,-3.6378,-3.6165,-3.5805,-3.5667,-3.5701,-3.596,-3.6992,-3.7872,-3.8193,-3.9199,-4.0079,-4.0079,-4.0113,-4.0113,-4.0113,-4.0113,-4.0113,-4.0113,-4.0113,-4.0113,-4.0197,-4.0679,-4.1457,-4.2168,-4.2811,-4.3538,-4.4181,-4.4547,-4.4598,-4.4598,-4.4598,-4.4598,-4.4598,-4.4598,-4.4598,-4.4598,-4.4598,-4.457,-4.457,-4.4497,-4.4338,-4.4253,-4.3885,-4.3634,-4.3366,-4.2878,-4.2284,-4.1184,-4.0458,-3.9782,-3.9511,-3.9033,-3.8562,-3.8212,-3.7973,-3.7749,-5.1387,-5.1387,-5.1387,-5.1387,-5.1387,-5.1387,-5.125,-5.0957,-5.0469,-5.0039,-4.9648,-4.8846,-4.8386,-4.8103,-4.733,-4.6843,-4.6717,-4.6093,-4.5704,-4.564,-4.5594,-4.5594,-4.5594,-4.5594,-4.5594,-4.5556,-4.5336,-4.4855,-4.4297,-4.3739,-4.3008,-4.1942,-4.1546,-4.1034,-4.043,-4.0364,-4.0221,-3.9982,-3.984,-3.9587,-3.9147,-3.9008,-3.8898,-3.8719,-3.8707,-3.8707,-3.8689,-3.8469,-3.845,-3.8707,-3.8469,-3.845,-3.8603,-3.8546,-3.8283,-3.7946,-3.7772,-3.747,-3.7057,-3.6923,-3.6724,-3.627,-3.6139,-3.6254,-3.6469,-3.733,-3.8125,-3.8599,-3.9537,-4.0113,-4.0113,-4.0113,-4.0113,-4.0113,-4.0113,-4.0113,-4.0113,-4.0113,-4.0113,-4.0113,-4.0316,-4.0747,-4.1457,-4.2202,-4.298,-4.3741,-4.4248,-4.4598,-4.4598,-4.4598,-4.4598,-4.4598,-4.4598,-4.4598,-4.4598,-4.4598,-4.4598,-4.4598,-4.4598,-4.4598,-4.4598,-4.457,-4.4355,-4.4059,-4.3617,-4.2855,-4.1789,-4.0835,-4.0117,-3.9598,-3.921,-3.8613,-3.7921,-3.7687,-3.7654,-5.1345,-5.1387,-5.1387,-5.1387,-5.1387,-5.1387,-5.1387,-5.1328,-5.0859,-5.0664,-5.0469,-4.9746,-4.9334,-4.9066,-4.8289,-4.7847,-4.7634,-4.6741,-4.6274,-4.6101,-4.5697,-4.5594,-4.5594,-4.5594,-4.5594,-4.5594,-4.5594,-4.5325,-4.4778,-4.4412,-4.3758,-4.2854,-4.2124,-4.1558,-4.0969,-4.0662,-4.0397,-4.025,-4.0139,-3.9901,-3.9498,-3.9244,-3.9022,-3.8855,-3.8747,-3.8707,-3.8707,-3.8707,-3.8707,-3.8707,-3.8707,-3.8707,-3.8707,-3.8692,-3.8546,-3.8283,-3.8167,-3.7981,-3.7542,-3.7451,-3.7248,-3.6838,-3.6762,-3.6874,-3.7171,-3.7806,-3.8531,-3.8988,-3.969,-4.0113,-4.0113,-4.0113,-4.0113,-4.0113,-4.0113,-4.0113,-4.0113,-4.0113,-4.0113,-4.0113,-4.013,-4.0485,-4.1102,-4.183,-4.2574,-4.3318,-4.4079,-4.4598,-4.4598,-4.4598,-4.4598,-4.4598,-4.4598,-4.4598,-4.4598,-4.4598,-4.4598,-4.4598,-4.4598,-4.4598,-4.4598,-4.4598,-4.4468,-4.4056,-4.3656,-4.2805,-4.178,-4.0831,-4.004,-3.9676,-3.9594,-3.916,-3.8721,-3.822,-3.8065,-5.127,-5.1386,-5.1387,-5.1387,-5.1387,-5.1387,-5.1387,-5.1387,-5.1348,-5.1328,-5.1152,-5.0547,-5.0254,-5.0039,-4.9223,-4.8777,-4.8606,-4.7758,-4.7257,-4.6926,-4.6298,-4.5772,-4.5614,-4.5594,-4.5594,-4.5594,-4.5594,-4.5575,-4.5421,-4.4825,-4.4316,-4.3989,-4.2777,-4.1854,-4.1623,-4.095,-4.0623,-4.0441,-4.026,-4.0129,-4.0041,-3.9529,-3.9152,-3.9104,-3.8869,-3.8732,-3.8707,-3.8707,-3.8707,-3.8707,-3.8707,-3.8707,-3.8707,-3.8707,-3.8658,-3.8627,-3.8692,-3.8433,-3.8047,-3.7946,-3.7827,-3.748,-3.7567,-3.7671,-3.7997,-3.8602,-3.9098,-3.9312,-3.979,-4.0113,-4.0113,-4.0113,-4.0113,-4.0113,-4.0113,-4.0113,-4.0113,-4.0113,-4.0113,-4.0113,-4.013,-4.0307,-4.1018,-4.1728,-4.254,-4.32,-4.3978,-4.4496,-4.4598,-4.4598,-4.4598,-4.4598,-4.4598,-4.4598,-4.4598,-4.4598,-4.4598,-4.4598,-4.4598,-4.4598,-4.4496,-4.4462,-4.4124,-4.3766,-4.3635,-4.2759,-4.214,-4.1412,-4.0924,-4.0824,-4.0544,-4.0056,-3.9533,-3.8992,-3.8723,-5.1213,-5.1267,-5.1346,-5.1387,-5.1387,-5.1387,-5.1387,-5.1387,-5.1387,-5.1387,-5.1328,-5.1191,-5.1035,-5.0976,-5.0195,-4.9802,-4.9542,-4.8771,-4.8245,-4.7995,-4.7165,-4.6271,-4.5717,-4.5594,-4.5594,-4.5594,-4.5594,-4.5594,-4.5594,-4.5325,-4.4902,-4.4297,-4.3816,-4.2951,-4.195,-4.1585,-4.1085,-4.0593,-4.0449,-4.0295,-4.011,-3.9943,-3.9587,-3.9125,-3.904,-3.888,-3.8735,-3.8707,-3.8707,-3.8707,-3.8707,-3.8707,-3.8707,-3.8707,-3.8707,-3.8707,-3.8692,-3.8658,-3.8512,-3.8483,-3.8507,-3.8599,-3.865,-3.9035,-3.9788,-3.9668,-3.9905,-4.0178,-4.03,-4.0121,-4.0121,-4.0096,-4.0096,-4.0113,-4.0113,-4.0113,-4.0113,-4.0113,-4.0113,-4.0113,-4.0113,-4.0248,-4.0603,-4.1441,-4.232,-4.2777,-4.3623,-4.4581,-4.4564,-4.4598,-4.4598,-4.4598,-4.4598,-4.4598,-4.4598,-4.4598,-4.4598,-4.4598,-4.4598,-4.4598,-4.4367,-4.4147,-4.3521,-4.2892,-4.3417,-4.2936,-4.3015,-4.2746,-4.2431,-4.1805,-4.1471,-4.094,-4.021,-3.9629,-3.9635,-5.1121,-5.1206,-5.1292,-5.1364,-5.1387,-5.1387,-5.1387,-5.1387,-5.1387,-5.1387,-5.1387,-5.1387,-5.1387,-5.1328,-5.0898,-5.0723,-5.0566,-4.9759,-4.9278,-4.8904,-4.7709,-4.6571,-4.5819,-4.5594,-4.5594,-4.5594,-4.5594,-4.5594,-4.5594,-4.5594,-4.5287,-4.4874,-4.447,-4.3778,-4.297,-4.2066,-4.1596,-4.1085,-4.0719,-4.0406,-4.0286,-4.0148,-3.9922,-3.9505,-3.9295,-3.899,-3.875,-3.8707,-3.8707,-3.8707,-3.8707,-3.8707,-3.8707,-3.8707,-3.8707,-3.8707,-3.8707,-3.8707,-3.8781,-3.8982,-3.9257,-3.9502,-3.9731,-4.0327,-4.079,-4.0726,-4.0906,-4.1119,-4.0961,-4.072,-4.0441,-4.0254,-4.0121,-4.0113,-4.0113,-4.0096,-4.0096,-4.0113,-4.0113,-4.0113,-4.0113,-4.0113,-4.013,-4.1179,-4.183,-4.2405,-4.3301,-4.4028,-4.4496,-4.4547,-4.4598,-4.4598,-4.4598,-4.4598,-4.4598,-4.4598,-4.4598,-4.4598,-4.4598,-4.4598,-4.4384,-4.4079,-4.3724,-4.3301,-4.3386,-4.3403,-4.3403,-4.3291,-4.2852,-4.235,-4.215,-4.1993,-4.1452,-4.0827,-4.0753,-5.0992,-5.118,-5.1177,-5.1268,-5.1366,-5.1387,-5.1387,-5.1387,-5.1387,-5.1387,-5.1387,-5.1387,-5.1387,-5.1387,-5.1289,-5.1348,-5.1308,-5.0586,-5.0186,-4.9447,-4.821,-4.686,-4.5995,-4.567,-4.5614,-4.5594,-4.5594,-4.5594,-4.5594,-4.5594,-4.5594,-4.5344,-4.4797,-4.4412,-4.3874,-4.2835,-4.2085,-4.1623,-4.1085,-4.0662,-4.0471,-4.0286,-4.0129,-3.9941,-3.9383,-3.899,-3.8777,-3.8707,-3.8707,-3.8707,-3.8707,-3.8707,-3.8707,-3.8707,-3.8707,-3.8707,-3.8707,-3.8744,-3.8927,-3.9496,-4.001,-4.028,-4.1033,-4.1559,-4.1682,-4.1779,-4.1806,-4.1877,-4.1853,-4.1464,-4.1064,-4.0577,-4.0385,-4.0336,-4.0229,-4.0179,-4.0096,-4.0113,-4.0113,-4.0113,-4.0113,-4.0113,-4.0282,-4.0756,-4.1457,-4.1914,-4.2844,-4.3673,-4.4198,-4.4445,-4.4513,-4.4598,-4.4598,-4.4598,-4.4598,-4.4598,-4.4598,-4.4598,-4.4598,-4.4581,-4.4513,-4.4299,-4.4231,-4.4028,-4.3487,-4.3318,-4.3403,-4.3206,-4.3094,-4.3219,-4.3244,-4.3342,-4.326,-4.2572,-4.2244,-5.0939,-5.099,-5.1112,-5.121,-5.1265,-5.1348,-5.1387,-5.1387,-5.1387,-5.1387,-5.1387,-5.1387,-5.1367,-5.1367,-5.1328,-5.1387,-5.1328,-5.1074,-5.0781,-4.9857,-4.8826,-4.7703,-4.6742,-4.605,-4.5642,-4.5614,-4.5594,-4.5594,-4.5594,-4.5594,-4.5594,-4.5537,-4.5364,-4.497,-4.4297,-4.3893,-4.3028,-4.2038,-4.1585,-4.1123,-4.0631,-4.0441,-4.0276,-4.0042,-3.9438,-3.9004,-3.8762,-3.8707,-3.8707,-3.8707,-3.8707,-3.8707,-3.8707,-3.8707,-3.8744,-3.8799,-3.8781,-3.9001,-3.9551,-3.9918,-4.0485,-4.1535,-4.191,-4.2371,-4.2975,-4.2646,-4.2539,-4.2402,-4.2101,-4.1835,-4.1621,-4.1512,-4.115,-4.0844,-4.0726,-4.0577,-4.0212,-4.0096,-4.0113,-4.0113,-4.0113,-4.0113,-4.013,-4.0679,-4.1221,-4.1593,-4.2354,-4.3318,-4.3842,-4.4231,-4.4479,-4.4598,-4.4598,-4.4598,-4.4598,-4.4598,-4.4598,-4.4598,-4.4598,-4.4598,-4.453,-4.4327,-4.4164,-4.3758,-4.3217,-4.3267,-4.3639,-4.3927,-4.3995,-4.4181,-4.4248,-4.4153,-4.398,-4.3663,-4.3426,-5.0844,-5.0911,-5.1009,-5.1113,-5.1204,-5.1271,-5.1324,-5.1387,-5.1387,-5.1387,-5.1308,-5.1035,-5.084,-5.084,-5.084,-5.082,-5.0957,-5.123,-5.0893,-5.0081,-4.9345,-4.8452,-4.7243,-4.6571,-4.6124,-4.5717,-4.5594,-4.5594,-4.5594,-4.5594,-4.5594,-4.5594,-4.5594,-4.5383,-4.4855,-4.4509,-4.3855,-4.3008,-4.2135,-4.1546,-4.1162,-4.0681,-4.0257,-3.9882,-3.9364,-3.899,-3.8719,-3.8707,-3.8707,-3.8707,-3.8707,-3.8707,-3.8707,-3.8726,-3.8872,-3.9221,-3.9276,-3.9662,-4.0249,-4.0836,-4.1405,-4.2231,-4.2616,-4.302,-4.3352,-4.3214,-4.3105,-4.3014,-4.279,-4.2542,-4.2244,-4.1895,-4.1621,-4.1446,-4.1313,-4.1196,-4.0868,-4.0441,-4.0113,-4.0113,-4.0113,-4.0113,-4.0299,-4.062,-4.0916,-4.1255,-4.1965,-4.2895,-4.3673,-4.4062,-4.4462,-4.4598,-4.4598,-4.4598,-4.4598,-4.4598,-4.4598,-4.4598,-4.4598,-4.4598,-4.4564,-4.431,-4.3995,-4.3741,-4.3623,-4.3842,-4.4198,-4.4513,-4.4598,-4.4513,-4.4479,-4.4564,-4.4468,-4.415,-4.4064,-5.0775,-5.0871,-5.0894,-5.1006,-5.1161,-5.1194,-5.1268,-5.1345,-5.1387,-5.1289,-5.1113,-5.0449,-5.0234,-5.0058,-5.0215,-5.0254,-5.0605,-5.0996,-5.0953,-5.0409,-5.0033,-4.9127,-4.7957,-4.726,-4.664,-4.5863,-4.567,-4.5614,-4.5594,-4.5594,-4.5594,-4.5594,-4.5594,-4.5537,-4.5364,-4.494,-4.4374,-4.3912,-4.2989,-4.2239,-4.1912,-4.1231,-4.0508,-3.9701,-3.9401,-3.9027,-3.8792,-3.8707,-3.8707,-3.8707,-3.8817,-3.8891,-3.8891,-3.8927,-3.9129,-3.9863,-3.9955,-4.0487,-4.1167,-4.1791,-4.2249,-4.2451,-4.3039,-4.3406,-4.3479,-4.348,-4.3427,-4.3427,-4.3321,-4.3178,-4.2827,-4.2521,-4.2144,-4.1958,-4.1937,-4.1895,-4.1643,-4.0891,-4.0563,-4.0279,-4.0196,-4.0113,-4.0113,-4.0282,-4.0595,-4.0984,-4.1721,-4.2448,-4.3227,-4.3859,-4.4209,-4.4564,-4.4598,-4.4598,-4.4598,-4.4598,-4.4598,-4.4598,-4.4598,-4.4598,-4.4598,-4.4445,-4.4276,-4.4412,-4.4429,-4.4496,-4.4479,-4.4547,-4.4598,-4.4598,-4.4598,-4.4598,-4.4598,-4.4598,-4.4542,-5.0712,-5.073,-5.0859,-5.0912,-5.0984,-5.1144,-5.1186,-5.1244,-5.1286,-5.0996,-5.0391,-5.0215,-4.9668,-4.9433,-4.9941,-5.0527,-5.0996,-5.1308,-5.1289,-5.0937,-5.0547,-4.9741,-4.9172,-4.7901,-4.7126,-4.6679,-4.6086,-4.562,-4.5594,-4.5594,-4.5594,-4.5594,-4.5594,-4.5594,-4.5575,-4.5402,-4.4932,-4.4509,-4.3855,-4.3374,-4.2797,-4.1997,-4.1007,-3.9996,-3.9751,-3.9418,-3.8936,-3.8781,-3.8707,-3.8762,-3.935,-3.9625,-3.9717,-3.9735,-3.99,-4.0139,-4.0634,-4.1258,-4.2011,-4.2231,-4.269,-4.3147,-4.3423,-4.3478,-4.3479,-4.3479,-4.3479,-4.3479,-4.3479,-4.3427,-4.341,-4.3124,-4.2958,-4.2714,-4.2519,-4.2382,-4.1979,-4.1617,-4.1286,-4.0984,-4.057,-4.0171,-4.0229,-4.0229,-4.0383,-4.0807,-4.1427,-4.2116,-4.2847,-4.3481,-4.3959,-4.4287,-4.4598,-4.4598,-4.4598,-4.4598,-4.4598,-4.4598,-4.4598,-4.4598,-4.4598,-4.4598,-4.4598,-4.4598,-4.4598,-4.4564,-4.4564,-4.4598,-4.4598,-4.4598,-4.4598,-4.4598,-4.4598,-4.4598,-4.4598,-5.0683,-5.0721,-5.0764,-5.0835,-5.0925,-5.1064,-5.0867,-5.054,-5.0674,-5.0272,-4.9507,-4.9023,-4.8652,-4.8535,-4.9121,-5.0176,-5.1152,-5.1387,-5.1387,-5.125,-5.0976,-5.0464,-4.9985,-4.8554,-4.7723,-4.7009,-4.6177,-4.5648,-4.5603,-4.5594,-4.5594,-4.5594,-4.5594,-4.5594,-4.5594,-4.5575,-4.5364,-4.494,-4.4528,-4.4124,-4.3645,-4.2769,-4.172,-4.1131,-4.0691,-4.0407,-4.0075,-3.9939,-3.9939,-4.0031,-4.0341,-4.0469,-4.0616,-4.0891,-4.113,-4.1185,-4.1515,-4.2084,-4.2745,-4.2928,-4.3147,-4.3387,-4.3479,-4.3479,-4.3479,-4.3479,-4.3479,-4.3479,-4.3479,-4.3479,-4.3462,-4.3479,-4.3375,-4.3196,-4.3105,-4.294,-4.2696,-4.2442,-4.2103,-4.1707,-4.1127,-4.072,-4.0497,-4.0449,-4.0336,-4.0675,-4.1209,-4.1867,-4.2569,-4.3279,-4.3955,-4.4477,-4.4852,-4.4852,-4.4879,-4.4862,-4.4906,-4.4852,-4.4692,-4.4692,-4.4609,-4.4637,-4.4626,-4.4598,-4.4598,-4.4598,-4.4598,-4.4598,-4.4598,-4.4598,-4.4598,-4.4598,-4.4598,-4.4598,-4.4598,-5.0683,-5.0683,-5.0683,-5.0747,-5.0844,-5.0796,-5.0417,-4.9872,-4.9836,-4.9345,-4.8447,-4.791,-4.7578,-4.7656,-4.8535,-4.9785,-5.1308,-5.1387,-5.1387,-5.1387,-5.1328,-5.0914,-5.0237,-4.9189,-4.8229,-4.7476,-4.6267,-4.5745,-4.561,-4.5594,-4.5594,-4.5594,-4.5594,-4.5594,-4.5594,-4.5594,-4.5594,-4.5383,-4.497,-4.4528,-4.41,-4.3455,-4.2682,-4.2217,-4.1873,-4.1487,-4.1092,-4.094,-4.091,-4.0985,-4.1168,-4.1315,-4.1462,-4.2103,-4.2525,-4.2543,-4.2543,-4.2928,-4.324,-4.3424,-4.3404,-4.3479,-4.3479,-4.3479,-4.3479,-4.3479,-4.3479,-4.3479,-4.3479,-4.3479,-4.3479,-4.3479,-4.3479,-4.3462,-4.3444,-4.3444,-4.3303,-4.3087,-4.2902,-4.2384,-4.1729,-4.1335,-4.115,-4.1013,-4.0961,-4.1019,-4.1557,-4.2021,-4.2751,-4.3562,-4.4245,-4.4863,-4.5196,-4.5205,-4.5214,-4.5303,-4.5355,-4.5407,-4.5152,-4.4998,-4.4852,-4.4703,-4.4676,-4.4586,-4.4598,-4.4598,-4.4598,-4.4581,-4.4598,-4.4598,-4.4598,-4.4598,-4.4598,-4.4598,-4.4598,-5.0683,-5.0683,-5.0693,-5.0712,-5.0604,-5.0039,-4.973,-4.9485,-4.9046,-4.8363,-4.7533,-4.7533,-4.7148,-4.7187,-4.8281,-4.9805,-5.0976,-5.1387,-5.1387,-5.1387,-5.1387,-5.1308,-5.0916,-4.9449,-4.8703,-4.7879,-4.6548,-4.5841,-4.5643,-4.562,-4.5594,-4.5594,-4.5594,-4.5594,-4.5594,-4.5594,-4.5594,-4.5575,-4.546,-4.5056,-4.447,-4.4177,-4.358,-4.2832,-4.238,-4.209,-4.1824,-4.1609,-4.1399,-4.1368,-4.1864,-4.2121,-4.2286,-4.291,-4.3294,-4.3368,-4.3351,-4.3387,-4.3461,-4.3479,-4.3479,-4.3479,-4.3479,-4.3479,-4.3479,-4.3479,-4.3479,-4.3479,-4.3479,-4.3479,-4.3479,-4.3479,-4.3479,-4.3479,-4.3479,-4.3479,-4.3444,-4.341,-4.325,-4.3142,-4.2485,-4.2126,-4.1856,-4.1746,-4.166,-4.17,-4.1862,-4.2335,-4.2974,-4.3839,-4.4735,-4.5406,-4.5699,-4.5681,-4.5656,-4.5715,-4.579,-4.5933,-4.5681,-4.5364,-4.5242,-4.5039,-4.4623,-4.455,-4.4512,-4.4412,-4.4333,-4.4367,-4.453,-4.4598,-4.4598,-4.4598,-4.4598,-4.4598,-4.4598,-5.0683,-5.0654,-5.0164,-4.9952,-4.9855,-4.9162,-4.8566,-4.8113,-4.7918,-4.7379,-4.669,-4.6706,-4.7045,-4.7715,-4.8672,-4.9805,-5.1094,-5.1387,-5.1387,-5.1387,-5.1387,-5.1387,-5.0957,-4.9722,-4.8765,-4.8168,-4.6901,-4.5865,-4.5713,-4.5635,-4.5594,-4.5594,-4.5594,-4.5594,-4.5594,-4.5594,-4.5594,-4.5594,-4.5556,-4.5402,-4.5133,-4.4962,-4.469,-4.4022,-4.3832,-4.3435,-4.3025,-4.2872,-4.2629,-4.2588,-4.2873,-4.2947,-4.302,-4.3277,-4.3479,-4.3479,-4.3461,-4.3461,-4.3479,-4.3479,-4.3479,-4.3479,-4.3479,-4.3479,-4.3479,-4.3479,-4.3479,-4.3479,-4.3479,-4.3479,-4.3479,-4.3479,-4.3479,-4.3479,-4.3479,-4.3479,-4.3479,-4.3479,-4.3427,-4.3356,-4.3286,-4.2884,-4.2483,-4.2185,-4.2144,-4.2302,-4.2427,-4.2785,-4.3451,-4.4298,-4.5221,-4.6076,-4.6222,-4.624,-4.6192,-4.6174,-4.6216,-4.627,-4.6187,-4.5902,-4.5725,-4.5482,-4.4802,-4.4063,-4.3666,-4.3695,-4.3942,-4.4231,-4.4445,-4.453,-4.4598,-4.4598,-4.4598,-4.4598,-4.4598,-5.0385,-5.0308,-4.9663,-4.9279,-4.9009,-4.8257,-4.7576,-4.6975,-4.6874,-4.6504,-4.6074,-4.6111,-4.7055,-4.834,-4.8808,-4.9687,-5.1035,-5.1289,-5.1387,-5.1387,-5.1387,-5.1387,-5.0879,-4.9785,-4.8821,-4.8652,-4.684,-4.5974,-4.5783,-4.5715,-4.5651,-4.5603,-4.5594,-4.5594,-4.5594,-4.5594,-4.5594,-4.5594,-4.5594,-4.5556,-4.5518,-4.5537,-4.5419,-4.5216,-4.5077,-4.4842,-4.4387,-4.4101,-4.3911,-4.3791,-4.3582,-4.355,-4.357,-4.3508,-4.3496,-4.3479,-4.3479,-4.3479,-4.3479,-4.3479,-4.3479,-4.3479,-4.3479,-4.3479,-4.3479,-4.3479,-4.3479,-4.3479,-4.3479,-4.3479,-4.3479,-4.3479,-4.3479,-4.3479,-4.3479,-4.3479,-4.3479,-4.3479,-4.3479,-4.3444,-4.341,-4.3444,-4.3051,-4.2638,-4.2599,-4.2827,-4.3065,-4.3244,-4.3917,-4.471,-4.5556,-4.6434,-4.6926,-4.6962,-4.6976,-4.6905,-4.6833,-4.6555,-4.6456,-4.628,-4.601,-4.5276,-4.444,-4.3729,-4.3133,-4.3194,-4.3578,-4.3987,-4.435,-4.4496,-4.4598,-4.4598,-4.4598,-4.4598,-4.4598,-4.949,-4.949,-4.9394,-4.8875,-4.8144,-4.7326,-4.695,-4.6719,-4.618,-4.5951,-4.5867,-4.6059,-4.6701,-4.7734,-4.8633,-4.9433,-5.0371,-5.1055,-5.1328,-5.1387,-5.1387,-5.1269,-5.0683,-4.9726,-4.8707,-4.8349,-4.6874,-4.6041,-4.5858,-4.579,-4.5708,-4.5629,-4.5612,-4.5594,-4.5594,-4.5594,-4.5594,-4.5594,-4.5594,-4.5594,-4.5594,-4.5594,-4.5568,-4.5495,-4.5282,-4.5063,-4.4988,-4.4688,-4.4468,-4.4397,-4.4136,-4.4004,-4.3958,-4.371,-4.3595,-4.358,-4.3513,-4.3496,-4.3479,-4.3479,-4.3479,-4.3479,-4.3479,-4.3479,-4.3479,-4.3479,-4.3479,-4.3479,-4.3479,-4.3479,-4.3479,-4.3479,-4.3479,-4.3479,-4.3479,-4.3479,-4.3479,-4.3479,-4.3479,-4.3479,-4.3479,-4.3479,-4.3479,-4.3051,-4.294,-4.316,-4.3269,-4.3452,-4.4218,-4.4996,-4.5821,-4.6681,-4.7469,-4.7763,-4.7874,-4.7627,-4.6985,-4.6641,-4.6488,-4.6335,-4.6125,-4.5217,-4.4127,-4.374,-4.3296,-4.3235,-4.3147,-4.3357,-4.3693,-4.4309,-4.4564,-4.4384,-4.4496,-4.4598,-4.4598,-4.8298,-4.7875,-4.7875,-4.7673,-4.7298,-4.6451,-4.6105,-4.6065,-4.5803,-4.5757,-4.5871,-4.6066,-4.6662,-4.7598,-4.8516,-4.9375,-5.0234,-5.1055,-5.1269,-5.1191,-5.0996,-5.0723,-5.0058,-4.916,-4.8046,-4.7784,-4.6733,-4.608,-4.599,-4.5869,-4.5796,-4.5723,-4.5651,-4.5603,-4.5594,-4.5594,-4.5594,-4.5594,-4.5594,-4.5594,-4.5594,-4.5594,-4.5594,-4.5577,-4.5522,-4.5292,-4.5107,-4.4977,-4.4793,-4.4631,-4.4455,-4.4387,-4.4323,-4.3986,-4.3818,-4.3772,-4.3679,-4.358,-4.3531,-4.3513,-4.3479,-4.3479,-4.3479,-4.3479,-4.3479,-4.3479,-4.3479,-4.3479,-4.3479,-4.3479,-4.3479,-4.3479,-4.3479,-4.3479,-4.3479,-4.3479,-4.3479,-4.3479,-4.3479,-4.3479,-4.3479,-4.3479,-4.3479,-4.3444,-4.3427,-4.3462,-4.3552,-4.3735,-4.4378,-4.4966,-4.5645,-4.6177,-4.6874,-4.7095,-4.7168,-4.704,-4.6893,-4.6671,-4.6429,-4.6113,-4.5756,-4.4863,-4.3916,-4.3618,-4.3279,-4.2934,-4.2731,-4.2666,-4.3065,-4.3744,-4.402,-4.4045,-4.4215,-4.4564,-4.4598,-4.7413,-4.6874,-4.6624,-4.6509,-4.6432,-4.5836,-4.5594,-4.5594,-4.5594,-4.5691,-4.5872,-4.6024,-4.6407,-4.7297,-4.8418,-4.8867,-4.957,-5.0332,-5.0664,-5.0488,-5.0039,-4.9844,-4.9297,-4.8574,-4.7715,-4.7363,-4.6699,-4.6147,-4.6072,-4.5962,-4.5867,-4.579,-4.5715,-4.5657,-4.5594,-4.5594,-4.5594,-4.5594,-4.5594,-4.5594,-4.5594,-4.5594,-4.5594,-4.5594,-4.5577,-4.5495,-4.5332,-4.5253,-4.5161,-4.4988,-4.483,-4.4757,-4.46,-4.4428,-4.4219,-4.4091,-4.4008,-4.3823,-4.3791,-4.358,-4.3513,-4.3479,-4.3479,-4.3479,-4.3479,-4.3479,-4.3479,-4.3479,-4.3479,-4.3479,-4.3479,-4.3479,-4.3479,-4.3479,-4.3479,-4.3479,-4.3479,-4.3479,-4.3479,-4.3479,-4.3479,-4.3479,-4.3479,-4.3479,-4.3479,-4.3479,-4.3516,-4.3626,-4.3956,-4.4507,-4.5021,-4.548,-4.592,-4.5993,-4.5975,-4.614,-4.6287,-4.6195,-4.592,-4.559,-4.5113,-4.4286,-4.381,-4.3587,-4.3152,-4.2575,-4.2398,-4.2457,-4.2788,-4.3227,-4.3503,-4.3823,-4.4265,-4.4598,-4.4598,-4.6894,-4.6788,-4.6009,-4.5671,-4.5729,-4.5614,-4.5594,-4.5594,-4.5594,-4.5669,-4.5815,-4.5896,-4.6008,-4.6624,-4.7983,-4.8398,-4.8418,-4.9512,-4.9922,-4.9375,-4.9101,-4.8965,-4.8594,-4.7988,-4.7324,-4.7324,-4.6738,-4.6201,-4.6136,-4.6064,-4.5978,-4.5832,-4.5749,-4.5685,-4.5603,-4.5594,-4.5594,-4.5594,-4.5594,-4.5594,-4.5594,-4.5594,-4.5594,-4.5594,-4.5594,-4.5531,-4.5513,-4.5495,-4.5429,-4.5371,-4.5171,-4.5107,-4.5063,-4.4776,-4.4593,-4.4553,-4.4546,-4.4506,-4.4501,-4.3902,-4.3631,-4.3513,-4.3479,-4.3479,-4.3479,-4.3479,-4.3479,-4.3479,-4.3479,-4.3479,-4.3479,-4.3479,-4.3479,-4.3479,-4.3479,-4.3479,-4.3479,-4.3479,-4.3479,-4.3479,-4.3479,-4.3479,-4.3479,-4.3479,-4.3479,-4.3479,-4.3479,-4.3589,-4.3773,-4.4011,-4.4452,-4.4654,-4.5002,-4.5076,-4.5168,-4.5535,-4.5681,-4.5608,-4.5351,-4.4929,-4.4599,-4.4016,-4.3669,-4.3521,-4.3269,-4.2876,-4.2532,-4.229,-4.2682,-4.3083,-4.3423,-4.3769,-4.4264,-4.4598,-4.4598,-4.6028,-4.6009,-4.5729,-4.5594,-4.5594,-4.5594,-4.5594,-4.5594,-4.5612,-4.568,-4.5783,-4.5832,-4.5942,-4.6482,-4.7201,-4.7812,-4.7891,-4.8613,-4.9004,-4.8848,-4.832,-4.8086,-4.7773,-4.7305,-4.6816,-4.668,-4.6367,-4.6289,-4.6226,-4.6171,-4.6027,-4.5877,-4.5743,-4.564,-4.5612,-4.5594,-4.5594,-4.5594,-4.5594,-4.5594,-4.5594,-4.5594,-4.5594,-4.5594,-4.5594,-4.5594,-4.5594,-4.5594,-4.5594,-4.5594,-4.541,-4.541,-4.5352,-4.5096,-4.4943,-4.4853,-4.48,-4.4593,-4.458,-4.4285,-4.3992,-4.3728,-4.3531,-4.3548,-4.3515,-4.3479,-4.3479,-4.3479,-4.3479,-4.3479,-4.3479,-4.3479,-4.3479,-4.3479,-4.3479,-4.3479,-4.3479,-4.3479,-4.3479,-4.3479,-4.3479,-4.3479,-4.3479,-4.3479,-4.3479,-4.3479,-4.3479,-4.3479,-4.3626,-4.3608,-4.3846,-4.3864,-4.403,-4.4157,-4.4359,-4.4672,-4.4727,-4.4562,-4.4342,-4.4011,-4.3718,-4.3663,-4.359,-4.35,-4.3358,-4.3196,-4.2958,-4.2746,-4.2715,-4.2929,-4.3388,-4.3553,-4.3746,-4.4224,-4.4598,-4.5541,-4.5457,-4.5559,-4.5594,-4.5594,-4.5594,-4.5594,-4.5594,-4.5594,-4.566,-4.5737,-4.5789,-4.588,-4.6264,-4.6906,-4.7171,-4.7285,-4.8027,-4.8086,-4.8008,-4.7461,-4.7187,-4.6914,-4.6641,-4.6465,-4.6289,-4.6289,-4.6289,-4.6289,-4.6202,-4.6055,-4.59,-4.5737,-4.5661,-4.5618,-4.5594,-4.5594,-4.5594,-4.5594,-4.5594,-4.5594,-4.5594,-4.5594,-4.5594,-4.5594,-4.5594,-4.5594,-4.5594,-4.5594,-4.5594,-4.5594,-4.5594,-4.5513,-4.5419,-4.5263,-4.5171,-4.5107,-4.49,-4.4806,-4.4769,-4.4447,-4.402,-4.3772,-4.3695,-4.3647,-4.358,-4.3513,-4.3479,-4.3513,-4.3531,-4.3548,-4.3531,-4.3496,-4.3496,-4.3496,-4.3496,-4.3479,-4.3479,-4.3479,-4.3479,-4.3479,-4.3479,-4.3479,-4.3479,-4.3479,-4.3479,-4.3479,-4.3479,-4.3479,-4.3479,-4.3479,-4.3516,-4.3552,-4.3753,-4.3808,-4.3791,-4.3754,-4.3534,-4.3497,-4.3515,-4.3516,-4.3552,-4.3516,-4.3479,-4.341,-4.3356,-4.3375,-4.3269,-4.3072,-4.314,-4.3465,-4.3515,-4.3348,-4.3785,-4.4344,-4.5371,-4.5161,-4.5448,-4.5596,-4.5594,-4.5594,-4.5594,-4.5594,-4.5594,-4.5594,-4.562,-4.5752,-4.5832,-4.6074,-4.6894,-4.693,-4.6601,-4.7246,-4.707,-4.6719,-4.6601,-4.6465,-4.6445,-4.6348,-4.6289,-4.6289,-4.6289,-4.6289,-4.6289,-4.6226,-4.6091,-4.5952,-4.5813,-4.5733,-4.5657,-4.5612,-4.5603,-4.5594,-4.5594,-4.5594,-4.5594,-4.5594,-4.5594,-4.5594,-4.5594,-4.5594,-4.5594,-4.5594,-4.5594,-4.5594,-4.5594,-4.5594,-4.5586,-4.5594,-4.5586,-4.5577,-4.555,-4.5342,-4.5161,-4.5118,-4.4988,-4.4631,-4.429,-4.4117,-4.3989,-4.3852,-4.3807,-4.371,-4.3712,-4.3664,-4.3631,-4.3563,-4.3513,-4.3513,-4.3513,-4.3496,-4.3496,-4.3479,-4.3479,-4.3479,-4.3479,-4.3479,-4.3479,-4.3479,-4.3479,-4.3479,-4.3479,-4.3479,-4.3479,-4.3479,-4.3479,-4.3479,-4.3497,-4.3497,-4.3479,-4.3479,-4.3479,-4.3479,-4.3479,-4.3497,-4.3479,-4.3479,-4.3479,-4.3479,-4.3479,-4.3462,-4.3444,-4.3392,-4.3287,-4.3425,-4.3562,-4.342,-4.3258,-4.357,-4.4009,-4.4966,-4.5115,-4.5211,-4.5371,-4.5577,-4.5594,-4.5594,-4.5594,-4.5594,-4.5594,-4.5594,-4.5643,-4.5728,-4.5883,-4.6191,-4.6231,-4.6344,-4.6445,-4.6504,-4.6348,-4.6289,-4.6289,-4.6289,-4.6289,-4.6289,-4.6289,-4.6289,-4.6289,-4.6269,-4.6225,-4.6152,-4.6033,-4.5901,-4.5796,-4.573,-4.5651,-4.5629,-4.5594,-4.5594,-4.5594,-4.5594,-4.5594,-4.5594,-4.5594,-4.5594,-4.5594,-4.5594,-4.5594,-4.5594,-4.5594,-4.5594,-4.5594,-4.5594,-4.5594,-4.5594,-4.5594,-4.5586,-4.555,-4.5457,-4.5448,-4.5362,-4.5211,-4.4935,-4.4651,-4.4501,-4.4323,-4.4223,-4.4095,-4.3974,-4.3946,-4.3931,-4.3868,-4.382,-4.382,-4.3791,-4.3712,-4.3695,-4.3695,-4.3695,-4.3662,-4.3662,-4.3548,-4.3548,-4.3479,-4.3479,-4.3479,-4.3479,-4.3479,-4.3479,-4.3479,-4.3479,-4.3479,-4.3479,-4.3479,-4.3479,-4.3479,-4.3479,-4.3479,-4.3479,-4.3479,-4.3479,-4.3479,-4.3479,-4.3479,-4.3479,-4.3479,-4.3479,-4.3427,-4.3375,-4.341,-4.3506,-4.329,-4.3225,-4.3576,-4.3603,-4.4726,-4.4908,-4.5052,-4.5302,-4.5568,-4.5594,-4.5594,-4.5594,-4.5594,-4.5594,-4.5594,-4.5603,-4.568,-4.5803,-4.5897,-4.5978,-4.6132,-4.6233,-4.6269,-4.6328,-4.6289,-4.6289,-4.6289,-4.6289,-4.6289,-4.6289,-4.6289,-4.6289,-4.6269,-4.623,-4.6173,-4.608,-4.5962,-4.5889,-4.579,-4.5711,-4.5648,-4.561,-4.5594,-4.5594,-4.5594,-4.5594,-4.5594,-4.5594,-4.5594,-4.5594,-4.5594,-4.5594,-4.5594,-4.5594,-4.5594,-4.5594,-4.5594,-4.5594,-4.5594,-4.5594,-4.5594,-4.5586,-4.5568,-4.5577,-4.5586,-4.5559,-4.541,-4.5243,-4.4954,-4.4745,-4.4606,-4.4474,-4.4364,-4.4294,-4.428,-4.4266,-4.4237,-4.4223,-4.411,-4.3977,-4.3962,-4.3962,-4.3946,-4.3915,-4.3823,-4.3679,-4.3597,-4.3548,-4.3479,-4.3479,-4.3479,-4.3479,-4.3479,-4.3479,-4.3479,-4.3479,-4.3479,-4.3479,-4.3479,-4.3479,-4.3479,-4.3479,-4.3479,-4.3479,-4.3479,-4.3479,-4.3479,-4.3479,-4.3479,-4.3479,-4.3479,-4.3479,-4.3462,-4.3479,-4.3479,-4.3397,-4.3354,-4.3525,-4.3406,-4.454,-4.4663,-4.4996,-4.5313,-4.5577,-4.5594,-4.5594,-4.5594,-4.5594,-4.5594,-4.5594,-4.5594,-4.5657,-4.5754,-4.5796,-4.5901,-4.6024,-4.6093,-4.6211,-4.6289,-4.6289,-4.6289,-4.6289,-4.6289,-4.6289,-4.6289,-4.6289,-4.6289,-4.6289,-4.6269,-4.6221,-4.6136,-4.6099,-4.6017,-4.5875,-4.5783,-4.5725,-4.5665,-4.561,-4.5594,-4.5594,-4.5594,-4.5594,-4.5594,-4.5594,-4.5594,-4.5594,-4.5594,-4.5594,-4.5594,-4.5594,-4.5594,-4.5594,-4.5594,-4.5594,-4.5594,-4.5594,-4.5594,-4.5594,-4.5594,-4.5594,-4.5594,-4.5586,-4.5513,-4.5283,-4.5107,-4.4954,-4.4853,-4.4781,-4.4769,-4.4769,-4.4567,-4.446,-4.4487,-4.4447,-4.4337,-4.4294,-4.4294,-4.428,-4.4223,-4.411,-4.3958,-4.3836,-4.3804,-4.3823,-4.3662,-4.3597,-4.3579,-4.3563,-4.3563,-4.3531,-4.3531,-4.3496,-4.3496,-4.3479,-4.3479,-4.3479,-4.3479,-4.3479,-4.3479,-4.3479,-4.3479,-4.3479,-4.3479,-4.3479,-4.3479,-4.3479,-4.3479,-4.3479,-4.3479,-4.3479,-4.3479,-4.3524,-4.3587,-4.3279,-4.4095,-4.4644,-4.5232,-4.5541,-4.5586,-4.5594,-4.5594,-4.5594,-4.5594,-4.5594,-4.5594,-4.5594,-4.5601,-4.5665,-4.5754,-4.5853,-4.5939,-4.6042,-4.6174,-4.6269,-4.6289,-4.6289,-4.6289,-4.6289,-4.6289,-4.6289,-4.6289,-4.6289,-4.6289,-4.6289,-4.6289,-4.6226,-4.6175,-4.6064,-4.5986,-4.5901,-4.579,-4.5718,-4.5643,-4.5603,-4.5594,-4.5594,-4.5594,-4.5594,-4.5594,-4.5594,-4.5594,-4.5594,-4.5594,-4.5594,-4.5594,-4.5594,-4.5594,-4.5594,-4.5594,-4.5594,-4.5594,-4.5594,-4.5594,-4.5594,-4.5594,-4.5594,-4.5594,-4.5594,-4.5522,-4.5419,-4.5332,-4.5243,-4.5211,-4.5222,-4.515,-4.4896,-4.4707,-4.4776,-4.4812,-4.472,-4.4644,-4.4631,-4.4631,-4.4553,-4.4433,-4.4261,-4.4132,-4.4106,-4.4106,-4.4046,-4.3924,-4.3881,-4.3804,-4.3775,-4.3646,-4.3614,-4.3513,-4.3496,-4.3496,-4.3479,-4.3479,-4.3479,-4.3479,-4.3479,-4.3479,-4.3479,-4.3479,-4.3479,-4.3479,-4.3479,-4.3479,-4.3479,-4.3479,-4.3479,-4.3479,-4.3479,-4.3479,-4.3524,-4.3173,-4.382,-4.4419,-4.5077,-4.5476,-4.5586,-4.5594,-4.5594,-4.5594,-4.5594,-4.5594,-4.5594,-4.5594,-4.5594,-4.5594,-4.5688,-4.579,-4.5846,-4.5959,-4.6075,-4.6195,-4.6289,-4.6289,-4.6289,-4.6289,-4.6289,-4.6289,-4.6289,-4.6289,-4.6289,-4.6289,-4.6289,-4.6269,-4.6211,-4.6147,-4.6106,-4.5957,-4.5832,-4.5796,-4.568,-4.562,-4.5603,-4.5594,-4.5594,-4.5594,-4.5594,-4.5594,-4.5594,-4.5594,-4.5594,-4.5594,-4.5594,-4.5594,-4.5594,-4.5594,-4.5594,-4.5594,-4.5594,-4.5594,-4.5594,-4.5594,-4.5594,-4.5594,-4.5594,-4.5594,-4.5594,-4.5504,-4.5504,-4.5429,-4.5419,-4.5419,-4.5429,-4.5223,-4.5211,-4.5243,-4.5243,-4.5182,-4.5066,-4.4988,-4.5055,-4.5129,-4.4912,-4.4574,-4.4482,-4.4428,-4.4433,-4.4378,-4.4276,-4.4261,-4.418,-4.4035,-4.3884,-4.3758,-4.3693,-4.3546,-4.3479,-4.3479,-4.3479,-4.3479,-4.3479,-4.3479,-4.3479,-4.3479,-4.3479,-4.3479,-4.3479,-4.3479,-4.3479,-4.3479,-4.3479,-4.3479,-4.3479,-4.3479,-4.3479,-4.3479,-4.3286,-4.3693,-4.4087,-4.4806,-4.5253,-4.5513,-4.5586,-4.5594,-4.5594,-4.5594,-4.5594,-4.5594,-4.5594,-4.5594,-4.5594,-4.5603,-4.5692,-4.5803,-4.5896,-4.6008,-4.6117,-4.6228,-4.6269,-4.6289,-4.6289,-4.6289,-4.6289,-4.6289,-4.6289,-4.6289,-4.6289,-4.6289,-4.6289,-4.6269,-4.6226,-4.6117,-4.5995,-4.5909,-4.5842,-4.5763,-4.5668,-4.5618,-4.5603,-4.5594,-4.5594,-4.5594,-4.5594,-4.5594,-4.5594,-4.5594,-4.5594,-4.5594,-4.5594,-4.5594,-4.5594,-4.5594,-4.5594,-4.5594,-4.5594,-4.5594,-4.5594,-4.5594,-4.5594,-4.5594,-4.5594,-4.5594,-4.5594,-4.5594,-4.5586,-4.5577,-4.5577,-4.5577,-4.5577,-4.5568,-4.5568,-4.5559,-4.555,-4.5419,-4.5312,-4.5419,-4.555,-4.5273,-4.4912,-4.4806,-4.4757,-4.4745,-4.4714,-4.4676,-4.4676,-4.4606,-4.4419,-4.4237,-4.4106,-4.402,-4.3836,-4.358,-4.3513,-4.3531,-4.3479,-4.3479,-4.3479,-4.3479,-4.3479,-4.3479,-4.3479,-4.3479,-4.3479,-4.3479,-4.3479,-4.3479,-4.3479,-4.3479,-4.3479,-4.3479,-4.3479,-4.3479,-4.3712,-4.4058,-4.4793,-4.5129,-4.5251,-4.5485,-4.5594,-4.5594,-4.5594,-4.5594,-4.5594,-4.5594,-4.5594,-4.5594,-4.5594,-4.5665,-4.5763,-4.5861,-4.5971,-4.611,-4.6203,-4.6269,-4.6289,-4.6289,-4.6289,-4.6289,-4.6289,-4.6289,-4.6289,-4.6289,-4.6289,-4.6289,-4.6289,-4.6269,-4.6247,-4.612,-4.6024,-4.5951,-4.5842,-4.5749,-4.5718,-4.5685,-4.5612,-4.5594,-4.5594,-4.5594,-4.5594,-4.5594,-4.5594,-4.5594,-4.5594,-4.5594,-4.5594,-4.5594,-4.5594,-4.5594,-4.5594,-4.5594,-4.5594,-4.5594,-4.5594,-4.5594,-4.5594,-4.5594,-4.5594,-4.5594,-4.5594,-4.5594,-4.5586,-4.5586,-4.5586,-4.5586,-4.5586,-4.5586,-4.5577,-4.5577,-4.5513,-4.5495,-4.5531,-4.5577,-4.5504,-4.5243,-4.5055,-4.5096,-4.5201,-4.5118,-4.5019,-4.5019,-4.4977,-4.4793,-4.4618,-4.4487,-4.4359,-4.3958,-4.3629,-4.358,-4.3563,-4.3531,-4.3479,-4.3479,-4.3479,-4.3479,-4.3479,-4.3479,-4.3479,-4.3479,-4.3479,-4.3479,-4.3479,-4.3479,-4.3479,-4.3479,-4.3479,-4.3479,-4.3479]},{"header":{"parameterUnit":"m.s-1","parameterCategory":1,"la1":31.0,"la2":29.5877,"lo1":-88.7671,"lo2":-86.6584,"dy":0.0162,"dx":0.0185,"nx":115,"ny":88,"refTime":"2024-04-15T06:00:00:Z","depth":0,"parameterNumber":3,"parameterNumberName":"V-component_of_WINDS"},"data":[0.0,0.0,0.0,0.0,0.0,0.0,0.0,0.0,0.0,0.0,0.0,0.0,0.0,0.0,0.0,0.0,0.0,0.0,0.0,0.0,0.0,0.0,0.0,0.0,0.0,0.0,0.0,0.0,0.0,0.0,0.0,0.0,0.0,0.0,0.0,0.0,0.0,0.0,0.0,0.0,0.0,0.0,0.0,0.0,0.0,0.0,0.0,0.0,0.0,0.0,0.0,0.0,0.0,0.0,0.0,0.0,0.0,0.0,0.0,0.0,0.0,0.0,0.0,0.0,0.0,0.0,0.0,0.0,0.0,0.0,0.0,0.0,0.0,0.0,0.0,0.0,0.0,0.0,0.0,0.0,0.0,0.0,0.0,0.0,0.0,0.0,0.0,0.0,0.0,0.0,0.0,0.0,0.0,0.0,0.0,0.0,0.0,0.0,0.0,0.0,0.0,0.0,0.0,0.0,0.0,0.0,0.0,0.0,0.0,0.0,0.0,0.0,0.0,0.0,0.0,0.0,0.0,0.0,0.0,0.0,0.0,0.0,0.0,0.0,0.0,0.0,0.0,0.0,0.0,0.0,0.0,0.0,0.0,0.0,0.0,0.0,0.0,0.0,0.0,0.0,0.0,0.0,0.0,0.0,0.0,0.0,0.0,0.0,0.0,0.0,0.0,0.0,0.0,0.0,0.0,0.0,0.0,0.0,0.0,0.0,0.0,0.0,0.0,0.0,0.0,0.0,0.0,0.0,0.0,0.0,0.0,0.0,0.0,0.0,0.0,0.0,0.0,0.0,0.0,0.0,0.0,0.0,0.0,0.0,0.0,0.0,0.0,0.0,0.0,0.0,0.0,0.0,0.0,0.0,0.0,0.0,0.0,0.0,0.0,0.0,0.0,0.0,0.0,0.0,0.0,0.0,0.0,0.0,0.0,0.0,0.0,0.0,0.0,0.0,0.0,0.0,0.0,0.0,0.0,0.0,0.0,0.0,0.0,0.0,0.0,0.0,0.0,0.0,0.0,0.0,0.0,0.0,0.0,0.0,0.0,0.0,0.0,0.0,0.0,0.0,0.0,0.0,0.0,0.0,0.0,0.0,0.0,0.0,0.0,0.0,0.0,0.0,0.0,0.0,0.0,0.0,0.0,0.0,0.0,0.0,0.0,0.0,0.0,0.0,0.0,0.0,0.0,0.0,0.0,0.0,0.0,0.0,0.0,0.0,0.0,0.0,0.0,0.0,0.0,0.0,0.0,0.0,0.0,0.0,0.0,0.0,0.0,0.0,0.0,0.0,0.0,0.0,0.0,0.0,0.0,0.0,0.0,0.0,0.0,0.0,0.0,0.0,0.0,0.0,0.0,0.0,0.0,0.0,0.0,0.0,0.0,0.0,0.0,0.0,0.0,0.0,0.0,0.0,0.0,0.0,0.0,0.0,0.0,0.0,0.0,0.0,0.0,0.0,0.0,0.0,0.0,0.0,0.0,0.0,0.0,0.0,0.0,0.0,0.0,0.0,0.0,0.0,0.0,0.0,0.0,0.0,0.0,0.0,0.0,0.0,0.0,0.0,0.0,0.0,0.0,0.0,0.0,0.0,0.0,0.0,0.0,0.0,0.0,0.0,0.0,0.0,0.0,0.0,0.0,0.0,0.0,0.0,0.0,0.0,0.0,0.0,0.0,0.0,0.0,0.0,0.0,0.0,0.0,0.0,0.0,0.0,0.0,0.0,0.0,0.0,0.0,0.0,0.0,0.0,0.0,0.0,0.0,0.0,0.0,0.0,0.0,0.0,0.0,0.0,0.0,0.0,0.0,0.0,0.0,0.0,0.0,0.0,0.0,0.0,0.0,0.0,0.0,0.0,0.0,0.0,0.0,0.0,0.0,0.0,0.0,0.0,0.0,0.0,0.0,0.0,0.0,0.0,0.0,0.0,0.0,0.0,0.0,0.0,0.0,0.0,0.0,0.0,0.0,0.0,0.0,0.0,0.0,0.0,0.0,0.0,0.0,0.0,0.0,0.0,0.0,0.0,0.0,0.0,0.0,0.0,0.0,0.0,0.0,0.0,0.0,0.0,0.0,0.0,0.0,0.0,0.0,0.0,0.0,0.0,0.0,0.0,0.0,0.0,0.0,0.0,0.0,0.0,0.0,0.0,0.0,0.0,0.0,0.0,0.0,0.0,0.0,0.0,0.0,0.0,0.0,0.0,0.0,0.0,0.0,0.0,0.0,0.0,0.0,0.0,0.0,0.0,0.0,0.0,0.0,0.0,0.0,0.0,0.0,0.0,0.0,0.0,0.0,0.0,0.0,0.0,0.0,0.0,0.0,0.0,0.0,0.0,0.0,0.0,0.0,0.0,0.0,0.0,0.0,0.0,0.0,0.0,0.0,0.0,0.0,0.0,0.0,0.0,0.0,0.0,0.0,0.0,0.0,0.0,0.0,0.0,0.0,0.0,0.0,0.0,0.0,0.0,0.0,0.0,0.0,0.0,0.0,0.0,0.0,0.0,0.0,0.0,0.0,0.0,0.0,0.0,0.0,0.0,0.0,0.0,0.0,0.0,0.0,0.0,0.0,0.0,0.0,0.0,0.0,0.0,0.0,0.0,0.0,0.0,0.0,0.0,0.0,0.0,0.0,0.0,0.0,0.0,0.0,0.0,0.0,0.0,0.0,0.0,0.0,0.0,0.0,0.0,0.0,0.0,0.0,0.0,0.0,0.0,0.0,0.0,0.0,0.0,0.0,0.0,0.0,0.0,0.0,0.0,0.0,0.0,0.0,0.0,0.0,0.0,0.0,0.0,0.0,0.0,0.0,0.0,0.0,0.0,0.0,0.0,0.0,0.0,0.0,0.0,0.0,0.0,0.0,0.0,0.0,0.0,0.0,0.0,0.0,0.0,0.0,0.0,0.0,0.0,0.0,0.0,0.0,0.0,0.0,0.0,0.0,0.0,0.0,0.0,0.0,0.0,0.0,0.0,0.0,0.0,0.0,0.0,0.0,0.0,0.0,0.0,0.0,0.0,0.0,0.0,0.0,0.0,0.0,0.0,0.0,0.0,0.0,0.0,0.0,0.0,0.0,0.0,0.0,0.0,0.0,0.0,0.0,0.0,0.0,0.0,0.0,0.0,0.0,0.0,0.0,0.0,0.0,0.0,0.0,0.0,0.0,0.0,0.0,0.0,0.0,0.0,0.0,0.0,0.0,0.0,0.0,0.0,0.0,0.0,0.0,0.0,0.0,0.0,0.0,0.0,0.0,0.0,0.0,0.0,0.0,0.0,0.0,0.0,0.0,0.0,0.0,0.0,0.0,0.0,0.0,0.0,0.0,0.0,0.0,0.0,0.0,0.0,0.0,0.0,0.0,0.0,0.0,0.0,0.0,0.0,0.0,0.0,0.0,0.0,0.0,0.0,0.0,0.0,0.0,0.0,0.0,0.0,0.0,0.0,0.0,0.0,0.0,0.0,0.0,0.0,0.0,0.0,0.0,0.0,0.0,0.0,0.0,0.0,0.0,0.0,0.0,0.0,0.0,0.0,0.0,0.0,0.0,0.0,0.0,0.0,0.0,0.0,0.0,0.0,0.0,0.0,0.0,0.0,0.0,0.0,0.0,0.0,0.0,0.0,0.0,0.0,0.0,0.0,0.0,0.0,0.0,0.0,0.0,0.0,0.0,0.0,0.0,0.0,0.0,0.0,0.0,0.0,0.0,0.0,0.0,0.0,0.0,0.0,0.0,0.0,0.0,0.0,0.0,0.0,0.0,0.0,0.0,0.0,0.0,0.0,0.0,0.0,0.0,0.0,0.0,0.0,0.0,0.0,0.0,0.0,0.0,0.0,0.0,0.0,0.0,0.0,0.0,0.0,0.0,0.0,0.0,0.0,0.0,0.0,0.0,0.0,0.0,0.0,0.0,0.0,0.0,0.0,0.0,0.0,0.0,0.0,0.0,0.0,0.0,0.0,0.0,0.0,0.0,0.0,0.0,0.0,0.0,0.0,0.0,0.0,0.0,0.0,0.0,0.0,0.0,0.0,0.0,0.0,0.0,0.0,0.0,0.0,0.0,0.0,0.0,0.0,0.0,0.0,0.0,0.0,0.0,0.0,0.0,0.0,0.0,0.0,0.0,0.0,0.0,0.0,0.0,0.0,0.0,0.0,0.0,0.0,0.0,0.0,0.0,0.0,0.0,0.0,0.0,0.0,0.0,0.0,0.0,0.0,0.0,0.0,0.0,0.0,0.0,0.0,0.0,0.0,0.0,0.0,0.0,0.0,0.0,0.0,0.0,0.0,-1.7252,0.0,0.0,0.0,0.0,0.0,0.0,0.0,0.0,0.0,0.0,0.0,0.0,0.0,0.0,0.0,0.0,0.0,0.0,0.0,0.0,0.0,0.0,0.0,0.0,0.0,0.0,0.0,0.0,0.0,0.0,0.0,0.0,0.0,0.0,0.0,0.0,0.0,0.0,0.0,0.0,0.0,0.0,0.0,0.0,0.0,0.0,0.0,0.0,0.0,0.0,0.0,0.0,0.0,0.0,0.0,0.0,0.0,0.0,0.0,0.0,0.0,0.0,0.0,0.0,0.0,0.0,0.0,0.0,0.0,0.0,0.0,0.0,0.0,0.0,0.0,0.0,0.0,0.0,0.0,0.0,0.0,0.0,0.0,0.0,0.0,0.0,0.0,0.0,0.0,0.0,0.0,0.0,0.0,0.0,0.0,0.0,0.0,0.0,0.0,0.0,0.0,0.0,0.0,0.0,0.0,0.0,0.0,0.0,0.0,0.0,-1.5908,-1.6552,-1.6611,-1.6929,-1.7582,0.0,0.0,0.0,0.0,0.0,0.0,0.0,0.0,0.0,0.0,0.0,0.0,0.0,0.0,0.0,0.0,0.0,0.0,0.0,0.0,0.0,0.0,0.0,0.0,0.0,0.0,0.0,0.0,0.0,0.0,0.0,0.0,0.0,0.0,0.0,0.0,0.0,0.0,0.0,0.0,0.0,0.0,0.0,0.0,0.0,0.0,0.0,0.0,0.0,0.0,0.0,0.0,0.0,0.0,0.0,0.0,0.0,0.0,0.0,0.0,0.0,0.0,0.0,0.0,0.0,0.0,0.0,0.0,0.0,0.0,0.0,0.0,0.0,0.0,0.0,0.0,0.0,0.0,0.0,0.0,0.0,0.0,0.0,0.0,0.0,0.0,0.0,0.0,0.0,0.0,0.0,0.0,0.0,0.0,0.0,0.0,0.0,0.0,0.0,0.0,0.0,0.0,0.0,0.0,0.0,0.0,0.0,0.0,0.0,0.0,0.0,0.0,-1.7259,-1.7259,-1.7582,0.0,0.0,0.0,0.0,0.0,0.0,0.0,0.0,0.0,0.0,0.0,0.0,0.0,0.0,0.0,0.0,0.0,0.0,0.0,0.0,0.0,0.0,0.0,0.0,0.0,0.0,0.0,0.0,0.0,0.0,0.0,0.0,0.0,0.0,0.0,0.0,0.0,0.0,0.0,0.0,0.0,0.0,0.0,0.0,0.0,0.0,0.0,0.0,0.0,0.0,0.0,0.0,0.0,0.0,0.0,0.0,0.0,0.0,0.0,0.0,0.0,0.0,0.0,0.0,0.0,0.0,0.0,0.0,0.0,0.0,0.0,0.0,0.0,0.0,0.0,0.0,0.0,0.0,0.0,0.0,0.0,0.0,0.0,0.0,0.0,0.0,0.0,0.0,0.0,0.0,0.0,0.0,0.0,0.0,0.0,0.0,0.0,0.0,0.0,0.0,0.0,0.0,0.0,0.0,0.0,0.0,0.0,0.0,0.0,0.0,-1.6227,-1.7529,-1.634,0.0,-1.747,0.0,0.0,0.0,0.0,0.0,0.0,0.0,0.0,0.0,0.0,0.0,0.0,0.0,0.0,0.0,0.0,0.0,0.0,0.0,0.0,0.0,0.0,0.0,0.0,0.0,0.0,0.0,0.0,0.0,0.0,0.0,0.0,0.0,0.0,0.0,0.0,0.0,0.0,0.0,0.0,0.0,0.0,0.0,0.0,0.0,0.0,0.0,0.0,0.0,0.0,0.0,0.0,0.0,0.0,0.0,0.0,0.0,0.0,0.0,0.0,0.0,0.0,0.0,0.0,0.0,0.0,0.0,0.0,0.0,0.0,0.0,0.0,0.0,0.0,0.0,0.0,0.0,0.0,0.0,0.0,0.0,0.0,0.0,0.0,0.0,0.0,0.0,0.0,0.0,0.0,0.0,0.0,0.0,0.0,0.0,0.0,0.0,0.0,0.0,0.0,0.0,0.0,0.0,0.0,0.0,0.0,0.0,0.0,0.0,0.0,-1.6988,-1.7589,-1.7041,-1.6982,0.0,0.0,0.0,0.0,0.0,0.0,0.0,0.0,0.0,0.0,0.0,0.0,0.0,0.0,0.0,0.0,0.0,0.0,0.0,0.0,0.0,0.0,0.0,0.0,0.0,0.0,0.0,0.0,0.0,0.0,0.0,0.0,0.0,0.0,0.0,0.0,0.0,0.0,0.0,0.0,0.0,0.0,0.0,0.0,0.0,0.0,0.0,0.0,0.0,0.0,0.0,0.0,0.0,0.0,0.0,0.0,0.0,0.0,0.0,0.0,0.0,0.0,0.0,0.0,0.0,0.0,0.0,0.0,0.0,0.0,0.0,0.0,0.0,0.0,0.0,0.0,0.0,0.0,0.0,0.0,0.0,0.0,0.0,0.0,0.0,0.0,0.0,0.0,0.0,0.0,0.0,0.0,0.0,0.0,0.0,0.0,0.0,0.0,0.0,0.0,0.0,0.0,0.0,0.0,0.0,0.0,0.0,0.0,0.0,0.0,-1.7206,-1.6982,-1.6988,-1.7371,-1.7589,-1.7589,0.0,0.0,0.0,0.0,0.0,0.0,0.0,0.0,0.0,0.0,0.0,0.0,0.0,0.0,0.0,0.0,0.0,0.0,0.0,0.0,0.0,0.0,0.0,0.0,0.0,0.0,0.0,0.0,0.0,0.0,0.0,0.0,0.0,0.0,0.0,0.0,0.0,0.0,0.0,0.0,0.0,0.0,0.0,0.0,0.0,0.0,0.0,0.0,0.0,0.0,0.0,0.0,0.0,0.0,0.0,0.0,0.0,0.0,0.0,0.0,0.0,0.0,0.0,0.0,0.0,0.0,0.0,0.0,0.0,0.0,0.0,0.0,0.0,0.0,0.0,0.0,0.0,0.0,0.0,0.0,0.0,0.0,0.0,0.0,0.0,0.0,0.0,0.0,0.0,0.0,0.0,0.0,0.0,0.0,0.0,0.0,0.0,0.0,0.0,0.0,0.0,0.0,0.0,0.0,0.0,0.0,0.0,0.0,-1.7529,-1.6234,-1.5524,-1.5583,-1.6876,-1.7589,0.0,0.0,0.0,0.0,0.0,0.0,0.0,0.0,0.0,0.0,0.0,0.0,0.0,0.0,0.0,0.0,0.0,0.0,0.0,0.0,0.0,0.0,0.0,0.0,0.0,0.0,0.0,0.0,0.0,0.0,0.0,0.0,0.0,0.0,0.0,0.0,0.0,0.0,0.0,0.0,0.0,0.0,0.0,0.0,0.0,0.0,0.0,0.0,0.0,0.0,0.0,0.0,0.0,0.0,0.0,0.0,0.0,0.0,0.0,0.0,0.0,0.0,0.0,0.0,0.0,0.0,0.0,0.0,0.0,0.0,0.0,0.0,0.0,0.0,0.0,0.0,0.0,0.0,0.0,0.0,0.0,0.0,0.0,0.0,0.0,0.0,0.0,0.0,0.0,0.0,0.0,0.0,0.0,0.0,0.0,0.0,0.0,0.0,0.0,0.0,0.0,0.0,0.0,0.0,0.0,0.0,0.0,0.0,0.0,-1.7582,-1.7094,-1.6823,-1.6823,-1.7312,-1.7589,0.0,0.0,0.0,0.0,0.0,0.0,0.0,0.0,0.0,0.0,0.0,0.0,0.0,0.0,0.0,0.0,0.0,0.0,0.0,0.0,0.0,0.0,0.0,0.0,0.0,0.0,0.0,0.0,0.0,0.0,0.0,0.0,0.0,0.0,0.0,0.0,0.0,0.0,0.0,0.0,0.0,0.0,0.0,0.0,0.0,0.0,0.0,0.0,0.0,0.0,0.0,0.0,0.0,0.0,0.0,0.0,0.0,0.0,0.0,0.0,0.0,0.0,0.0,0.0,0.0,0.0,0.0,0.0,0.0,0.0,0.0,0.0,0.0,0.0,0.0,0.0,0.0,0.0,0.0,0.0,0.0,0.0,0.0,0.0,0.0,0.0,0.0,0.0,0.0,0.0,0.0,0.0,0.0,0.0,0.0,0.0,0.0,0.0,0.0,0.0,0.0,0.0,0.0,0.0,0.0,0.0,0.0,0.0,0.0,-1.7589,0.0,-1.7589,-1.7589,-1.7589,-1.7589,0.0,0.0,0.0,0.0,0.0,0.0,0.0,0.0,0.0,0.0,0.0,0.0,0.0,0.0,0.0,0.0,0.0,0.0,0.0,0.0,0.0,0.0,0.0,0.0,0.0,0.0,0.0,0.0,0.0,0.0,0.0,0.0,0.0,0.0,0.0,0.0,0.0,0.0,0.0,0.0,0.0,0.0,0.0,0.0,0.0,0.0,0.0,0.0,0.0,0.0,0.0,0.0,0.0,0.0,0.0,0.0,0.0,0.0,0.0,0.0,0.0,0.0,0.0,0.0,0.0,0.0,0.0,0.0,0.0,0.0,0.0,0.0,0.0,0.0,0.0,0.0,0.0,0.0,0.0,0.0,0.0,0.0,0.0,0.0,0.0,0.0,0.0,0.0,0.0,0.0,0.0,0.0,0.0,0.0,0.0,0.0,0.0,0.0,0.0,0.0,0.0,0.0,0.0,0.0,0.0,0.0,0.0,0.0,-1.7589,-1.7589,-1.7589,-1.7589,-1.7589,-1.7589,-1.7589,0.0,0.0,0.0,0.0,0.0,0.0,0.0,0.0,0.0,0.0,0.0,0.0,0.0,0.0,0.0,0.0,0.0,0.0,0.0,0.0,0.0,0.0,0.0,0.0,0.0,0.0,0.0,0.0,0.0,0.0,0.0,0.0,0.0,0.0,0.0,0.0,0.0,0.0,0.0,0.0,0.0,0.0,0.0,0.0,0.0,0.0,0.0,0.0,0.0,0.0,0.0,0.0,0.0,0.0,0.0,0.0,0.0,0.0,0.0,0.0,0.0,0.0,0.0,0.0,0.0,0.0,0.0,0.0,0.0,0.0,0.0,0.0,0.0,0.0,0.0,0.0,0.0,0.0,0.0,0.0,0.0,0.0,0.0,0.0,0.0,0.0,0.0,0.0,0.0,0.0,0.0,0.0,0.0,0.0,0.0,0.0,0.0,0.0,0.0,0.0,0.0,0.0,0.0,0.0,0.0,0.0,0.0,0.0,0.0,-1.7589,-1.7589,-1.7589,-1.7589,-1.7589,-1.7589,0.0,0.0,0.0,0.0,0.0,0.0,0.0,0.0,0.0,0.0,0.0,0.0,0.0,0.0,0.0,0.0,0.0,0.0,0.0,0.0,0.0,0.0,0.0,0.0,0.0,0.0,0.0,0.0,0.0,0.0,0.0,0.0,0.0,0.0,0.0,0.0,0.0,0.0,0.0,0.0,0.0,0.0,0.0,0.0,0.0,0.0,0.0,0.0,0.0,0.0,0.0,0.0,0.0,0.0,0.0,0.0,0.0,0.0,0.0,0.0,0.0,0.0,0.0,0.0,0.0,0.0,0.0,0.0,0.0,0.0,0.0,0.0,0.0,0.0,0.0,0.0,0.0,0.0,0.0,0.0,0.0,0.0,0.0,0.0,0.0,0.0,0.0,0.0,0.0,0.0,0.0,0.0,0.0,0.0,0.0,0.0,0.0,0.0,0.0,0.0,0.0,0.0,0.0,0.0,0.0,0.0,0.0,0.0,0.0,-1.7589,-1.7589,-1.7589,-1.7589,-1.7589,-1.7589,-1.7589,0.0,0.0,0.0,0.0,0.0,0.0,0.0,0.0,0.0,0.0,0.0,0.0,0.0,0.0,0.0,0.0,0.0,0.0,0.0,0.0,0.0,0.0,0.0,0.0,0.0,0.0,0.0,0.0,0.0,0.0,0.0,0.0,0.0,0.0,0.0,0.0,0.0,0.0,0.0,0.0,0.0,0.0,0.0,0.0,0.0,0.0,0.0,0.0,0.0,0.0,0.0,0.0,0.0,0.0,0.0,0.0,0.0,0.0,0.0,0.0,0.0,0.0,0.0,0.0,0.0,0.0,0.0,0.0,0.0,0.0,0.0,0.0,0.0,0.0,0.0,0.0,0.0,0.0,0.0,0.0,0.0,0.0,0.0,0.0,0.0,0.0,0.0,0.0,0.0,0.0,0.0,0.0,0.0,0.0,0.0,0.0,0.0,0.0,0.0,0.0,0.0,0.0,0.0,0.0,0.0,0.0,0.0,0.0,-1.7589,-1.7589,-1.7589,-1.7589,-1.7589,-1.7589,0.0,0.0,0.0,0.0,0.0,0.0,0.0,0.0,0.0,0.0,0.0,0.0,0.0,0.0,0.0,0.0,0.0,0.0,0.0,0.0,0.0,0.0,0.0,0.0,0.0,0.0,0.0,0.0,0.0,0.0,0.0,0.0,0.0,0.0,0.0,0.0,0.0,0.0,0.0,0.0,0.0,0.0,0.0,0.0,0.0,0.0,0.0,0.0,0.0,0.0,0.0,0.0,0.0,0.0,0.0,0.0,0.0,0.0,0.0,0.0,0.0,0.0,0.0,0.0,0.0,0.0,0.0,0.0,0.0,0.0,0.0,0.0,0.0,0.0,0.0,0.0,0.0,0.0,0.0,0.0,0.0,0.0,0.0,0.0,0.0,0.0,0.0,0.0,0.0,0.0,0.0,0.0,0.0,0.0,0.0,0.0,0.0,0.0,0.0,0.0,0.0,0.0,0.0,0.0,0.0,0.0,0.0,0.0,0.0,-1.7589,-1.7589,-1.7589,-1.7589,-1.7589,-1.7589,0.0,0.0,0.0,0.0,0.0,0.0,0.0,0.0,0.0,0.0,0.0,0.0,0.0,0.0,0.0,0.0,0.0,0.0,0.0,0.0,0.0,0.0,0.0,0.0,0.0,0.0,0.0,0.0,0.0,0.0,0.0,0.0,0.0,0.0,0.0,0.0,0.0,0.0,0.0,0.0,0.0,0.0,0.0,0.0,0.0,0.0,0.0,0.0,0.0,0.0,0.0,0.0,0.0,0.0,0.0,0.0,0.0,0.0,0.0,0.0,0.0,0.0,0.0,0.0,0.0,0.0,0.0,0.0,0.0,0.0,0.0,0.0,0.0,0.0,0.0,0.0,0.0,0.0,0.0,0.0,0.0,0.0,0.0,0.0,0.0,0.0,0.0,0.0,0.0,0.0,0.0,0.0,0.0,0.0,0.0,0.0,0.0,0.0,0.0,0.0,0.0,0.0,0.0,0.0,0.0,0.0,0.0,0.0,-1.7589,-1.7589,-1.7589,-1.7589,-1.7589,-1.7589,-1.7589,0.0,0.0,0.0,0.0,0.0,0.0,0.0,0.0,0.0,0.0,0.0,0.0,0.0,0.0,0.0,0.0,0.0,0.0,0.0,0.0,0.0,0.0,0.0,0.0,0.0,0.0,0.0,0.0,0.0,0.0,0.0,0.0,0.0,0.0,0.0,0.0,0.0,0.0,0.0,0.0,0.0,0.0,0.0,0.0,0.0,0.0,0.0,0.0,0.0,0.0,0.0,0.0,0.0,0.0,0.0,0.0,0.0,0.0,0.0,0.0,0.0,0.0,0.0,0.0,0.0,0.0,0.0,0.0,0.0,0.0,0.0,0.0,0.0,0.0,0.0,0.0,0.0,0.0,0.0,0.0,0.0,0.0,0.0,0.0,0.0,0.0,0.0,0.0,0.0,0.0,0.0,0.0,0.0,0.0,0.0,0.0,0.0,0.0,0.0,0.0,0.0,0.0,0.0,0.0,0.0,0.0,0.0,0.0,-1.7589,-1.7589,-1.7589,-1.7589,-1.7589,-1.7589,-1.7589,0.0,0.0,0.0,0.0,0.0,0.0,0.0,0.0,0.0,0.0,0.0,0.0,0.0,0.0,0.0,0.0,0.0,0.0,0.0,0.0,0.0,0.0,0.0,0.0,0.0,0.0,0.0,0.0,0.0,0.0,0.0,0.0,0.0,0.0,0.0,0.0,0.0,0.0,0.0,0.0,0.0,0.0,0.0,0.0,0.0,0.0,0.0,0.0,0.0,0.0,0.0,0.0,0.0,0.0,0.0,0.0,0.0,0.0,0.0,0.0,0.0,0.0,0.0,0.0,0.0,0.0,0.0,0.0,0.0,0.0,0.0,0.0,0.0,0.0,0.0,0.0,0.0,0.0,0.0,0.0,0.0,0.0,0.0,0.0,0.0,0.0,0.0,0.0,0.0,0.0,0.0,0.0,0.0,0.0,0.0,0.0,0.0,0.0,0.0,0.0,0.0,0.0,0.0,0.0,0.0,0.0,0.0,0.0,-1.7589,-1.7589,-1.7589,-1.7589,-1.7589,-1.7589,-1.7589,0.0,0.0,0.0,0.0,0.0,0.0,0.0,0.0,0.0,0.0,0.0,0.0,0.0,0.0,0.0,0.0,0.0,0.0,0.0,0.0,0.0,0.0,0.0,0.0,0.0,0.0,0.0,0.0,0.0,0.0,0.0,0.0,0.0,0.0,0.0,0.0,0.0,0.0,0.0,0.0,0.0,0.0,0.0,0.0,0.0,0.0,0.0,0.0,-2.3652,0.0,0.0,0.0,0.0,0.0,0.0,0.0,0.0,0.0,0.0,0.0,0.0,0.0,0.0,0.0,0.0,0.0,0.0,0.0,0.0,0.0,0.0,0.0,0.0,0.0,0.0,0.0,0.0,0.0,0.0,0.0,0.0,0.0,0.0,0.0,0.0,0.0,0.0,0.0,0.0,0.0,0.0,0.0,0.0,0.0,0.0,0.0,0.0,0.0,0.0,0.0,0.0,0.0,0.0,0.0,0.0,0.0,0.0,0.0,-1.7589,-1.7589,-1.7589,-1.7589,-1.7582,-1.7501,-1.7442,0.0,0.0,0.0,0.0,0.0,0.0,0.0,0.0,0.0,0.0,0.0,0.0,0.0,0.0,0.0,0.0,0.0,0.0,0.0,0.0,0.0,0.0,0.0,0.0,0.0,0.0,0.0,0.0,0.0,0.0,0.0,0.0,0.0,0.0,0.0,0.0,0.0,0.0,0.0,0.0,0.0,0.0,0.0,0.0,0.0,0.0,0.0,0.0,0.0,0.0,0.0,0.0,0.0,0.0,0.0,0.0,0.0,0.0,0.0,0.0,0.0,0.0,0.0,0.0,0.0,0.0,0.0,0.0,0.0,0.0,0.0,0.0,0.0,0.0,0.0,0.0,0.0,0.0,0.0,0.0,0.0,0.0,0.0,0.0,0.0,0.0,0.0,0.0,0.0,0.0,0.0,0.0,0.0,0.0,0.0,0.0,0.0,0.0,0.0,0.0,0.0,0.0,0.0,0.0,0.0,0.0,0.0,-1.7589,-1.7589,-1.7589,-1.7589,-1.7562,-1.7515,-1.7333,-1.7293,-1.7435,0.0,0.0,0.0,0.0,0.0,0.0,0.0,0.0,0.0,0.0,0.0,0.0,0.0,0.0,0.0,0.0,0.0,0.0,0.0,0.0,0.0,0.0,0.0,0.0,0.0,0.0,0.0,0.0,0.0,0.0,0.0,0.0,0.0,0.0,0.0,0.0,0.0,0.0,-2.3188,-2.3613,0.0,0.0,0.0,0.0,0.0,0.0,0.0,0.0,-2.4463,0.0,0.0,0.0,0.0,0.0,0.0,0.0,0.0,0.0,0.0,0.0,0.0,0.0,0.0,0.0,0.0,0.0,0.0,0.0,0.0,0.0,0.0,0.0,0.0,0.0,0.0,0.0,0.0,0.0,0.0,0.0,0.0,0.0,0.0,0.0,0.0,0.0,0.0,0.0,0.0,0.0,0.0,0.0,0.0,0.0,0.0,0.0,0.0,0.0,0.0,0.0,0.0,0.0,0.0,0.0,0.0,-1.7589,-1.7589,-1.7589,-1.7589,-1.7589,-1.7468,-1.7286,-1.7226,-1.7105,-1.686,0.0,0.0,0.0,0.0,0.0,0.0,0.0,0.0,0.0,0.0,0.0,0.0,0.0,0.0,0.0,0.0,0.0,0.0,0.0,0.0,0.0,0.0,0.0,0.0,0.0,0.0,0.0,0.0,0.0,0.0,0.0,0.0,0.0,0.0,0.0,0.0,0.0,0.0,0.0,-2.4043,-2.4463,0.0,0.0,0.0,0.0,0.0,0.0,0.0,0.0,-2.4394,0.0,0.0,0.0,0.0,0.0,0.0,0.0,0.0,0.0,0.0,0.0,0.0,0.0,0.0,0.0,0.0,0.0,0.0,0.0,0.0,0.0,0.0,0.0,0.0,0.0,0.0,0.0,0.0,0.0,0.0,0.0,0.0,0.0,0.0,0.0,0.0,0.0,0.0,0.0,0.0,0.0,0.0,0.0,0.0,0.0,0.0,0.0,0.0,0.0,0.0,0.0,0.0,0.0,0.0,0.0,-1.6901,-1.6907,-1.6901,-1.6907,-1.7048,-1.6987,-1.6757,-1.654,-1.6681,0.0,0.0,0.0,0.0,0.0,0.0,0.0,0.0,0.0,0.0,0.0,0.0,0.0,0.0,0.0,0.0,0.0,0.0,0.0,0.0,0.0,0.0,0.0,0.0,0.0,0.0,0.0,0.0,0.0,0.0,0.0,0.0,0.0,0.0,0.0,0.0,0.0,0.0,0.0,0.0,-2.4482,-2.4912,-2.5352,0.0,0.0,0.0,0.0,0.0,0.0,-2.5234,-2.5277,0.0,0.0,0.0,0.0,0.0,0.0,0.0,0.0,0.0,0.0,0.0,0.0,0.0,0.0,0.0,0.0,0.0,0.0,0.0,0.0,0.0,0.0,0.0,0.0,0.0,0.0,0.0,0.0,0.0,0.0,0.0,0.0,0.0,0.0,0.0,0.0,0.0,0.0,0.0,0.0,0.0,0.0,0.0,0.0,0.0,0.0,0.0,0.0,0.0,0.0,0.0,0.0,0.0,0.0,0.0,-1.6186,-1.6288,-1.6273,-1.6335,-1.6553,-1.654,-1.6192,-1.5952,-1.6277,0.0,0.0,0.0,0.0,0.0,0.0,0.0,0.0,0.0,0.0,0.0,0.0,0.0,0.0,0.0,0.0,0.0,0.0,0.0,0.0,0.0,0.0,0.0,0.0,0.0,0.0,0.0,0.0,0.0,0.0,0.0,0.0,0.0,0.0,0.0,0.0,0.0,0.0,0.0,0.0,0.0,-2.5342,-2.5635,-2.5684,0.0,0.0,0.0,0.0,-2.5684,-2.5927,0.0,0.0,0.0,0.0,0.0,0.0,0.0,0.0,0.0,0.0,0.0,0.0,0.0,0.0,0.0,0.0,0.0,0.0,0.0,0.0,0.0,0.0,0.0,0.0,0.0,0.0,0.0,0.0,0.0,0.0,0.0,0.0,0.0,0.0,0.0,0.0,0.0,0.0,0.0,0.0,0.0,0.0,0.0,0.0,0.0,0.0,0.0,0.0,0.0,0.0,0.0,0.0,0.0,0.0,0.0,0.0,-1.5885,-1.6146,-1.6273,-1.6342,-1.6553,-1.6446,-1.5899,-1.5798,-1.6083,0.0,0.0,0.0,0.0,0.0,0.0,0.0,0.0,0.0,0.0,0.0,0.0,0.0,0.0,0.0,0.0,0.0,0.0,0.0,0.0,0.0,0.0,0.0,0.0,0.0,0.0,0.0,0.0,0.0,0.0,0.0,0.0,0.0,0.0,0.0,0.0,0.0,0.0,0.0,0.0,0.0,-2.5625,-2.5684,-2.5684,-2.5684,0.0,0.0,-2.5684,-2.5684,-2.662,0.0,0.0,0.0,0.0,0.0,0.0,0.0,0.0,0.0,0.0,0.0,0.0,0.0,0.0,0.0,0.0,0.0,0.0,0.0,0.0,0.0,0.0,0.0,0.0,0.0,0.0,0.0,0.0,0.0,0.0,0.0,0.0,0.0,0.0,0.0,0.0,0.0,0.0,0.0,0.0,0.0,0.0,0.0,0.0,0.0,0.0,0.0,0.0,0.0,0.0,0.0,0.0,0.0,0.0,0.0,-1.5038,-1.5045,-1.5217,-1.5357,-1.5571,-1.5698,-1.5598,-1.5344,-1.5177,-1.5662,0.0,0.0,0.0,0.0,0.0,0.0,0.0,0.0,0.0,0.0,0.0,0.0,0.0,0.0,0.0,0.0,0.0,0.0,0.0,0.0,0.0,0.0,0.0,0.0,0.0,0.0,0.0,0.0,0.0,0.0,0.0,0.0,0.0,0.0,0.0,0.0,0.0,0.0,0.0,0.0,0.0,0.0,-2.5654,-2.5684,0.0,0.0,0.0,-2.5917,-2.6668,0.0,0.0,0.0,0.0,0.0,0.0,0.0,0.0,0.0,0.0,0.0,0.0,0.0,0.0,0.0,0.0,0.0,0.0,0.0,0.0,0.0,0.0,0.0,0.0,0.0,0.0,0.0,0.0,0.0,0.0,0.0,0.0,0.0,0.0,0.0,0.0,0.0,0.0,0.0,0.0,0.0,0.0,0.0,0.0,0.0,0.0,0.0,0.0,0.0,0.0,0.0,0.0,0.0,0.0,0.0,0.0,0.0,-1.4409,-1.4482,-1.4623,-1.485,-1.4968,-1.4968,-1.4894,-1.4636,0.0,0.0,0.0,0.0,0.0,0.0,0.0,0.0,0.0,0.0,0.0,0.0,0.0,0.0,0.0,0.0,0.0,0.0,0.0,0.0,0.0,0.0,0.0,0.0,0.0,0.0,0.0,-2.0615,0.0,0.0,0.0,0.0,0.0,0.0,0.0,0.0,0.0,0.0,0.0,0.0,0.0,0.0,-2.5352,-2.5645,-2.5684,-2.5684,0.0,0.0,-2.6524,-2.7458,-2.8143,-2.9131,0.0,0.0,0.0,0.0,0.0,0.0,0.0,0.0,0.0,0.0,0.0,0.0,0.0,0.0,0.0,0.0,0.0,0.0,0.0,0.0,0.0,0.0,0.0,0.0,0.0,0.0,0.0,0.0,0.0,0.0,0.0,0.0,0.0,0.0,0.0,0.0,0.0,0.0,0.0,0.0,0.0,0.0,0.0,0.0,0.0,0.0,0.0,0.0,0.0,0.0,0.0,0.0,0.0,0.0,0.0,-1.4122,-1.4382,-1.4529,-1.4556,-1.4823,-1.483,-1.4563,-1.4479,-1.5376,0.0,0.0,0.0,0.0,0.0,0.0,0.0,0.0,0.0,0.0,0.0,0.0,0.0,0.0,0.0,0.0,0.0,0.0,0.0,0.0,0.0,0.0,0.0,0.0,0.0,0.0,0.0,0.0,0.0,0.0,0.0,0.0,0.0,0.0,0.0,0.0,0.0,0.0,0.0,0.0,0.0,-2.5654,-2.5684,-2.5684,-2.5684,0.0,0.0,-2.7494,-2.7589,-2.9498,-3.1045,-3.1166,0.0,0.0,0.0,0.0,0.0,0.0,0.0,0.0,0.0,0.0,0.0,0.0,0.0,0.0,0.0,0.0,0.0,0.0,0.0,0.0,0.0,0.0,0.0,0.0,0.0,0.0,0.0,0.0,0.0,0.0,0.0,0.0,0.0,0.0,0.0,0.0,0.0,0.0,0.0,0.0,0.0,0.0,0.0,0.0,0.0,0.0,0.0,0.0,0.0,0.0,0.0,0.0,0.0,-1.4088,-1.4088,-1.4195,-1.4342,-1.4509,-1.4462,-1.4449,-1.4516,-1.4349,-1.4895,0.0,0.0,0.0,0.0,0.0,0.0,0.0,0.0,0.0,0.0,0.0,0.0,0.0,0.0,0.0,0.0,0.0,0.0,0.0,0.0,0.0,0.0,0.0,0.0,0.0,0.0,0.0,0.0,-2.0615,-2.0615,-2.0615,0.0,0.0,0.0,0.0,0.0,0.0,0.0,0.0,0.0,0.0,-2.507,-2.5615,-2.5967,0.0,0.0,-2.7171,-2.8238,-2.8976,-3.0285,-3.1456,-3.2239,-3.2754,0.0,0.0,0.0,0.0,0.0,0.0,0.0,0.0,0.0,0.0,0.0,0.0,0.0,0.0,0.0,0.0,0.0,0.0,0.0,0.0,0.0,0.0,0.0,0.0,0.0,0.0,0.0,0.0,0.0,0.0,0.0,0.0,0.0,0.0,0.0,0.0,0.0,0.0,0.0,0.0,0.0,0.0,0.0,0.0,0.0,0.0,0.0,0.0,0.0,0.0,0.0,0.0,-1.4088,-1.4088,-1.4088,-1.4182,-1.4389,-1.4195,-1.4182,-1.4376,-1.4195,-1.4615,0.0,0.0,0.0,0.0,0.0,0.0,0.0,0.0,0.0,0.0,0.0,0.0,0.0,0.0,0.0,0.0,0.0,0.0,0.0,0.0,0.0,0.0,0.0,0.0,0.0,0.0,0.0,0.0,-2.0615,-2.0615,-2.0615,0.0,0.0,0.0,0.0,0.0,0.0,0.0,0.0,0.0,0.0,-2.4941,-2.5752,-2.6191,-2.6575,-2.7073,-2.8237,-2.9454,-3.0678,-3.1522,-3.234,-3.3177,0.0,0.0,0.0,0.0,0.0,0.0,0.0,0.0,0.0,0.0,0.0,0.0,0.0,0.0,0.0,0.0,0.0,0.0,0.0,0.0,0.0,0.0,0.0,0.0,0.0,0.0,0.0,0.0,0.0,0.0,-0.8489,0.0,0.0,0.0,0.0,0.0,0.0,0.0,0.0,0.0,0.0,0.0,0.0,0.0,0.0,0.0,0.0,0.0,0.0,0.0,0.0,0.0,0.0,-1.4088,-1.4088,-1.4088,-1.4095,-1.4102,-1.4088,-1.4095,-1.4102,-1.4088,-1.4608,-1.5696,0.0,0.0,0.0,0.0,0.0,0.0,0.0,0.0,0.0,0.0,0.0,0.0,0.0,0.0,0.0,0.0,0.0,0.0,0.0,0.0,0.0,0.0,0.0,0.0,0.0,0.0,-2.0615,-2.0615,-2.0615,0.0,0.0,0.0,0.0,0.0,0.0,0.0,0.0,0.0,0.0,-2.4785,-2.5371,-2.624,-2.6387,-2.6973,-2.8682,-2.9992,-3.1306,-3.2559,-3.3391,-3.384,0.0,0.0,0.0,0.0,0.0,0.0,0.0,0.0,0.0,0.0,0.0,0.0,0.0,0.0,0.0,0.0,0.0,0.0,0.0,0.0,0.0,0.0,0.0,0.0,0.0,0.0,0.0,-0.7896,-0.7892,0.0,0.0,0.0,0.0,0.0,0.0,0.0,0.0,0.0,0.0,0.0,-1.2592,-1.2504,0.0,0.0,0.0,0.0,0.0,0.0,0.0,0.0,0.0,0.0,0.0,0.0,-1.4088,-1.4088,-1.4088,-1.4088,-1.4088,-1.4088,-1.4088,-1.4088,-1.4088,-1.4943,-1.6731,0.0,0.0,0.0,0.0,0.0,0.0,0.0,0.0,0.0,0.0,0.0,0.0,0.0,0.0,0.0,0.0,0.0,0.0,0.0,0.0,0.0,0.0,0.0,0.0,0.0,-2.0615,0.0,0.0,0.0,0.0,0.0,0.0,0.0,0.0,0.0,0.0,0.0,-2.3521,-2.4307,-2.4795,-2.5429,-2.6269,-2.6631,-2.7441,0.0,0.0,0.0,0.0,0.0,0.0,0.0,0.0,0.0,0.0,0.0,0.0,0.0,0.0,-3.239,-3.2014,-3.1499,-3.1122,-3.1122,0.0,0.0,0.0,0.0,0.0,0.0,0.0,0.0,0.0,0.0,0.0,0.0,0.0,0.0,-0.7597,0.0,-0.7597,0.0,0.0,0.0,0.0,0.0,0.0,0.0,0.0,-1.1444,-1.1527,-1.1729,-1.2114,-1.2936,0.0,-1.4088,-1.4088,0.0,0.0,0.0,0.0,0.0,0.0,0.0,0.0,-1.4088,-1.4088,-1.4088,-1.4088,-1.4088,-1.4088,-1.4088,-1.4088,-1.4447,-1.5462,-1.722,-1.839,-1.9091,0.0,0.0,0.0,0.0,0.0,0.0,0.0,0.0,0.0,0.0,0.0,0.0,0.0,0.0,0.0,0.0,0.0,0.0,0.0,0.0,0.0,0.0,0.0,-2.0615,0.0,0.0,0.0,0.0,0.0,0.0,0.0,0.0,0.0,-2.206,-2.2715,-2.3584,-2.4717,-2.5117,-2.5674,-2.6689,0.0,0.0,0.0,0.0,0.0,0.0,0.0,-3.4956,-3.4956,-3.455,-3.4123,-3.3935,-3.3596,-3.3294,-3.3106,0.0,0.0,-3.2579,-3.2064,-3.1675,-3.1675,-3.1524,-3.1386,-3.1386,-3.1386,-3.182,0.0,0.0,0.0,0.0,0.0,0.0,0.0,0.0,-0.758,-0.7573,0.0,-0.7573,0.0,0.0,0.0,0.0,0.0,-0.9545,0.0,0.0,-0.9026,-0.9536,-1.0654,-1.1772,-1.2942,-1.4046,-1.4088,-1.4088,-1.4088,-1.4088,0.0,0.0,0.0,0.0,0.0,0.0,-1.4088,-1.4088,-1.4088,-1.4088,-1.4088,-1.4088,-1.413,-1.4208,-1.5164,-1.625,-1.7277,-1.8426,-1.9297,-1.9837,-1.9855,0.0,0.0,0.0,0.0,0.0,0.0,0.0,0.0,0.0,0.0,0.0,0.0,0.0,0.0,0.0,0.0,0.0,0.0,0.0,0.0,-2.0331,0.0,0.0,0.0,0.0,0.0,0.0,0.0,0.0,0.0,0.0,-2.2607,-2.2925,-2.3783,-2.546,0.0,0.0,0.0,0.0,-3.029,-3.2101,-3.3514,-3.4824,-3.6156,-3.5906,-3.552,-3.552,0.0,0.0,-3.3985,-3.3897,-3.3709,-3.3224,-3.3124,-3.3124,-3.3111,-3.2604,-3.2252,-3.2227,-3.1851,-3.1474,-3.1502,-3.1672,-3.2217,-0.3663,0.0,0.0,0.0,0.0,-0.7438,-0.7373,-0.7227,-0.7227,-0.7223,-0.723,-0.7272,0.0,0.0,0.0,0.0,0.0,0.0,-0.9662,-0.8978,-0.9749,-1.0269,-1.0654,-1.1766,-1.2936,-1.4082,-1.4088,-1.4088,-1.4088,-1.4088,-1.4088,-1.4088,0.0,0.0,0.0,0.0,-1.4088,-1.4088,-1.4088,-1.4088,-1.4088,-1.4088,-1.4454,-1.5213,-1.5992,-1.6938,-1.7978,-1.8805,-1.9293,-1.9473,-1.9473,0.0,0.0,0.0,0.0,0.0,0.0,0.0,0.0,0.0,0.0,0.0,0.0,0.0,0.0,0.0,0.0,0.0,0.0,0.0,-1.9463,-1.9853,-2.0098,0.0,0.0,0.0,0.0,0.0,0.0,0.0,0.0,0.0,-2.3799,-2.4248,-2.4814,0.0,0.0,-2.6943,-2.887,-2.9453,-3.0655,-3.3395,-3.4129,0.0,-3.6203,-3.6232,-3.6132,-3.6132,-3.5667,-3.4956,-3.406,-3.3909,-3.3721,-3.3181,-3.3124,-3.3124,-3.3111,-3.2943,-3.283,-3.2817,-3.2692,-3.2646,-3.2634,-3.3184,-3.3917,-0.2288,-0.4266,-0.5195,-0.6002,-0.6736,-0.725,-0.7373,-0.7231,-0.7231,-0.7197,-0.7095,-0.7095,-0.7095,-0.7095,-0.7095,0.0,0.0,0.0,-0.8834,-0.8233,-0.9874,-1.0567,-1.0697,-1.2248,-1.3379,-1.4088,-1.4088,-1.4088,-1.4088,-1.4088,-1.4088,-1.4088,0.0,0.0,-1.4088,-1.4088,-1.4088,-1.4088,-1.4088,-1.4088,-1.4088,-1.3968,-1.4179,-1.4689,-1.551,-1.6403,-1.7452,-1.7921,-1.8441,-1.8961,-1.8663,-1.8426,0.0,0.0,0.0,0.0,0.0,0.0,0.0,0.0,0.0,0.0,0.0,-1.8354,-1.8344,0.0,0.0,0.0,-1.8779,-1.917,-1.9502,-1.9766,0.0,0.0,0.0,0.0,0.0,0.0,0.0,-2.208,-2.3027,-2.3916,-2.459,-2.5049,-2.5557,-2.6113,-2.6475,-2.7431,-2.964,0.0,-3.1617,-3.4044,-3.4824,-3.5463,-3.6263,-3.6417,-3.6417,-3.6417,-3.5918,-3.5207,-3.4399,-3.406,-3.3721,-3.3244,-3.3124,-3.3124,-3.3124,-3.3124,-3.3124,-3.3124,-3.3124,-3.3124,-3.3124,-3.3641,-3.4275,-0.0734,-0.2023,-0.436,-0.5445,-0.5764,-0.7073,-0.7567,-0.7424,-0.7411,-0.7319,-0.7136,-0.7115,-0.7109,-0.7095,-0.7095,0.0,-0.7095,-0.7095,-0.7139,-0.7183,-0.9527,-1.0567,-1.0697,-1.2997,-1.4088,-1.4088,-1.4088,-1.4088,-1.4088,-1.4088,-1.4088,-1.4088,-1.4088,-1.4075,-1.4055,-1.4048,-1.4048,-1.4048,-1.4048,-1.4055,-1.4048,-1.372,-1.348,-1.3378,-1.4243,-1.5203,-1.6103,-1.6259,-1.6926,-1.8216,-1.7574,-1.7363,-1.7857,0.0,0.0,0.0,0.0,0.0,0.0,0.0,0.0,0.0,0.0,0.0,0.0,0.0,0.0,0.0,-1.8354,0.0,-1.9736,-1.9863,0.0,0.0,0.0,-2.0635,-2.0703,-2.1456,-2.2119,-2.2607,0.0,0.0,-2.5125,-2.5478,-2.5996,-2.6855,-2.6992,-2.785,-3.0087,-3.1476,-3.2844,-3.4385,-3.5619,-3.637,-3.6405,-3.6417,-3.638,-3.6292,-3.5881,-3.5295,-3.4726,-3.4236,-3.3709,-3.3212,-3.3124,-3.3124,-3.3124,-3.3124,-3.3124,-3.3124,-3.3124,-3.3124,-3.3124,-3.3283,-3.3869,-0.0164,-0.0643,-0.2207,-0.4048,-0.5996,-0.7519,-0.8024,-0.7875,-0.7756,-0.7624,-0.7482,-0.7366,-0.7251,-0.7095,-0.7095,-0.7095,-0.7095,-0.7095,-0.7095,-0.7268,-0.9527,-1.0567,-1.0697,-1.2997,-1.4088,-1.4088,-1.4088,-1.4088,-1.4088,-1.4088,-1.4088,-1.4088,-1.4088,-1.3975,-1.372,-1.3706,-1.3706,-1.3706,-1.3713,-1.3706,-1.37,-1.3427,-1.3663,-1.4389,-1.4378,-1.4833,-1.5852,-1.5632,-1.5665,-1.6007,-1.6457,-1.6824,-1.6925,-1.7623,0.0,0.0,0.0,0.0,0.0,0.0,0.0,0.0,0.0,-1.8008,-1.8008,0.0,-1.8008,0.0,-1.8354,-1.8685,-1.89,-1.9494,0.0,0.0,-2.04,-2.0869,-2.1535,-2.2041,-2.2773,-2.3838,-2.4521,-2.5078,-2.5469,-2.5625,-2.5888,-2.6465,-2.6816,-2.8046,-3.0919,-3.1867,-3.3193,-3.5391,-3.6118,-3.6405,-3.638,-3.6417,-3.6241,-3.5805,-3.5558,-3.5169,-3.4261,-3.3997,-3.3721,-3.3206,-3.3124,-3.3124,-3.3124,-3.3124,-3.3124,-3.3124,-3.3124,-3.3124,-3.3124,-3.3713,-3.4233,0.0,0.0,-0.1495,-0.294,-0.4479,-0.6447,-0.7525,-0.7884,-0.7845,-0.7729,-0.7594,-0.7512,-0.7424,-0.7297,-0.7301,-0.7305,-0.7244,-0.7241,-0.7207,-0.7231,-0.9527,-1.0567,-1.0697,-1.2997,-1.4088,-1.4088,-1.4088,-1.4088,-1.4088,-1.4088,-1.4088,-1.4088,-1.4088,-1.3941,-1.362,-1.3733,-1.38,-1.38,-1.3666,-1.354,-1.3407,-1.3153,-1.3428,-1.4246,-1.3672,-1.4051,-1.5488,-1.4508,-1.4514,-1.572,-1.593,-1.6367,-1.7201,-1.7725,-1.8008,0.0,0.0,0.0,0.0,0.0,0.0,0.0,0.0,0.0,0.0,0.0,-1.8061,-1.8237,-1.8461,-1.8754,-1.9134,-1.9639,-1.999,-2.0185,-2.0596,-2.1133,-2.1816,-2.2588,-2.3428,-2.4307,-2.4971,-2.5459,-2.5654,-2.5684,-2.6005,-2.6818,-2.727,-2.8481,-3.076,-3.1535,-3.2623,-3.5186,-3.5629,-3.5642,-3.5629,-3.5629,-3.5542,-3.5194,-3.4919,-3.4587,-3.401,-3.3684,-3.342,-3.3156,-3.3124,-3.3124,-3.3124,-3.3124,-3.3124,-3.3124,-3.3124,-3.3124,-3.3124,-3.3556,-3.3882,0.0,0.0,-0.1385,-0.2018,-0.2378,-0.4741,-0.6487,-0.7648,-0.7781,-0.7777,-0.7624,-0.7607,-0.7597,-0.7597,-0.7597,-0.7526,-0.745,-0.7404,-0.7319,-0.7262,-0.9393,-1.0463,-1.0697,-1.2863,-1.3955,-1.4088,-1.4088,-1.4088,-1.4088,-1.4088,-1.4088,-1.4088,-1.4088,-1.3961,-1.368,-1.3961,-1.411,-1.4028,-1.37,-1.342,-1.3206,-1.2911,-1.2972,-1.3441,-1.2739,-1.3091,-1.47,-1.32,-1.344,-1.5852,-1.5517,-1.5939,-1.7554,-1.7872,-1.8008,0.0,-1.8008,0.0,0.0,0.0,0.0,0.0,0.0,0.0,0.0,-1.8057,-1.8242,-1.8578,-1.8705,-1.9065,-1.9806,-1.9961,-2.0176,-2.0644,-2.0996,-2.1465,-2.208,-2.3115,-2.3994,-2.4531,-2.5216,-2.5684,-2.5684,-2.5684,-2.6149,-2.7309,-2.7781,-2.8775,-3.0547,-3.1165,-3.2158,-3.4384,-3.468,-3.4818,-3.4826,-3.4743,-3.4751,-3.4613,-3.4286,-3.3884,-3.3796,-3.3407,-3.3136,-3.3124,-3.3124,-3.3124,-3.3124,-3.3124,-3.3124,-3.3124,-3.3124,-3.3124,-3.3124,-3.3154,-3.3441,0.0,0.0,-0.0322,-0.1056,-0.2128,-0.3701,-0.53,-0.6831,-0.7769,-0.8028,-0.7767,-0.7648,-0.7597,-0.7597,-0.7597,-0.7584,-0.7556,-0.7556,-0.7475,-0.7374,-0.8747,-0.9814,-1.0659,-1.1986,-1.316,-1.4039,-1.4088,-1.4088,-1.4088,-1.4088,-1.4088,-1.4088,-1.4088,-1.4055,-1.4008,0.0,0.0,0.0,-1.34,-1.3267,-1.32,-1.2672,-1.2432,-1.2556,-1.2415,0.0,-1.2806,-1.2482,-1.2549,-1.312,-1.4442,0.0,0.0,0.0,0.0,0.0,0.0,0.0,0.0,0.0,0.0,0.0,-1.8008,-1.8008,-1.8018,-1.8286,-1.852,-1.8607,-1.9221,-1.9736,-1.9902,-2.0244,-2.0654,-2.1045,-2.1142,-2.1756,-2.3223,-2.3652,-2.4209,-2.5294,-2.5596,-2.5684,-2.5684,-2.5684,-2.6197,-2.7363,-2.7662,-2.8668,-3.0844,-3.1773,-3.2896,-3.4396,-3.4605,-3.4655,-3.468,-3.4643,-3.4474,-3.4173,-3.3997,-3.3734,-3.3345,-3.3181,-3.3124,-3.3124,-3.3124,-3.3124,-3.3124,-3.3124,-3.3124,-3.3124,-3.3124,-3.3124,-3.3124,-3.3124,-3.3154,0.0,0.0,0.0,-0.0374,0.0,-0.2467,-0.3839,-0.5415,-0.7313,-0.8069,-0.787,-0.7851,-0.7818,-0.7769,-0.7818,-0.7777,-0.7702,-0.7706,-0.7624,-0.7574,-0.8617,-0.937,-0.9932,-1.1564,-1.2589,-1.3245,-1.3822,-1.4088,-1.4088,-1.4088,-1.4088,-1.4088,-1.4088,-1.4088,-1.4088,-1.4088,-1.4015,-1.3861,-1.3434,-1.3206,-1.3186,-1.2612,-1.2519,-1.2952,-1.2519,0.0,0.0,0.0,0.0,0.0,0.0,0.0,0.0,-1.7476,0.0,-1.8008,-1.8008,-1.8008,-1.8008,-1.8008,-1.8008,-1.8008,-1.8169,-1.8286,-1.832,-1.8481,-1.8773,-1.9192,-1.964,-2.0,-2.0225,-2.0635,-2.0986,-2.1181,-2.1611,-2.2272,-2.3227,-2.3662,-2.4219,-2.5166,-2.54,-2.5478,-2.5654,-2.5684,-2.6245,-2.7363,-2.7589,-2.8459,-3.0666,-3.1618,-3.244,-3.3676,-3.3922,-3.3897,-3.3909,-3.3909,-3.3859,-3.3558,-3.3495,-3.3395,-3.3174,-3.3124,-3.3124,-3.3124,-3.3124,-3.3124,-3.3124,-3.3124,-3.3124,-3.3124,-3.3124,-3.3124,-3.3124,-3.3124,-3.3124,0.0,0.0,0.0,0.0,-0.0106,-0.1409,-0.2915,-0.4518,0.0,0.0,0.0,-0.7988,-0.7988,-0.7988,-0.7988,-0.7921,-0.7851,-0.7803,-0.7777,-0.7678,-0.8509,-0.8947,-0.9193,-1.0873,-1.1849,-1.2072,-1.3209,-1.3779,-1.3822,-1.3997,-1.4088,-1.4088,-1.4088,-1.4088,-1.4088,-1.4088,-1.4088,-1.4062,-1.3561,-1.326,-1.32,-1.2665,-1.2721,-1.3455,-1.2703,-1.2666,-1.3426,-1.2703,-1.3127,-1.4807,-1.5092,-1.5983,-1.7613,-1.7896,-1.8008,-1.8008,-1.8008,-1.8008,-1.8008,-1.8008,-1.8047,-1.8081,-1.8471,-1.8685,-1.8607,-1.8744,-1.9114,-1.9816,-1.998,-2.0215,-2.0683,-2.1006,-2.1268,-2.1405,-2.209,-2.2695,-2.3159,-2.3564,-2.4131,-2.493,-2.5135,-2.5234,-2.5615,-2.5684,-2.6197,-2.7268,-2.7589,-2.8308,-3.0406,-3.1359,-3.2062,-3.2996,-3.3275,-3.3174,-3.3149,-3.3187,-3.3124,-3.3187,-3.3149,-3.3124,-3.3124,-3.3124,-3.3124,-3.3124,-3.3124,-3.3124,-3.3124,-3.3124,-3.3124,-3.3124,-3.3124,-3.3124,-3.3124,-3.3124,-3.3124,0.0,0.0,0.0,0.0,-0.0107,-0.1461,-0.3427,-0.5829,-0.7335,-0.7988,-0.7988,-0.7988,-0.7988,-0.7988,-0.7988,-0.7978,-0.7958,-0.7958,-0.7877,-0.7784,-0.79,-0.8352,-0.9116,-0.9392,-1.0,-1.088,-1.1992,-1.2547,-1.2674,-1.3597,-1.4088,-1.4088,-1.4088,-1.4088,-1.4088,-1.4088,-1.4088,-1.4082,-1.372,-1.342,-1.3213,-1.2898,-1.2634,-1.2502,-1.2372,-1.2335,-1.2482,-1.2372,-1.2806,-1.3846,-1.4744,-1.5693,-1.674,-1.7579,-1.8008,-1.8008,-1.8008,-1.8008,-1.8008,-1.8008,-1.8164,-1.849,-1.8945,-1.9043,-1.8666,-1.928,-1.9785,-1.9922,-2.0254,-2.0654,-2.1084,-2.1171,-2.1531,-2.2197,-2.2432,-2.2822,-2.3545,-2.3711,-2.4082,-2.4883,-2.5068,-2.5225,-2.5605,-2.5674,-2.6149,-2.722,-2.7542,-2.8132,-2.9544,-3.1512,-3.2754,-3.3081,-3.3124,-3.3124,-3.3124,-3.3124,-3.3124,-3.3124,-3.3124,-3.3124,-3.3124,-3.3124,-3.3124,-3.3124,-3.3124,-3.3124,-3.3124,-3.3124,-3.3124,-3.3124,-3.3124,-3.3124,-3.3124,-3.3124,-3.3124,0.0,0.0,0.0,0.0,-0.0108,-0.1415,-0.3119,-0.4972,-0.6329,-0.7335,-0.7988,-0.7988,-0.7988,-0.7988,-0.7988,-0.7988,-0.7988,-0.7988,-0.7951,-0.788,-0.7848,-0.8023,-0.843,-0.8843,-0.933,-0.9858,-1.0878,-1.1386,-1.1466,-1.2553,-1.3118,-1.316,-1.3779,-1.4088,-1.4088,-1.4088,-1.4088,-1.4082,-1.3794,-1.354,-1.34,-1.3032,-1.2717,-1.2545,-1.2398,-1.2305,-1.2305,-1.2305,-1.2732,-1.3673,-1.4665,-1.5623,-1.6567,-1.7501,-1.8008,-1.8008,-1.8008,-1.8008,-1.8008,-1.8188,-1.8535,-1.8965,-1.9385,-1.9551,-1.9355,-1.9687,-2.001,-2.0254,-2.0664,-2.1006,-2.119,-2.1609,-2.209,-2.2471,-2.2715,-2.2964,-2.3296,-2.3437,-2.3691,-2.4277,-2.458,-2.4873,-2.5322,-2.5586,-2.582,-2.6524,-2.7078,-2.7814,-2.8366,-2.9909,-3.1323,-3.1909,-3.2096,-3.2382,-3.2939,-3.3124,-3.3124,-3.3124,-3.3124,-3.3124,-3.3124,-3.3124,-3.3124,-3.3124,-3.3124,-3.3124,-3.3124,-3.3124,-3.3124,-3.3124,-3.3124,-3.3124,-3.3124,-3.3124,-3.3124,0.0,0.0,0.0,0.0,0.0,-0.1419,-0.2615,-0.369,-0.5284,-0.6581,-0.7484,-0.7839,-0.7988,-0.7988,-0.7988,-0.7988,-0.7988,-0.7988,-0.7988,-0.7975,-0.787,-0.7845,-0.7887,-0.8532,-0.8786,-0.8841,-0.9751,-1.0226,-1.0356,-1.1386,-1.2066,-1.237,-1.3245,-1.3822,-1.4088,-1.4088,-1.4088,-1.4075,-1.3861,-1.3666,-1.3586,-1.318,-1.2924,-1.2777,-1.2563,-1.2371,-1.2311,-1.2305,-1.2732,-1.3637,-1.445,-1.5376,-1.6532,-1.7285,-1.7784,-1.7949,-1.8105,-1.8203,-1.8311,-1.8646,-1.9036,-1.9404,-1.9814,-2.0059,-2.0068,-2.0068,-2.0195,-2.0586,-2.0957,-2.122,-2.1424,-2.2041,-2.2549,-2.2646,-2.2896,-2.3081,-2.3101,-2.3101,-2.3266,-2.374,-2.416,-2.459,-2.501,-2.5459,-2.5713,-2.5868,-2.6572,-2.7125,-2.7305,-2.8038,-2.8982,-3.0033,-3.0586,-3.1089,-3.2108,-3.2481,-3.2568,-3.2667,-3.2939,-3.3081,-3.3124,-3.3124,-3.3124,-3.3124,-3.3124,-3.3124,-3.3124,-3.3124,-3.3124,-3.3124,-3.3124,-3.3124,-3.3124,-3.3124,-3.3124,0.0,0.0,0.0,0.0,0.0,-0.1421,-0.2068,-0.2521,-0.4859,-0.6029,-0.6279,-0.7484,-0.7988,-0.7988,-0.7988,-0.7988,-0.7988,-0.7988,-0.7988,-0.7988,-0.7975,-0.7897,-0.7824,-0.7918,-0.7816,-0.7766,-0.8689,-0.9167,-0.913,-1.0226,-1.1252,-1.2194,-1.2413,-1.3027,-1.3955,-1.4088,-1.4088,-1.4088,-1.4062,-1.3915,-1.362,-1.3553,-1.33,-1.2797,-1.2795,-1.2616,-1.2338,-1.2305,-1.2739,-1.36,-1.3774,-1.4657,-1.6315,-1.6671,-1.7113,-1.7935,-1.8334,-1.8715,-1.9141,-1.9551,-1.9748,-1.9873,-2.0244,-2.0527,-2.0527,-2.0537,-2.0546,-2.0693,-2.0986,-2.1375,-2.1797,-2.2266,-2.2685,-2.2945,-2.3052,-2.3101,-2.3101,-2.3101,-2.3266,-2.374,-2.4102,-2.458,-2.4961,-2.543,-2.5664,-2.5684,-2.5917,-2.61,-2.61,-2.6245,-2.6791,-2.7861,-2.8773,-2.9498,-3.0,-3.0721,-3.1267,-3.1444,-3.2326,-3.2797,-3.2896,-3.2982,-3.3124,-3.3124,-3.3124,-3.3124,-3.3124,-3.3124,-3.3124,-3.3124,-3.3124,-3.3124,-3.3124,-3.3124,-3.3124,0.0,0.0,0.0,0.0,0.0,-0.0586,-0.1255,-0.2118,-0.3143,-0.4069,-0.497,-0.6226,-0.7235,-0.7988,-0.7988,-0.7988,-0.7988,-0.7988,-0.7988,-0.7988,-0.7988,-0.7958,-0.7946,-0.7848,-0.774,-0.7617,-0.7954,-0.8053,-0.8203,-0.9073,-1.0178,-1.13,-1.1938,-1.2547,-1.3069,-1.373,-1.4088,-1.4088,-1.4088,-1.4021,-1.3901,-1.3693,-1.3493,-1.3273,-1.2978,-1.2737,-1.2596,-1.2398,-1.2482,-1.2879,-1.3419,-1.4063,-1.4835,-1.6191,-1.7114,-1.7539,-1.8459,-1.9209,-1.9629,-1.9824,-2.0029,-2.0283,-2.0498,-2.0605,-2.0615,-2.0615,-2.0703,-2.0967,-2.1367,-2.1797,-2.2217,-2.2637,-2.2916,-2.3062,-2.3101,-2.3101,-2.3101,-2.3101,-2.3179,-2.3408,-2.3789,-2.4209,-2.4668,-2.5293,-2.5635,-2.5684,-2.5684,-2.5684,-2.5684,-2.5684,-2.5927,-2.638,-2.6935,-2.7851,-2.8947,-2.9727,-3.009,-3.0316,-3.119,-3.1965,-3.2052,-3.2742,-3.3124,-3.3081,-3.3025,-3.3025,-3.3124,-3.3124,-3.3124,-3.3124,-3.3124,-3.3124,-3.3124,-3.3124,-3.3124,0.0,0.0,0.0,0.0,0.0,0.0,-0.0531,-0.1459,-0.184,-0.2577,-0.3566,-0.5222,-0.6531,-0.7434,-0.7839,-0.7988,-0.7988,-0.7988,-0.7988,-0.7988,-0.7988,-0.7988,-0.7978,-0.7929,-0.7848,-0.7784,-0.7597,-0.7501,-0.7458,-0.8008,-0.8973,-1.0096,-1.095,-1.1686,-1.2328,-1.3203,-1.3779,-1.4088,-1.4088,-1.4088,-1.4055,-1.3874,-1.3686,-1.3573,-1.3227,-1.2991,-1.2911,-1.2585,-1.2472,-1.2552,-1.3128,-1.3631,-1.4014,-1.5569,-1.6793,-1.7551,-1.8709,-1.9648,-2.0059,-2.0098,-2.0225,-2.0566,-2.0615,-2.0615,-2.0635,-2.0713,-2.0947,-2.1377,-2.1816,-2.2197,-2.248,-2.2847,-2.3081,-2.3101,-2.3101,-2.3101,-2.3101,-2.3101,-2.3101,-2.313,-2.3564,-2.4004,-2.457,-2.5254,-2.5684,-2.5684,-2.5684,-2.5684,-2.5684,-2.5684,-2.5732,-2.5684,-2.5732,-2.6428,-2.8028,-2.8727,-2.8819,-2.9131,-2.9909,-3.0687,-3.0721,-3.1601,-3.2382,-3.1965,-3.2382,-3.284,-3.3081,-3.3124,-3.3124,-3.3124,-3.3124,-3.3124,-3.3124,-3.3124,-3.3124,0.0,0.0,0.0,0.0,0.0,0.0,0.0,-0.0319,-0.1406,-0.2046,-0.242,-0.4722,-0.5979,-0.6179,-0.7335,-0.7988,-0.7988,-0.7988,-0.7988,-0.7988,-0.7988,-0.7988,-0.7988,-0.7982,-0.7904,-0.7834,-0.778,-0.7624,-0.7419,-0.731,-0.7797,-0.8934,-0.9192,-1.0178,-1.1852,-1.2242,-1.2942,-1.3864,-1.3955,-1.4088,-1.4088,-1.4068,-1.3921,-1.3646,-1.3567,-1.34,-1.3193,-1.2931,-1.2891,-1.3146,-1.2995,-1.3369,-1.4396,-1.4687,-1.5869,-1.7997,-1.9241,-2.003,-2.0478,-2.0546,-2.0566,-2.0605,-2.0615,-2.0615,-2.0625,-2.0928,-2.1328,-2.1807,-2.2187,-2.2471,-2.2588,-2.2867,-2.3091,-2.3101,-2.3101,-2.3101,-2.3101,-2.3101,-2.3101,-2.3149,-2.3525,-2.4072,-2.493,-2.5449,-2.5625,-2.5674,-2.5684,-2.5684,-2.5684,-2.5684,-2.5684,-2.5684,-2.5684,-2.5781,-2.6014,-2.6935,-2.7589,-2.7908,-2.8588,-2.9498,-2.9498,-2.9636,-3.0316,-3.0956,-3.1368,-3.1965,-3.2754,-3.3124,-3.3124,-3.3124,-3.3124,-3.3124,-3.3124,-3.3111,-3.3023,0.0,0.0,0.0,0.0,0.0,0.0,0.0,0.0,-0.0473,-0.0723,-0.1025,-0.263,-0.3919,-0.482,-0.6126,-0.7185,-0.7939,-0.7988,-0.7988,-0.7988,-0.7988,-0.7988,-0.7988,-0.7988,-0.7965,-0.7953,-0.7858,-0.7658,-0.7397,-0.7312,-0.7413,-0.7808,-0.854,-0.9362,-1.0096,-1.0864,-1.1772,-1.2808,-1.2942,-1.3294,-1.3997,-1.4088,-1.4035,-1.3921,-1.3693,-1.356,-1.3447,-1.32,-1.31,-1.3206,-1.31,-1.3243,-1.3745,-1.4586,-1.6166,-1.8403,-1.9102,-1.9674,-2.0459,-2.0615,-2.0615,-2.0615,-2.0615,-2.0615,-2.0683,-2.0977,-2.1375,-2.1846,-2.2266,-2.2598,-2.2881,-2.3013,-2.3101,-2.3101,-2.3101,-2.3101,-2.3101,-2.3101,-2.3101,-2.3159,-2.3525,-2.4023,-2.457,-2.5039,-2.541,-2.5625,-2.5684,-2.5684,-2.5684,-2.5684,-2.5684,-2.5684,-2.5684,-2.5684,-2.5684,-2.6014,-2.6428,-2.6754,-2.7305,-2.7992,-2.8272,-2.8866,-2.959,-2.9909,-3.0361,-3.1089,-3.1921,-3.2884,-3.2927,-3.3124,-3.3124,-3.2998,-3.3124,-3.2767,-3.2591,0.0,0.0,0.0,0.0,0.0,0.0,0.0,0.0,0.0,0.0,0.0,-0.1435,-0.2536,-0.3595,-0.5238,-0.6431,-0.7388,-0.7786,-0.7988,-0.7988,-0.7988,-0.7988,-0.7988,-0.7988,-0.7988,-0.7965,-0.7837,-0.7699,-0.7519,-0.7417,-0.7319,-0.7313,-0.8003,-0.8536,-0.8978,-0.971,-1.0616,-1.1552,-1.2109,-1.2717,-1.347,-1.3906,-1.4088,-1.4062,-1.3888,-1.3746,-1.3781,-1.3467,-1.3407,-1.3467,-1.34,-1.3353,-1.3581,-1.4705,-1.6154,-1.7696,-1.8261,-1.8908,-1.9874,-2.0079,-2.0235,-2.0566,-2.0615,-2.0615,-2.0644,-2.1103,-2.1562,-2.1914,-2.2412,-2.2808,-2.3003,-2.3091,-2.3101,-2.3101,-2.3101,-2.3101,-2.3101,-2.3101,-2.3101,-2.3149,-2.3525,-2.3945,-2.4365,-2.4805,-2.5254,-2.5674,-2.5684,-2.5684,-2.5684,-2.5684,-2.5684,-2.5684,-2.5684,-2.5684,-2.5684,-2.5868,-2.5965,-2.6197,-2.6342,-2.6849,-2.7258,-2.7992,-2.8495,-2.8866,-2.9498,-3.0271,-3.1223,-3.2271,-3.2729,-3.2945,-3.2817,-3.2629,-3.2516,-3.2277,-3.2127,0.0,0.0,0.0,0.0,0.0,0.0,0.0,0.0,0.0,0.0,0.0,-0.1358,-0.1915,-0.2577,-0.4521,-0.5837,-0.6195,-0.7191,-0.7889,-0.7988,-0.7988,-0.7988,-0.7988,-0.7988,-0.7988,-0.7985,-0.7892,-0.7814,-0.7763,-0.7539,-0.7446,-0.7388,-0.7265,-0.7819,-0.8846,-0.8886,-0.9449,-1.0524,-1.1466,-1.2157,-1.2456,-1.3428,-1.3997,-1.4088,-1.4062,-1.4048,-1.4055,-1.3794,-1.3761,-1.3961,-1.3746,-1.3746,-1.4094,-1.4969,-1.5688,-1.6011,-1.6764,-1.7819,-1.8798,-1.8988,-1.9432,-2.0206,-2.0489,-2.0508,-2.0762,-2.1357,-2.1865,-2.2051,-2.2574,-2.3081,-2.3081,-2.3101,-2.3101,-2.3101,-2.3101,-2.3101,-2.3101,-2.3101,-2.3101,-2.3149,-2.3486,-2.3935,-2.4346,-2.4717,-2.5137,-2.5508,-2.5654,-2.5684,-2.5684,-2.5684,-2.5684,-2.5684,-2.5684,-2.5684,-2.5684,-2.5684,-2.5732,-2.5732,-2.582,-2.6052,-2.6197,-2.6696,-2.7067,-2.7494,-2.8179,-2.8993,-3.0405,-3.1396,-3.2,-3.221,-3.2177,-3.2072,-3.2064,-3.1863,-3.1675,0.0,0.0,0.0,0.0,0.0,0.0,0.0,0.0,0.0,0.0,0.0,-0.0426,-0.1109,-0.1995,-0.2947,-0.3738,-0.4704,-0.6017,-0.7086,-0.7842,-0.7988,-0.7988,-0.7988,-0.7988,-0.7988,-0.7982,-0.7994,-0.7909,-0.7811,-0.7712,-0.7584,-0.7443,-0.7326,-0.742,-0.7676,-0.7709,-0.8229,-0.9323,-0.9749,-1.0654,-1.2109,-1.2674,-1.3252,-1.3997,-1.4088,-1.4088,-1.4082,-1.4001,-1.3995,-1.4088,-1.4001,-1.3995,-1.4146,-1.4412,-1.4936,-1.5621,-1.5985,-1.6683,-1.7626,-1.7859,-1.831,-1.9234,-1.952,-2.0044,-2.0896,-2.1553,-2.2012,-2.2285,-2.2769,-2.3101,-2.3101,-2.3101,-2.3101,-2.3101,-2.3101,-2.3101,-2.3101,-2.3101,-2.3101,-2.3101,-2.3218,-2.3525,-2.3935,-2.4365,-2.4814,-2.5254,-2.5547,-2.5684,-2.5684,-2.5684,-2.5684,-2.5684,-2.5684,-2.5684,-2.5684,-2.5684,-2.5684,-2.5684,-2.5684,-2.5684,-2.5684,-2.5732,-2.6062,-2.6408,-2.7057,-2.7964,-2.9397,-3.0285,-3.0783,-3.1007,-3.0772,-3.099,-3.1468,-3.1414,-3.1178,0.0504,0.0,0.0,0.0,0.0,0.0,0.0,0.0,0.0,0.0,0.0,0.0,-0.0431,-0.1231,-0.1739,-0.2455,-0.3383,-0.4655,-0.5989,-0.7199,-0.7852,-0.7988,-0.7988,-0.7988,-0.7988,-0.7988,-0.7988,-0.7941,-0.7896,-0.7831,-0.7716,-0.7556,-0.7428,-0.7374,-0.7224,-0.717,-0.7533,-0.8189,-0.8715,-0.9579,-1.0907,-1.1858,-1.2632,-1.3379,-1.3864,-1.4088,-1.4088,-1.4088,-1.4088,-1.4088,-1.4088,-1.4088,-1.4088,-1.413,-1.4412,-1.4936,-1.5179,-1.5587,-1.6519,-1.6723,-1.7172,-1.8167,-1.8883,-1.9555,-2.0604,-2.139,-2.2246,-2.251,-2.2857,-2.3101,-2.3101,-2.3101,-2.3101,-2.3101,-2.3101,-2.3101,-2.3101,-2.3101,-2.3101,-2.3101,-2.311,-2.3315,-2.373,-2.415,-2.458,-2.501,-2.5449,-2.5684,-2.5684,-2.5684,-2.5684,-2.5684,-2.5684,-2.5684,-2.5684,-2.5684,-2.5684,-2.5684,-2.5684,-2.5684,-2.5684,-2.5684,-2.5868,-2.6146,-2.6622,-2.7139,-2.838,-2.8723,-2.9157,-2.9225,-2.9499,-2.9913,-3.032,-3.0606,-3.055,0.1399,0.0168,0.0,0.0,0.0,0.0,0.0,0.0,0.0,0.0,0.0,0.0,0.0,0.0,-0.1235,-0.1757,-0.2122,-0.3287,-0.4602,-0.597,-0.7074,-0.7762,-0.7992,-0.7988,-0.7988,-0.7988,-0.7988,-0.7985,-0.7958,-0.7853,-0.7814,-0.7756,-0.7543,-0.738,-0.7339,-0.7221,-0.7163,-0.7404,-0.8237,-0.8759,-0.9152,-1.0869,-1.2157,-1.2376,-1.3336,-1.3906,-1.4088,-1.4088,-1.4088,-1.4088,-1.4088,-1.4088,-1.4088,-1.4088,-1.4166,-1.425,-1.413,-1.4657,-1.5372,-1.5621,-1.6105,-1.7229,-1.8323,-1.9506,-1.9727,-2.1123,-2.2121,-2.2298,-2.28,-2.3101,-2.3101,-2.3101,-2.3101,-2.3101,-2.3101,-2.3101,-2.3101,-2.3101,-2.3101,-2.3101,-2.311,-2.3271,-2.3682,-2.4092,-2.456,-2.4941,-2.5391,-2.5625,-2.5684,-2.5684,-2.5684,-2.5684,-2.5684,-2.5684,-2.5684,-2.5684,-2.5684,-2.5684,-2.5684,-2.5684,-2.5625,-2.5606,-2.5411,-2.5716,-2.6089,-2.6589,-2.6911,-2.728,-2.7799,-2.8255,-2.8588,-2.8902,-2.9253,-2.965,-3.0254,0.1956,0.151,0.0448,0.0,0.0,0.0,0.0,0.0,0.0,0.0,0.0,0.0,0.0,0.0,0.0,-0.0543,-0.0919,-0.1916,-0.3321,-0.4674,-0.5948,-0.7122,-0.7856,-0.7988,-0.7988,-0.7988,-0.7988,-0.7988,-0.7988,-0.7941,-0.7867,-0.7811,-0.7726,-0.7573,-0.7397,-0.7333,-0.7244,-0.7112,-0.736,-0.8061,-0.8846,-0.9405,-1.0654,-1.2242,-1.2638,-1.3245,-1.3955,-1.4088,-1.4088,-1.4088,-1.4088,-1.4088,-1.4088,-1.4088,-1.4088,-1.4088,-1.413,-1.4166,-1.4447,-1.458,-1.5168,-1.6236,-1.7007,-1.7584,-1.8978,-2.0321,-2.1218,-2.1701,-2.2454,-2.3047,-2.3047,-2.3091,-2.3091,-2.3101,-2.3101,-2.3101,-2.3101,-2.3101,-2.3101,-2.3101,-2.3101,-2.3179,-2.3383,-2.3926,-2.4434,-2.4697,-2.5185,-2.5674,-2.5664,-2.5684,-2.5684,-2.5684,-2.5684,-2.5684,-2.5684,-2.5684,-2.5684,-2.5684,-2.5684,-2.5684,-2.5615,-2.5488,-2.5127,-2.4888,-2.5384,-2.5926,-2.5718,-2.5748,-2.645,-2.7214,-2.719,-2.7355,-2.8418,-2.9057,-2.9867,0.3351,0.2124,0.1287,0.056,0.0,0.0,0.0,0.0,0.0,0.0,0.0,0.0,0.0,0.0,0.0,0.0,0.0,-0.0814,-0.1936,-0.342,-0.5172,-0.6701,-0.7719,-0.7988,-0.7988,-0.7988,-0.7988,-0.7988,-0.7988,-0.7988,-0.7934,-0.7913,-0.7841,-0.7719,-0.7577,-0.7417,-0.7381,-0.7244,-0.718,-0.7489,-0.8105,-0.8671,-0.9492,-1.0956,-1.1686,-1.2857,-1.3913,-1.4088,-1.4088,-1.4088,-1.4088,-1.4088,-1.4088,-1.4088,-1.4088,-1.4088,-1.4088,-1.4088,-1.4115,-1.4188,-1.4629,-1.5411,-1.6002,-1.7014,-1.8108,-1.9371,-2.0339,-2.0613,-2.1266,-2.1765,-2.2359,-2.2775,-2.3047,-2.3101,-2.3101,-2.3091,-2.3091,-2.3101,-2.3101,-2.3101,-2.3101,-2.3101,-2.311,-2.3715,-2.415,-2.4482,-2.5,-2.542,-2.5625,-2.5654,-2.5684,-2.5684,-2.5684,-2.5684,-2.5684,-2.5684,-2.5684,-2.5684,-2.5684,-2.5684,-2.5625,-2.5449,-2.5244,-2.5,-2.5049,-2.5059,-2.5059,-2.5057,-2.5305,-2.5762,-2.564,-2.6304,-2.7502,-2.8388,-2.9271,0.5135,0.2682,0.2346,0.1454,0.0336,0.0,0.0,0.0,0.0,0.0,0.0,0.0,0.0,0.0,0.0,0.0,0.0,0.0,-0.0986,-0.2537,-0.4483,-0.6325,-0.7491,-0.7899,-0.7992,-0.7988,-0.7988,-0.7988,-0.7988,-0.7988,-0.7988,-0.7944,-0.7899,-0.7831,-0.7736,-0.7553,-0.7421,-0.7339,-0.7244,-0.717,-0.7455,-0.8105,-0.8759,-0.9497,-1.1386,-1.2857,-1.3779,-1.4088,-1.4088,-1.4088,-1.4088,-1.4088,-1.4088,-1.4088,-1.4088,-1.4088,-1.4088,-1.4102,-1.4168,-1.4376,-1.4563,-1.496,-1.6163,-1.7002,-1.7319,-1.8383,-1.9273,-1.9306,-1.9405,-2.0223,-2.098,-2.2031,-2.2501,-2.2589,-2.2818,-2.2906,-2.3091,-2.3101,-2.3101,-2.3101,-2.3101,-2.3101,-2.3198,-2.3471,-2.3935,-2.4199,-2.4736,-2.5215,-2.5518,-2.5596,-2.5635,-2.5684,-2.5684,-2.5684,-2.5684,-2.5684,-2.5684,-2.5684,-2.5684,-2.5674,-2.5635,-2.5576,-2.5537,-2.542,-2.5107,-2.501,-2.5059,-2.5008,-2.5006,-2.5142,-2.56,-2.6236,-2.6966,-2.7647,-2.8427,0.6311,0.5528,0.3182,0.2012,0.1566,0.0,0.0,0.0,0.0,0.0,0.0,0.0,0.0,0.0,0.0,0.0,0.0,0.0,0.0,-0.2122,-0.3682,-0.5224,-0.6465,-0.7397,-0.7945,-0.7992,-0.7988,-0.7988,-0.7988,-0.7988,-0.7988,-0.7978,-0.7948,-0.7929,-0.7811,-0.774,-0.7587,-0.746,-0.7333,-0.7251,-0.7119,-0.7404,-0.8057,-0.9061,-1.1123,-1.2814,-1.3822,-1.4088,-1.4088,-1.4088,-1.4088,-1.4088,-1.4088,-1.4088,-1.4102,-1.4122,-1.4115,-1.4195,-1.4396,-1.4529,-1.4685,-1.5169,-1.5565,-1.5894,-1.6175,-1.7284,-1.8002,-1.8272,-1.891,-1.9397,-1.9852,-2.0079,-2.0854,-2.1489,-2.1712,-2.2031,-2.2809,-2.3091,-2.3101,-2.3101,-2.3101,-2.3101,-2.311,-2.3486,-2.3799,-2.4014,-2.4453,-2.501,-2.5312,-2.5537,-2.5615,-2.5684,-2.5684,-2.5684,-2.5684,-2.5684,-2.5684,-2.5684,-2.5684,-2.5684,-2.5645,-2.5528,-2.5498,-2.5264,-2.4951,-2.498,-2.5195,-2.5361,-2.54,-2.5508,-2.5547,-2.5943,-2.6426,-2.702,-2.74,0.7315,0.6533,0.4968,0.3462,0.218,0.1343,0.0616,0.0,0.0,0.0,0.0,0.0,0.0,0.0,0.0,0.0,0.0,0.0,-0.0722,-0.1913,-0.2964,-0.4186,-0.5801,-0.6701,-0.7305,-0.7856,-0.7988,-0.7988,-0.7988,-0.7988,-0.7988,-0.7988,-0.7988,-0.7951,-0.7909,-0.7848,-0.7733,-0.7584,-0.7477,-0.7326,-0.7258,-0.7173,-0.8053,-0.9575,-1.1381,-1.2857,-1.3997,-1.4088,-1.4088,-1.4088,-1.4088,-1.4088,-1.4088,-1.4095,-1.4148,-1.4275,-1.4295,-1.4436,-1.4649,-1.4863,-1.507,-1.5371,-1.5511,-1.5658,-1.5832,-1.648,-1.6709,-1.6943,-1.7397,-1.7894,-1.8588,-1.9314,-1.9852,-2.0215,-2.0486,-2.0764,-2.1445,-2.2359,-2.3101,-2.3101,-2.3101,-2.3101,-2.3208,-2.3393,-2.3623,-2.3818,-2.4228,-2.4766,-2.5215,-2.5439,-2.5606,-2.5684,-2.5684,-2.5684,-2.5684,-2.5684,-2.5684,-2.5684,-2.5684,-2.5684,-2.5664,-2.5518,-2.54,-2.5254,-2.5185,-2.5312,-2.5518,-2.5635,-2.5684,-2.5635,-2.5615,-2.5664,-2.5868,-2.6332,-2.6476,0.8156,0.698,0.6813,0.5192,0.3017,0.2403,0.1454,0.0504,0.0056,0.0,0.0,0.0,0.0,0.0,0.0,0.0,0.0,0.0,-0.0667,-0.143,-0.1583,-0.3005,-0.467,-0.5489,-0.6347,-0.7572,-0.7899,-0.7992,-0.7988,-0.7988,-0.7988,-0.7988,-0.7988,-0.7978,-0.7948,-0.7874,-0.7824,-0.7743,-0.758,-0.7448,-0.739,-0.7316,-0.8288,-1.0221,-1.1252,-1.2681,-1.3737,-1.4088,-1.4088,-1.4088,-1.4128,-1.4155,-1.4155,-1.4168,-1.4242,-1.4509,-1.4543,-1.4736,-1.4983,-1.5211,-1.5378,-1.5451,-1.5665,-1.5798,-1.5825,-1.5879,-1.5967,-1.5967,-1.6197,-1.652,-1.7358,-1.7994,-1.8764,-1.9177,-1.9222,-1.9314,-1.9807,-2.14,-2.2138,-2.2731,-2.2916,-2.3101,-2.3101,-2.3198,-2.3437,-2.3662,-2.4027,-2.4446,-2.4894,-2.5322,-2.546,-2.5664,-2.5684,-2.5684,-2.5684,-2.5684,-2.5684,-2.5684,-2.5684,-2.5684,-2.5684,-2.5596,-2.5499,-2.5577,-2.5586,-2.5625,-2.5615,-2.5654,-2.5684,-2.5684,-2.5684,-2.5684,-2.5684,-2.5684,-2.5781,0.8771,0.8432,0.7204,0.6364,0.5584,0.3296,0.2123,0.1622,0.0504,0.0,0.0,0.0,0.0,0.0,0.0,0.0,0.0,0.0,0.0,0.0,0.0,-0.1574,-0.29,-0.398,-0.5109,-0.6353,-0.7299,-0.7839,-0.7988,-0.7988,-0.7988,-0.7988,-0.7988,-0.7988,-0.7985,-0.7955,-0.7923,-0.7848,-0.7733,-0.7648,-0.7546,-0.7689,-0.8483,-1.0484,-1.1164,-1.2287,-1.374,-1.4115,-1.4088,-1.4108,-1.4322,-1.4422,-1.4456,-1.4462,-1.4522,-1.4609,-1.479,-1.5017,-1.5291,-1.5371,-1.5538,-1.5651,-1.5751,-1.5771,-1.5825,-1.5825,-1.5825,-1.5825,-1.5825,-1.5967,-1.6069,-1.6662,-1.703,-1.7584,-1.8048,-1.8319,-1.9131,-1.9906,-2.0584,-2.1221,-2.2085,-2.296,-2.2818,-2.2818,-2.3022,-2.3146,-2.3319,-2.3767,-2.418,-2.4726,-2.5188,-2.544,-2.5684,-2.5684,-2.5684,-2.5684,-2.5684,-2.5684,-2.5684,-2.5684,-2.5684,-2.5684,-2.5684,-2.5684,-2.5684,-2.5664,-2.5664,-2.5684,-2.5684,-2.5684,-2.5684,-2.5684,-2.5684,-2.5684,-2.5684,0.8937,0.883,0.8097,0.7371,0.6422,0.4355,0.3334,0.2925,0.0995,0.0384,0.0648,0.0,0.0,0.0,0.0,0.0,0.0,0.0,0.0,0.0,0.0,-0.0716,-0.1855,-0.2757,-0.4228,-0.5616,-0.6695,-0.7434,-0.7939,-0.7988,-0.7988,-0.7988,-0.7988,-0.7988,-0.7988,-0.7985,-0.7948,-0.7874,-0.7851,-0.778,-0.7794,-0.8023,-0.9345,-1.0542,-1.1572,-1.2789,-1.4093,-1.4586,-1.4586,-1.462,-1.4683,-1.473,-1.4783,-1.4883,-1.497,-1.499,-1.511,-1.5317,-1.5558,-1.5625,-1.5651,-1.5792,-1.5825,-1.5825,-1.5825,-1.5825,-1.5825,-1.5825,-1.5825,-1.5825,-1.5872,-1.5825,-1.6109,-1.6527,-1.6763,-1.7077,-1.7576,-1.818,-1.8856,-1.967,-2.0899,-2.1765,-2.2217,-2.2306,-2.2589,-2.2663,-2.2666,-2.2969,-2.3354,-2.3805,-2.4239,-2.4908,-2.5118,-2.5118,-2.5069,-2.506,-2.502,-2.5118,-2.5479,-2.5479,-2.5625,-2.5577,-2.5635,-2.5684,-2.5684,-2.5684,-2.5684,-2.5684,-2.5684,-2.5684,-2.5684,-2.5684,-2.5684,-2.5684,-2.5684,0.8937,0.8937,0.8937,0.8208,0.7033,0.5507,0.4799,0.4089,0.1631,0.1023,0.1692,0.0,0.0,0.0,0.0,0.0,0.0,0.0,0.0,0.0,0.0,-0.0611,-0.1315,-0.2201,-0.3267,-0.5147,-0.604,-0.6684,-0.7786,-0.7988,-0.7988,-0.7988,-0.7988,-0.7988,-0.7988,-0.7988,-0.7988,-0.7951,-0.7929,-0.7851,-0.8024,-0.8594,-0.9609,-1.0869,-1.2056,-1.3131,-1.4199,-1.4749,-1.489,-1.4968,-1.5035,-1.5089,-1.5142,-1.5324,-1.5478,-1.5484,-1.5484,-1.5625,-1.5738,-1.5805,-1.5744,-1.5825,-1.5825,-1.5825,-1.5825,-1.5825,-1.5825,-1.5825,-1.5825,-1.5825,-1.5825,-1.5825,-1.5825,-1.5872,-1.592,-1.592,-1.6244,-1.6756,-1.7225,-1.8265,-1.9625,-2.044,-2.0854,-2.1123,-2.1266,-2.1239,-2.1174,-2.1468,-2.1842,-2.2316,-2.291,-2.3917,-2.4412,-2.4353,-2.4295,-2.4088,-2.3989,-2.389,-2.4452,-2.4815,-2.5118,-2.5421,-2.547,-2.5548,-2.5684,-2.5684,-2.5684,-2.5674,-2.5684,-2.5684,-2.5684,-2.5684,-2.5684,-2.5684,-2.5684,0.8937,0.8937,0.8881,0.8771,0.8355,0.6866,0.6216,0.5802,0.3053,0.1847,0.2075,0.0726,0.0,0.0,0.0,0.0,0.0,0.0,0.0,0.0,0.0,0.0,-0.0444,-0.1511,-0.2552,-0.4241,-0.5355,-0.6698,-0.7587,-0.7839,-0.7988,-0.7988,-0.7988,-0.7988,-0.7988,-0.7988,-0.7988,-0.7985,-0.7965,-0.7894,-0.7841,-0.8038,-0.8669,-0.9741,-1.0862,-1.2218,-1.3489,-1.4378,-1.4915,-1.5057,-1.5237,-1.5331,-1.5391,-1.5618,-1.5704,-1.5731,-1.5778,-1.5792,-1.5818,-1.5825,-1.5825,-1.5825,-1.5825,-1.5825,-1.5825,-1.5825,-1.5825,-1.5825,-1.5825,-1.5825,-1.5825,-1.5825,-1.5825,-1.5825,-1.5825,-1.5825,-1.592,-1.6015,-1.644,-1.6669,-1.7979,-1.8756,-1.9351,-1.9633,-1.9815,-1.9778,-1.9799,-2.0079,-2.0555,-2.1145,-2.1758,-2.2825,-2.3285,-2.3276,-2.3326,-2.3167,-2.3018,-2.2776,-2.3276,-2.393,-2.4119,-2.4454,-2.5246,-2.5334,-2.5441,-2.5577,-2.5596,-2.5615,-2.5645,-2.5684,-2.5684,-2.5684,-2.5684,-2.5684,-2.5684,0.8937,0.8875,0.8845,0.8808,0.8567,0.7073,0.6825,0.6815,0.4456,0.3105,0.2856,0.1733,0.0719,0.0,0.0,0.0,0.0,0.0,0.0,0.0,0.0,0.0,0.0,-0.0651,-0.1543,-0.2999,-0.4206,-0.5479,-0.6628,-0.7637,-0.7988,-0.7988,-0.7988,-0.7988,-0.7988,-0.7988,-0.7988,-0.7988,-0.7982,-0.7955,-0.7907,-0.7979,-0.8485,-0.9608,-1.0271,-1.1537,-1.3051,-1.393,-1.4835,-1.5186,-1.5605,-1.5631,-1.5658,-1.5752,-1.5825,-1.5825,-1.5818,-1.5818,-1.5825,-1.5825,-1.5825,-1.5825,-1.5825,-1.5825,-1.5825,-1.5825,-1.5825,-1.5825,-1.5825,-1.5825,-1.5825,-1.5825,-1.5825,-1.5825,-1.5825,-1.5825,-1.5825,-1.5825,-1.5967,-1.6103,-1.6292,-1.7163,-1.8033,-1.8672,-1.8764,-1.8503,-1.8558,-1.8715,-1.9573,-2.0539,-2.1147,-2.1854,-2.2047,-2.2055,-2.2156,-2.2148,-2.2106,-2.1946,-2.203,-2.2574,-2.2798,-2.3237,-2.3947,-2.4487,-2.4517,-2.4784,-2.5179,-2.5537,-2.5596,-2.5645,-2.5684,-2.5684,-2.5684,-2.5684,-2.5684,0.8828,0.8814,0.8757,0.8689,0.8531,0.732,0.7376,0.7914,0.56,0.4478,0.4031,0.2719,0.1181,0.0,0.0,0.0,0.0,0.0,0.0,0.0,0.0,0.0,0.0,0.0,-0.0799,-0.1965,-0.2967,-0.4477,-0.5977,-0.6883,-0.7537,-0.7939,-0.7988,-0.7988,-0.7988,-0.7988,-0.7988,-0.7988,-0.7988,-0.7982,-0.7975,-0.7978,-0.852,-0.9251,-0.9993,-1.0921,-1.2571,-1.3273,-1.3951,-1.4387,-1.5007,-1.5102,-1.5162,-1.5514,-1.5778,-1.5825,-1.5825,-1.5825,-1.5825,-1.5825,-1.5825,-1.5825,-1.5825,-1.5825,-1.5825,-1.5825,-1.5825,-1.5825,-1.5825,-1.5825,-1.5825,-1.5825,-1.5825,-1.5825,-1.5825,-1.5825,-1.5825,-1.5825,-1.5825,-1.592,-1.6015,-1.592,-1.6796,-1.7716,-1.7809,-1.7358,-1.729,-1.7472,-1.8303,-1.9382,-1.969,-2.007,-2.0161,-2.0177,-2.0243,-2.0456,-2.0668,-2.091,-2.0988,-2.1091,-2.1211,-2.1717,-2.2399,-2.2885,-2.3298,-2.3758,-2.4032,-2.4823,-2.5605,-2.5625,-2.5684,-2.5684,-2.5684,-2.5684,-2.5684,0.8726,0.8726,0.871,0.8618,0.8489,0.8292,0.8173,0.8133,0.6541,0.5744,0.5125,0.3221,0.1274,0.0,0.0,0.0,0.0,0.0,0.0,0.0,0.0,0.0,0.0,0.0,-0.0584,-0.1688,-0.2354,-0.3725,-0.5377,-0.6079,-0.6933,-0.7789,-0.7889,-0.7988,-0.7988,-0.7988,-0.7988,-0.7988,-0.7988,-0.7988,-0.7988,-0.7988,-0.8137,-0.8432,-0.9316,-1.0145,-1.0386,-1.1453,-1.228,-1.2678,-1.3494,-1.398,-1.4124,-1.4997,-1.5384,-1.5486,-1.573,-1.5778,-1.5825,-1.5825,-1.5825,-1.5825,-1.5825,-1.5825,-1.5825,-1.5825,-1.5825,-1.5825,-1.5825,-1.5825,-1.5825,-1.5825,-1.5825,-1.5825,-1.5825,-1.5825,-1.5825,-1.5825,-1.5825,-1.5825,-1.5825,-1.5825,-1.5825,-1.6796,-1.7023,-1.6622,-1.6501,-1.6679,-1.6808,-1.7611,-1.7646,-1.7803,-1.7984,-1.8036,-1.8018,-1.8282,-1.8745,-1.9022,-1.9137,-1.9252,-1.9401,-2.0073,-2.0812,-2.1215,-2.1587,-2.2268,-2.2942,-2.3664,-2.4469,-2.5324,-2.5664,-2.5625,-2.5625,-2.5684,-2.5684,0.8516,0.8442,0.8442,0.846,0.834,0.8191,0.813,0.8019,0.7459,0.6176,0.472,0.2818,0.1273,0.0,0.0,0.0,0.0,0.0,0.0,0.0,0.0,0.0,0.0,0.0,-0.0314,-0.0938,-0.153,-0.2213,-0.3367,-0.4922,-0.6029,-0.6833,-0.7537,-0.7939,-0.7988,-0.7988,-0.7988,-0.7988,-0.7988,-0.7988,-0.7988,-0.7988,-0.7988,-0.8088,-0.8283,-0.9266,-0.9948,-1.0435,-1.1116,-1.175,-1.2328,-1.2571,-1.2866,-1.3974,-1.4555,-1.4752,-1.5146,-1.5486,-1.5683,-1.573,-1.5825,-1.5825,-1.5825,-1.5825,-1.5825,-1.5825,-1.5825,-1.5825,-1.5825,-1.5825,-1.5825,-1.5825,-1.5825,-1.5825,-1.5825,-1.5825,-1.5825,-1.5825,-1.5825,-1.5825,-1.5825,-1.5825,-1.5825,-1.592,-1.5967,-1.5872,-1.5852,-1.5864,-1.6152,-1.6366,-1.6613,-1.6807,-1.7061,-1.7141,-1.7168,-1.7121,-1.7068,-1.7276,-1.7532,-1.7759,-1.8081,-1.8468,-1.9152,-1.9534,-1.9952,-2.0593,-2.1363,-2.2388,-2.3383,-2.4498,-2.516,-2.543,-2.5527,-2.5664,-2.5684,0.836,0.8265,0.8221,0.8201,0.8187,0.8082,0.7988,0.7988,0.7988,0.6778,0.4518,0.3168,0.1874,0.0826,0.0,0.0,0.0,0.0,0.0,0.0,0.0,0.0,0.0,0.0,0.0,0.0,0.0,-0.1511,-0.2364,-0.3971,-0.5125,-0.6079,-0.6883,-0.7385,-0.7988,-0.7988,-0.7988,-0.7988,-0.7988,-0.7988,-0.7988,-0.7988,-0.7988,-0.7988,-0.8088,-0.8432,-0.9069,-0.9361,-0.9702,-1.0386,-1.097,-1.1263,-1.1794,-1.2425,-1.3151,-1.3638,-1.4034,-1.4663,-1.4758,-1.5486,-1.573,-1.5825,-1.5825,-1.5825,-1.5825,-1.5825,-1.5825,-1.5825,-1.5825,-1.5825,-1.5825,-1.5825,-1.5825,-1.5825,-1.5825,-1.5825,-1.5825,-1.5825,-1.5825,-1.5825,-1.5825,-1.5825,-1.5825,-1.5825,-1.5825,-1.5825,-1.5838,-1.5879,-1.5999,-1.6199,-1.6386,-1.6553,-1.6714,-1.674,-1.6734,-1.6794,-1.6847,-1.6871,-1.6998,-1.6819,-1.7036,-1.7389,-1.7478,-1.7666,-1.8206,-1.89,-1.9714,-2.0593,-2.2155,-2.39,-2.4488,-2.5111,-2.5557,-2.5684,-2.5684,0.8269,0.8303,0.8113,0.8002,0.8012,0.7992,0.7988,0.7988,0.7988,0.7182,0.5727,0.447,0.3116,0.1832,0.068,0.0,0.0,0.0,0.0,0.0,0.0,0.0,0.0,0.0,0.0,0.0,0.0,-0.0958,-0.1813,-0.2515,-0.377,-0.5425,-0.6379,-0.7083,-0.7939,-0.7988,-0.7988,-0.7988,-0.7988,-0.7988,-0.7988,-0.7988,-0.7988,-0.7988,-0.7988,-0.8233,-0.8333,-0.8432,-0.8676,-0.8871,-0.9653,-0.9948,-1.0145,-1.1268,-1.1896,-1.2042,-1.2145,-1.229,-1.2237,-1.4424,-1.5343,-1.573,-1.5825,-1.5825,-1.5825,-1.5825,-1.5825,-1.5825,-1.5825,-1.5825,-1.5825,-1.5825,-1.5825,-1.5825,-1.5825,-1.5825,-1.5825,-1.5825,-1.5825,-1.5825,-1.5825,-1.5825,-1.5825,-1.5825,-1.5825,-1.5825,-1.5825,-1.5865,-1.5932,-1.6019,-1.6179,-1.6253,-1.638,-1.6406,-1.644,-1.6573,-1.6627,-1.66,-1.6506,-1.6353,-1.6233,-1.6457,-1.6381,-1.6164,-1.6718,-1.765,-1.8218,-1.8773,-2.053,-2.2308,-2.407,-2.489,-2.5363,-2.5684,-2.5684,0.8116,0.8113,0.8012,0.7988,0.7988,0.7988,0.7988,0.7988,0.7889,0.7235,0.6129,0.5425,0.3969,0.2385,0.1545,0.0,0.0,0.0,0.0,0.0,0.0,0.0,0.0,0.0,0.0,0.0,0.0,0.0,-0.0656,-0.136,-0.2815,-0.4468,-0.6276,-0.7484,-0.7889,-0.7988,-0.7988,-0.7988,-0.7988,-0.7988,-0.7988,-0.7988,-0.7988,-0.7988,-0.7988,-0.7988,-0.7988,-0.7988,-0.7988,-0.7988,-0.8775,-0.8775,-0.897,-0.9998,-1.0583,-1.0872,-1.117,-1.1896,-1.1945,-1.3065,-1.4082,-1.5003,-1.5683,-1.5635,-1.5784,-1.5825,-1.5825,-1.5825,-1.5825,-1.5825,-1.5825,-1.5825,-1.5825,-1.5825,-1.5825,-1.5825,-1.5825,-1.5825,-1.5825,-1.5825,-1.5825,-1.5825,-1.5825,-1.5825,-1.5825,-1.5825,-1.5825,-1.5825,-1.5879,-1.5872,-1.5959,-1.5965,-1.6025,-1.6017,-1.6091,-1.6259,-1.6279,-1.6219,-1.6139,-1.6019,-1.5912,-1.5892,-1.5919,-1.5994,-1.6211,-1.6473,-1.703,-1.7761,-1.9018,-2.0649,-2.2227,-2.3956,-2.4813,-2.5276,-2.5684,0.8287,0.863,0.8187,0.7988,0.7988,0.7988,0.7988,0.7988,0.7988,0.7487,0.6734,0.6232,0.4822,0.3083,0.2099,0.1235,0.0,0.0,0.0,0.0,0.0,0.0,0.0,0.0,0.0,0.0,0.0,0.0,0.0,-0.0907,-0.2313,-0.4218,-0.6174,-0.7232,-0.7736,-0.7988,-0.7988,-0.7988,-0.7988,-0.7988,-0.7988,-0.7988,-0.7988,-0.7988,-0.7988,-0.7988,-0.7988,-0.7988,-0.7988,-0.7988,-0.7988,-0.7988,-0.8333,-0.8726,-0.9312,-0.9653,-0.9948,-1.0676,-1.1068,-1.1214,-1.2431,-1.3932,-1.4752,-1.5099,-1.5296,-1.5486,-1.573,-1.5825,-1.573,-1.5683,-1.5635,-1.5683,-1.5778,-1.5778,-1.5778,-1.5778,-1.5825,-1.5825,-1.5825,-1.5825,-1.5825,-1.5825,-1.5825,-1.5825,-1.5825,-1.5825,-1.5825,-1.5825,-1.5825,-1.5825,-1.5825,-1.5838,-1.5852,-1.5871,-1.5891,-1.5939,-1.5925,-1.5845,-1.5832,-1.5784,-1.5838,-1.5852,-1.5838,-1.5825,-1.6015,-1.6103,-1.6109,-1.6772,-1.7841,-1.8926,-2.0153,-2.1933,-2.3843,-2.4584,-2.5025,0.8871,0.9702,0.8577,0.8091,0.7988,0.7988,0.7988,0.7988,0.7988,0.7988,0.7839,0.6634,0.5425,0.4031,0.2714,0.1485,0.0,0.0,0.0,0.0,0.0,0.0,0.0,0.0,0.0,0.0,0.0,0.0,0.0,-0.0656,-0.1962,-0.3616,-0.5422,-0.6631,-0.7385,-0.7889,-0.7939,-0.7988,-0.7988,-0.7988,-0.7988,-0.7988,-0.7988,-0.7988,-0.7988,-0.7988,-0.7988,-0.7988,-0.7988,-0.7988,-0.7988,-0.7988,-0.8038,-0.7988,-0.8038,-0.8088,-0.8237,-0.9019,-0.9702,-0.9899,-1.0386,-1.175,-1.2909,-1.3488,-1.4028,-1.4513,-1.4711,-1.4997,-1.5051,-1.5248,-1.5343,-1.5534,-1.573,-1.573,-1.573,-1.5778,-1.5778,-1.5825,-1.5825,-1.5825,-1.5825,-1.5825,-1.5825,-1.5825,-1.5825,-1.5825,-1.5825,-1.5825,-1.5825,-1.5825,-1.5825,-1.5825,-1.5832,-1.5832,-1.5825,-1.5825,-1.5825,-1.5825,-1.5825,-1.5832,-1.5825,-1.5825,-1.5825,-1.5825,-1.5825,-1.5872,-1.592,-1.6062,-1.6454,-1.7545,-1.8491,-2.0017,-2.1922,-2.3228,-2.3895,1.0485,1.0002,0.9558,0.8871,0.8088,0.7988,0.7988,0.7988,0.7988,0.7988,0.7988,0.7587,0.6528,0.5329,0.4041,0.2676,0.1467,0.0,0.0,0.0,0.0,0.0,0.0,0.0,0.0,0.0,0.0,0.0,0.0,-0.0706,-0.136,-0.2715,-0.4622,-0.5877,-0.6783,-0.7537,-0.7789,-0.7988,-0.7988,-0.7988,-0.7988,-0.7988,-0.7988,-0.7988,-0.7988,-0.7988,-0.7988,-0.7988,-0.7988,-0.7988,-0.7988,-0.7988,-0.7988,-0.7988,-0.7988,-0.7988,-0.8038,-0.8237,-0.8528,-0.8577,-0.892,-0.9558,-1.0529,-1.1599,-1.2237,-1.2866,-1.3204,-1.3692,-1.4076,-1.4226,-1.4274,-1.4465,-1.4609,-1.4609,-1.4758,-1.5051,-1.5099,-1.5099,-1.5099,-1.5194,-1.5194,-1.5635,-1.5635,-1.5825,-1.5825,-1.5825,-1.5825,-1.5825,-1.5825,-1.5825,-1.5825,-1.5825,-1.5825,-1.5825,-1.5825,-1.5825,-1.5825,-1.5825,-1.5825,-1.5825,-1.5825,-1.5825,-1.5825,-1.5825,-1.5825,-1.5825,-1.5825,-1.5967,-1.6109,-1.6015,-1.6864,-1.8431,-1.9927,-2.1195,-2.2577,1.1463,1.073,1.0194,0.9217,0.8137,0.7988,0.7988,0.7988,0.7988,0.7988,0.7988,0.7939,0.7235,0.5979,0.5027,0.377,0.1913,0.1261,0.0,0.0,0.0,0.0,0.0,0.0,0.0,0.0,0.0,0.0,0.0,0.0,-0.131,-0.2213,-0.3971,-0.4924,-0.5927,-0.6781,-0.7434,-0.7786,-0.7988,-0.7988,-0.7988,-0.7988,-0.7988,-0.7988,-0.7988,-0.7988,-0.7988,-0.7988,-0.7988,-0.7988,-0.7988,-0.7988,-0.7988,-0.7988,-0.7988,-0.7988,-0.7988,-0.8038,-0.8137,-0.8088,-0.8038,-0.8187,-0.8775,-0.941,-1.0534,-1.1312,-1.1848,-1.2334,-1.2721,-1.2963,-1.3011,-1.306,-1.3156,-1.3204,-1.3644,-1.413,-1.4178,-1.4178,-1.4226,-1.4322,-1.4663,-1.5146,-1.5439,-1.5635,-1.5825,-1.5825,-1.5825,-1.5825,-1.5825,-1.5825,-1.5825,-1.5825,-1.5825,-1.5825,-1.5825,-1.5825,-1.5825,-1.5825,-1.5825,-1.5825,-1.5825,-1.5825,-1.5825,-1.5825,-1.5825,-1.5825,-1.5825,-1.5825,-1.5872,-1.5825,-1.5825,-1.6876,-1.818,-1.9265,-2.0646,1.2091,1.1707,1.044,0.9065,0.8088,0.7988,0.7988,0.7988,0.7988,0.7988,0.7988,0.7988,0.7385,0.6481,0.5877,0.442,0.2865,0.1912,0.0,0.0,0.0,0.0,0.0,0.0,0.0,0.0,0.0,0.0,0.0,0.0,-0.0908,-0.1813,-0.2214,-0.3268,-0.4872,-0.5977,-0.6681,-0.7335,-0.7786,-0.7988,-0.7988,-0.7988,-0.7988,-0.7988,-0.7988,-0.7988,-0.7988,-0.7988,-0.7988,-0.7988,-0.7988,-0.7988,-0.7988,-0.7988,-0.7988,-0.7988,-0.7988,-0.7988,-0.7988,-0.7988,-0.7988,-0.7988,-0.8038,-0.8333,-0.9213,-0.9948,-1.0534,-1.0872,-1.1165,-1.1214,-1.1214,-1.1994,-1.2382,-1.2285,-1.2431,-1.2818,-1.2963,-1.2963,-1.3011,-1.3204,-1.3644,-1.4124,-1.4561,-1.4657,-1.4663,-1.5194,-1.5439,-1.5432,-1.5534,-1.5534,-1.5683,-1.5683,-1.5778,-1.5778,-1.5825,-1.5825,-1.5825,-1.5825,-1.5825,-1.5825,-1.5825,-1.5825,-1.5825,-1.5825,-1.5825,-1.5825,-1.5825,-1.5825,-1.5825,-1.5825,-1.5825,-1.5825,-1.6599,-1.7666,-1.8706,1.3692,1.1702,0.946,0.8287,0.8038,0.7988,0.7988,0.7988,0.7988,0.7988,0.7988,0.7988,0.7836,0.7335,0.6481,0.5072,0.3767,0.2564,0.126,0.0,0.0,0.0,0.0,0.0,0.0,0.0,0.0,0.0,0.0,0.0,0.0,-0.0605,-0.1209,-0.2515,-0.3417,-0.4622,-0.6079,-0.6731,-0.7587,-0.7939,-0.7988,-0.7988,-0.7988,-0.7988,-0.7988,-0.7988,-0.7988,-0.7988,-0.7988,-0.7988,-0.7988,-0.7988,-0.7988,-0.7988,-0.7988,-0.7988,-0.7988,-0.7988,-0.7988,-0.7988,-0.7988,-0.7988,-0.7988,-0.7988,-0.8283,-0.8726,-0.9069,-0.941,-0.9558,-0.9509,-0.9752,-1.0779,-1.1458,-1.1268,-1.1121,-1.1409,-1.1702,-1.175,-1.175,-1.2042,-1.2479,-1.3006,-1.344,-1.359,-1.359,-1.3782,-1.4166,-1.4364,-1.4657,-1.4806,-1.5242,-1.5391,-1.573,-1.5778,-1.5778,-1.5825,-1.5825,-1.5825,-1.5825,-1.5825,-1.5825,-1.5825,-1.5825,-1.5825,-1.5825,-1.5825,-1.5825,-1.5825,-1.5825,-1.5825,-1.5825,-1.5825,-1.5825,-1.6653,-1.7388,1.4609,1.2528,0.9993,0.8531,0.8038,0.7988,0.7988,0.7988,0.7988,0.7988,0.7988,0.7988,0.7988,0.7988,0.7185,0.6079,0.4768,0.3516,0.2314,0.121,0.0,0.0,0.0,0.0,0.0,0.0,0.0,0.0,0.0,0.0,0.0,0.0,0.0,-0.1511,-0.2063,-0.4021,-0.5425,-0.6029,-0.7235,-0.7839,-0.7939,-0.7988,-0.7988,-0.7988,-0.7988,-0.7988,-0.7988,-0.7988,-0.7988,-0.7988,-0.7988,-0.7988,-0.7988,-0.7988,-0.7988,-0.7988,-0.7988,-0.7988,-0.7988,-0.7988,-0.7988,-0.7988,-0.7988,-0.7988,-0.7988,-0.8382,-0.8382,-0.8676,-0.8726,-0.8726,-0.8676,-0.9406,-0.9558,-0.941,-0.941,-0.9604,-1.0043,-1.0386,-1.0092,-0.985,-1.0627,-1.1891,-1.2231,-1.2425,-1.2479,-1.2673,-1.2958,-1.3006,-1.3349,-1.3884,-1.4418,-1.4854,-1.5045,-1.5581,-1.5825,-1.5825,-1.5825,-1.5825,-1.5825,-1.5825,-1.5825,-1.5825,-1.5825,-1.5825,-1.5825,-1.5825,-1.5825,-1.5825,-1.5825,-1.5825,-1.5825,-1.5825,-1.5825,-1.5825,-1.64,1.5045,1.3584,1.1068,0.9361,0.8333,0.8038,0.7988,0.7988,0.7988,0.7988,0.7988,0.7988,0.7988,0.7988,0.7939,0.7033,0.5827,0.4268,0.3116,0.1812,0.0504,0.0,0.0,0.0,0.0,0.0,0.0,0.0,0.0,0.0,0.0,0.0,0.0,-0.0605,-0.1812,-0.3015,-0.4117,-0.5172,-0.6279,-0.7437,-0.7736,-0.7939,-0.7988,-0.7988,-0.7988,-0.7988,-0.7988,-0.7988,-0.7988,-0.7988,-0.7988,-0.7988,-0.7988,-0.7988,-0.7988,-0.7988,-0.7988,-0.7988,-0.7988,-0.7988,-0.7988,-0.7988,-0.7988,-0.7988,-0.7988,-0.7988,-0.7988,-0.8038,-0.8088,-0.8088,-0.8088,-0.8088,-0.8137,-0.8137,-0.8187,-0.8237,-0.8726,-0.9167,-0.8726,-0.8237,-0.9262,-1.0627,-1.1068,-1.1263,-1.1312,-1.1512,-1.1658,-1.1658,-1.1848,-1.2528,-1.3156,-1.359,-1.3932,-1.4561,-1.5486,-1.573,-1.5683,-1.5825,-1.5825,-1.5825,-1.5825,-1.5825,-1.5825,-1.5825,-1.5825,-1.5825,-1.5825,-1.5825,-1.5825,-1.5825,-1.5825,-1.5825,-1.5825,-1.5825,-1.5825,1.5051,1.368,1.1116,0.985,0.9464,0.8482,0.7988,0.7988,0.7988,0.7988,0.7988,0.7988,0.7988,0.7988,0.7988,0.7335,0.6279,0.482,0.3366,0.1963,0.0857,0.0,0.0,0.0,0.0,0.0,0.0,0.0,0.0,0.0,0.0,0.0,0.0,0.0,-0.0504,-0.1711,-0.2865,-0.3869,-0.5172,-0.6379,-0.6731,-0.7083,-0.7889,-0.7988,-0.7988,-0.7988,-0.7988,-0.7988,-0.7988,-0.7988,-0.7988,-0.7988,-0.7988,-0.7988,-0.7988,-0.7988,-0.7988,-0.7988,-0.7988,-0.7988,-0.7988,-0.7988,-0.7988,-0.7988,-0.7988,-0.7988,-0.7988,-0.7988,-0.8038,-0.8038,-0.8038,-0.8038,-0.8038,-0.8038,-0.8088,-0.8088,-0.8333,-0.8432,-0.8233,-0.8088,-0.8382,-0.941,-1.0092,-0.9998,-0.9608,-0.9899,-1.0342,-1.0342,-1.0435,-1.1116,-1.1799,-1.2285,-1.2668,-1.4124,-1.5289,-1.5486,-1.5534,-1.5683,-1.5825,-1.5825,-1.5825,-1.5825,-1.5825,-1.5825,-1.5825,-1.5825,-1.5825,-1.5825,-1.5825,-1.5825,-1.5825,-1.5825,-1.5825,-1.5825,-1.5825]}]]